[[{"header":{"parameterUnit":"m.s-1","parameterCategory":1,"la1":31.0,"la2":29.5877,"lo1":-88.7671,"lo2":-86.6584,"dy":0.0162,"dx":0.0185,"nx":115,"ny":88,"refTime":"2023-11-20T06:00:00:Z","depth":0,"parameterNumber":2,"parameterNumberName":"U-component_of_WINDS"},"data":[0.0,0.0,0.0,0.0,0.0,0.0,0.0,0.0,0.0,0.0,0.0,0.0,0.0,0.0,0.0,0.0,0.0,0.0,0.0,0.0,0.0,0.0,0.0,0.0,0.0,0.0,0.0,0.0,0.0,0.0,0.0,0.0,0.0,0.0,0.0,0.0,0.0,0.0,0.0,0.0,0.0,0.0,0.0,0.0,0.0,0.0,0.0,0.0,0.0,0.0,0.0,0.0,0.0,0.0,0.0,0.0,0.0,0.0,0.0,0.0,0.0,0.0,0.0,0.0,0.0,0.0,0.0,0.0,0.0,0.0,0.0,0.0,0.0,0.0,0.0,0.0,0.0,0.0,0.0,0.0,0.0,0.0,0.0,0.0,0.0,0.0,0.0,0.0,0.0,0.0,0.0,0.0,0.0,0.0,0.0,0.0,0.0,0.0,0.0,0.0,0.0,0.0,0.0,0.0,0.0,0.0,0.0,0.0,0.0,0.0,0.0,0.0,0.0,0.0,0.0,0.0,0.0,0.0,0.0,0.0,0.0,0.0,0.0,0.0,0.0,0.0,0.0,0.0,0.0,0.0,0.0,0.0,0.0,0.0,0.0,0.0,0.0,0.0,0.0,0.0,0.0,0.0,0.0,0.0,0.0,0.0,0.0,0.0,0.0,0.0,0.0,0.0,0.0,0.0,0.0,0.0,0.0,0.0,0.0,0.0,0.0,0.0,0.0,0.0,0.0,0.0,0.0,0.0,0.0,0.0,0.0,0.0,0.0,0.0,0.0,0.0,0.0,0.0,0.0,0.0,0.0,0.0,0.0,0.0,0.0,0.0,0.0,0.0,0.0,0.0,0.0,0.0,0.0,0.0,0.0,0.0,0.0,0.0,0.0,0.0,0.0,0.0,0.0,0.0,0.0,0.0,0.0,0.0,0.0,0.0,0.0,0.0,0.0,0.0,0.0,0.0,0.0,0.0,0.0,0.0,0.0,0.0,0.0,0.0,0.0,0.0,0.0,0.0,0.0,0.0,0.0,0.0,0.0,0.0,0.0,0.0,0.0,0.0,0.0,0.0,0.0,0.0,0.0,0.0,0.0,0.0,0.0,0.0,0.0,0.0,0.0,0.0,0.0,0.0,0.0,0.0,0.0,0.0,0.0,0.0,0.0,0.0,0.0,0.0,0.0,0.0,0.0,0.0,0.0,0.0,0.0,0.0,0.0,0.0,0.0,0.0,0.0,0.0,0.0,0.0,0.0,0.0,0.0,0.0,0.0,0.0,0.0,0.0,0.0,0.0,0.0,0.0,0.0,0.0,0.0,0.0,0.0,0.0,0.0,0.0,0.0,0.0,0.0,0.0,0.0,0.0,0.0,0.0,0.0,0.0,0.0,0.0,0.0,0.0,0.0,0.0,0.0,0.0,0.0,0.0,0.0,0.0,0.0,0.0,0.0,0.0,0.0,0.0,0.0,0.0,0.0,0.0,0.0,0.0,0.0,0.0,0.0,0.0,0.0,0.0,0.0,0.0,0.0,0.0,0.0,0.0,0.0,0.0,0.0,0.0,0.0,0.0,0.0,0.0,0.0,0.0,0.0,0.0,0.0,0.0,0.0,0.0,0.0,0.0,0.0,0.0,0.0,0.0,0.0,0.0,0.0,0.0,0.0,0.0,0.0,0.0,0.0,0.0,0.0,0.0,0.0,0.0,0.0,0.0,0.0,0.0,0.0,0.0,0.0,0.0,0.0,0.0,0.0,0.0,0.0,0.0,0.0,0.0,0.0,0.0,0.0,0.0,0.0,0.0,0.0,0.0,0.0,0.0,0.0,0.0,0.0,0.0,0.0,0.0,0.0,0.0,0.0,0.0,0.0,0.0,0.0,0.0,0.0,0.0,0.0,0.0,0.0,0.0,0.0,0.0,0.0,0.0,0.0,0.0,0.0,0.0,0.0,0.0,0.0,0.0,0.0,0.0,0.0,0.0,0.0,0.0,0.0,0.0,0.0,0.0,0.0,0.0,0.0,0.0,0.0,0.0,0.0,0.0,0.0,0.0,0.0,0.0,0.0,0.0,0.0,0.0,0.0,0.0,0.0,0.0,0.0,0.0,0.0,0.0,0.0,0.0,0.0,0.0,0.0,0.0,0.0,0.0,0.0,0.0,0.0,0.0,0.0,0.0,0.0,0.0,0.0,0.0,0.0,0.0,0.0,0.0,0.0,0.0,0.0,0.0,0.0,0.0,0.0,0.0,0.0,0.0,0.0,0.0,0.0,0.0,0.0,0.0,0.0,0.0,0.0,0.0,0.0,0.0,0.0,0.0,0.0,0.0,0.0,0.0,0.0,0.0,0.0,0.0,0.0,0.0,0.0,0.0,0.0,0.0,0.0,0.0,0.0,0.0,0.0,0.0,0.0,0.0,0.0,0.0,0.0,0.0,0.0,0.0,0.0,0.0,0.0,0.0,0.0,0.0,0.0,0.0,0.0,0.0,0.0,0.0,0.0,0.0,0.0,0.0,0.0,0.0,0.0,0.0,0.0,0.0,0.0,0.0,0.0,0.0,0.0,0.0,0.0,0.0,0.0,0.0,0.0,0.0,0.0,0.0,0.0,0.0,0.0,0.0,0.0,0.0,0.0,0.0,0.0,0.0,0.0,0.0,0.0,0.0,0.0,0.0,0.0,0.0,0.0,0.0,0.0,0.0,0.0,0.0,0.0,0.0,0.0,0.0,0.0,0.0,0.0,0.0,0.0,0.0,0.0,0.0,0.0,0.0,0.0,0.0,0.0,0.0,0.0,0.0,0.0,0.0,0.0,0.0,0.0,0.0,0.0,0.0,0.0,0.0,0.0,0.0,0.0,0.0,0.0,0.0,0.0,0.0,0.0,0.0,0.0,0.0,0.0,0.0,0.0,0.0,0.0,0.0,0.0,0.0,0.0,0.0,0.0,0.0,0.0,0.0,0.0,0.0,0.0,0.0,0.0,0.0,0.0,0.0,0.0,0.0,0.0,0.0,0.0,0.0,0.0,0.0,0.0,0.0,0.0,0.0,0.0,0.0,0.0,0.0,0.0,0.0,0.0,0.0,0.0,0.0,0.0,0.0,0.0,0.0,0.0,0.0,0.0,0.0,0.0,0.0,0.0,0.0,0.0,0.0,0.0,0.0,0.0,0.0,0.0,0.0,0.0,0.0,0.0,0.0,0.0,0.0,0.0,0.0,0.0,0.0,0.0,0.0,0.0,0.0,0.0,0.0,0.0,0.0,0.0,0.0,0.0,0.0,0.0,0.0,0.0,0.0,0.0,0.0,0.0,0.0,0.0,0.0,0.0,0.0,0.0,0.0,0.0,0.0,0.0,0.0,0.0,0.0,0.0,0.0,0.0,0.0,0.0,0.0,0.0,0.0,0.0,0.0,0.0,0.0,0.0,0.0,0.0,0.0,0.0,0.0,0.0,0.0,0.0,0.0,0.0,0.0,0.0,0.0,0.0,0.0,0.0,0.0,0.0,0.0,0.0,0.0,0.0,0.0,0.0,0.0,0.0,0.0,0.0,0.0,0.0,0.0,0.0,0.0,0.0,0.0,0.0,0.0,0.0,0.0,0.0,0.0,0.0,0.0,0.0,0.0,0.0,0.0,0.0,0.0,0.0,0.0,0.0,0.0,0.0,0.0,0.0,0.0,0.0,0.0,0.0,0.0,0.0,0.0,0.0,0.0,0.0,0.0,0.0,0.0,0.0,0.0,0.0,0.0,0.0,0.0,0.0,0.0,0.0,0.0,0.0,0.0,0.0,0.0,0.0,0.0,0.0,0.0,0.0,0.0,0.0,0.0,0.0,0.0,0.0,0.0,0.0,0.0,0.0,0.0,0.0,0.0,0.0,0.0,0.0,0.0,0.0,0.0,0.0,0.0,0.0,0.0,0.0,0.0,0.0,0.0,0.0,0.0,0.0,0.0,0.0,0.0,0.0,0.0,0.0,0.0,0.0,0.0,0.0,0.0,0.0,0.0,0.0,0.0,0.0,0.0,0.0,0.0,0.0,0.0,0.0,0.0,0.0,0.0,0.0,0.0,0.0,0.0,0.0,0.0,0.0,0.0,0.0,0.0,0.0,0.0,0.0,0.0,0.0,0.0,0.0,0.0,0.0,0.0,0.0,0.0,0.0,0.0,0.0,0.0,0.0,0.0,0.0,0.0,0.0,0.0,0.0,0.0,0.0,0.0,0.0,0.0,0.0,0.0,0.0,0.0,0.0,0.0,0.0,0.0,0.0,0.0,0.0,0.0,0.0,0.0,0.0,0.0,3.3562,0.0,0.0,0.0,0.0,0.0,0.0,0.0,0.0,0.0,0.0,0.0,0.0,0.0,0.0,0.0,0.0,0.0,0.0,0.0,0.0,0.0,0.0,0.0,0.0,0.0,0.0,0.0,0.0,0.0,0.0,0.0,0.0,0.0,0.0,0.0,0.0,0.0,0.0,0.0,0.0,0.0,0.0,0.0,0.0,0.0,0.0,0.0,0.0,0.0,0.0,0.0,0.0,0.0,0.0,0.0,0.0,0.0,0.0,0.0,0.0,0.0,0.0,0.0,0.0,0.0,0.0,0.0,0.0,0.0,0.0,0.0,0.0,0.0,0.0,0.0,0.0,0.0,0.0,0.0,0.0,0.0,0.0,0.0,0.0,0.0,0.0,0.0,0.0,0.0,0.0,0.0,0.0,0.0,0.0,0.0,0.0,0.0,0.0,0.0,0.0,0.0,0.0,0.0,0.0,0.0,0.0,0.0,0.0,0.0,0.0,3.4908,3.4908,3.4908,3.4737,3.4339,0.0,0.0,0.0,0.0,0.0,0.0,0.0,0.0,0.0,0.0,0.0,0.0,0.0,0.0,0.0,0.0,0.0,0.0,0.0,0.0,0.0,0.0,0.0,0.0,0.0,0.0,0.0,0.0,0.0,0.0,0.0,0.0,0.0,0.0,0.0,0.0,0.0,0.0,0.0,0.0,0.0,0.0,0.0,0.0,0.0,0.0,0.0,0.0,0.0,0.0,0.0,0.0,0.0,0.0,0.0,0.0,0.0,0.0,0.0,0.0,0.0,0.0,0.0,0.0,0.0,0.0,0.0,0.0,0.0,0.0,0.0,0.0,0.0,0.0,0.0,0.0,0.0,0.0,0.0,0.0,0.0,0.0,0.0,0.0,0.0,0.0,0.0,0.0,0.0,0.0,0.0,0.0,0.0,0.0,0.0,0.0,0.0,0.0,0.0,0.0,0.0,0.0,0.0,0.0,0.0,0.0,0.0,0.0,0.0,0.0,0.0,0.0,3.4908,3.4908,3.4851,0.0,0.0,0.0,0.0,0.0,0.0,0.0,0.0,0.0,0.0,0.0,0.0,0.0,0.0,0.0,0.0,0.0,0.0,0.0,0.0,0.0,0.0,0.0,0.0,0.0,0.0,0.0,0.0,0.0,0.0,0.0,0.0,0.0,0.0,0.0,0.0,0.0,0.0,0.0,0.0,0.0,0.0,0.0,0.0,0.0,0.0,0.0,0.0,0.0,0.0,0.0,0.0,0.0,0.0,0.0,0.0,0.0,0.0,0.0,0.0,0.0,0.0,0.0,0.0,0.0,0.0,0.0,0.0,0.0,0.0,0.0,0.0,0.0,0.0,0.0,0.0,0.0,0.0,0.0,0.0,0.0,0.0,0.0,0.0,0.0,0.0,0.0,0.0,0.0,0.0,0.0,0.0,0.0,0.0,0.0,0.0,0.0,0.0,0.0,0.0,0.0,0.0,0.0,0.0,0.0,0.0,0.0,0.0,0.0,0.0,3.4908,3.4908,3.4908,0.0,3.4775,0.0,0.0,0.0,0.0,0.0,0.0,0.0,0.0,0.0,0.0,0.0,0.0,0.0,0.0,0.0,0.0,0.0,0.0,0.0,0.0,0.0,0.0,0.0,0.0,0.0,0.0,0.0,0.0,0.0,0.0,0.0,0.0,0.0,0.0,0.0,0.0,0.0,0.0,0.0,0.0,0.0,0.0,0.0,0.0,0.0,0.0,0.0,0.0,0.0,0.0,0.0,0.0,0.0,0.0,0.0,0.0,0.0,0.0,0.0,0.0,0.0,0.0,0.0,0.0,0.0,0.0,0.0,0.0,0.0,0.0,0.0,0.0,0.0,0.0,0.0,0.0,0.0,0.0,0.0,0.0,0.0,0.0,0.0,0.0,0.0,0.0,0.0,0.0,0.0,0.0,0.0,0.0,0.0,0.0,0.0,0.0,0.0,0.0,0.0,0.0,0.0,0.0,0.0,0.0,0.0,0.0,0.0,0.0,0.0,0.0,3.3997,3.3485,3.3976,3.4488,0.0,0.0,0.0,0.0,0.0,0.0,0.0,0.0,0.0,0.0,0.0,0.0,0.0,0.0,0.0,0.0,0.0,0.0,0.0,0.0,0.0,0.0,0.0,0.0,0.0,0.0,0.0,0.0,0.0,0.0,0.0,0.0,0.0,0.0,0.0,0.0,0.0,0.0,0.0,0.0,0.0,0.0,0.0,0.0,0.0,0.0,0.0,0.0,0.0,0.0,0.0,0.0,0.0,0.0,0.0,0.0,0.0,0.0,0.0,0.0,0.0,0.0,0.0,0.0,0.0,0.0,0.0,0.0,0.0,0.0,0.0,0.0,0.0,0.0,0.0,0.0,0.0,0.0,0.0,0.0,0.0,0.0,0.0,0.0,0.0,0.0,0.0,0.0,0.0,0.0,0.0,0.0,0.0,0.0,0.0,0.0,0.0,0.0,0.0,0.0,0.0,0.0,0.0,0.0,0.0,0.0,0.0,0.0,0.0,0.0,3.3444,3.3177,3.2607,3.3135,3.3855,3.4693,0.0,0.0,0.0,0.0,0.0,0.0,0.0,0.0,0.0,0.0,0.0,0.0,0.0,0.0,0.0,0.0,0.0,0.0,0.0,0.0,0.0,0.0,0.0,0.0,0.0,0.0,0.0,0.0,0.0,0.0,0.0,0.0,0.0,0.0,0.0,0.0,0.0,0.0,0.0,0.0,0.0,0.0,0.0,0.0,0.0,0.0,0.0,0.0,0.0,0.0,0.0,0.0,0.0,0.0,0.0,0.0,0.0,0.0,0.0,0.0,0.0,0.0,0.0,0.0,0.0,0.0,0.0,0.0,0.0,0.0,0.0,0.0,0.0,0.0,0.0,0.0,0.0,0.0,0.0,0.0,0.0,0.0,0.0,0.0,0.0,0.0,0.0,0.0,0.0,0.0,0.0,0.0,0.0,0.0,0.0,0.0,0.0,0.0,0.0,0.0,0.0,0.0,0.0,0.0,0.0,0.0,0.0,0.0,3.259,3.2604,3.2621,3.2564,3.2621,3.302,0.0,0.0,0.0,0.0,0.0,0.0,0.0,0.0,0.0,0.0,0.0,0.0,0.0,0.0,0.0,0.0,0.0,0.0,0.0,0.0,0.0,0.0,0.0,0.0,0.0,0.0,0.0,0.0,0.0,0.0,0.0,0.0,0.0,0.0,0.0,0.0,0.0,0.0,0.0,0.0,0.0,0.0,0.0,0.0,0.0,0.0,0.0,0.0,0.0,0.0,0.0,0.0,0.0,0.0,0.0,0.0,0.0,0.0,0.0,0.0,0.0,0.0,0.0,0.0,0.0,0.0,0.0,0.0,0.0,0.0,0.0,0.0,0.0,0.0,0.0,0.0,0.0,0.0,0.0,0.0,0.0,0.0,0.0,0.0,0.0,0.0,0.0,0.0,0.0,0.0,0.0,0.0,0.0,0.0,0.0,0.0,0.0,0.0,0.0,0.0,0.0,0.0,0.0,0.0,0.0,0.0,0.0,0.0,0.0,3.1768,3.1245,3.1276,3.1878,3.1859,3.2241,0.0,0.0,0.0,0.0,0.0,0.0,0.0,0.0,0.0,0.0,0.0,0.0,0.0,0.0,0.0,0.0,0.0,0.0,0.0,0.0,0.0,0.0,0.0,0.0,0.0,0.0,0.0,0.0,0.0,0.0,0.0,0.0,0.0,0.0,0.0,0.0,0.0,0.0,0.0,0.0,0.0,0.0,0.0,0.0,0.0,0.0,0.0,0.0,0.0,0.0,0.0,0.0,0.0,0.0,0.0,0.0,0.0,0.0,0.0,0.0,0.0,0.0,0.0,0.0,0.0,0.0,0.0,0.0,0.0,0.0,0.0,0.0,0.0,0.0,0.0,0.0,0.0,0.0,0.0,0.0,0.0,0.0,0.0,0.0,0.0,0.0,0.0,0.0,0.0,0.0,0.0,0.0,0.0,0.0,0.0,0.0,0.0,0.0,0.0,0.0,0.0,0.0,0.0,0.0,0.0,0.0,0.0,0.0,0.0,3.1352,0.0,3.0586,3.147,3.1207,3.1456,0.0,0.0,0.0,0.0,0.0,0.0,0.0,0.0,0.0,0.0,0.0,0.0,0.0,0.0,0.0,0.0,0.0,0.0,0.0,0.0,0.0,0.0,0.0,0.0,0.0,0.0,0.0,0.0,0.0,0.0,0.0,0.0,0.0,0.0,0.0,0.0,0.0,0.0,0.0,0.0,0.0,0.0,0.0,0.0,0.0,0.0,0.0,0.0,0.0,0.0,0.0,0.0,0.0,0.0,0.0,0.0,0.0,0.0,0.0,0.0,0.0,0.0,0.0,0.0,0.0,0.0,0.0,0.0,0.0,0.0,0.0,0.0,0.0,0.0,0.0,0.0,0.0,0.0,0.0,0.0,0.0,0.0,0.0,0.0,0.0,0.0,0.0,0.0,0.0,0.0,0.0,0.0,0.0,0.0,0.0,0.0,0.0,0.0,0.0,0.0,0.0,0.0,0.0,0.0,0.0,0.0,0.0,0.0,3.1474,3.1484,3.0705,3.0751,3.1558,3.0829,3.0752,0.0,0.0,0.0,0.0,0.0,0.0,0.0,0.0,0.0,0.0,0.0,0.0,0.0,0.0,0.0,0.0,0.0,0.0,0.0,0.0,0.0,0.0,0.0,0.0,0.0,0.0,0.0,0.0,0.0,0.0,0.0,0.0,0.0,0.0,0.0,0.0,0.0,0.0,0.0,0.0,0.0,0.0,0.0,0.0,0.0,0.0,0.0,0.0,0.0,0.0,0.0,0.0,0.0,0.0,0.0,0.0,0.0,0.0,0.0,0.0,0.0,0.0,0.0,0.0,0.0,0.0,0.0,0.0,0.0,0.0,0.0,0.0,0.0,0.0,0.0,0.0,0.0,0.0,0.0,0.0,0.0,0.0,0.0,0.0,0.0,0.0,0.0,0.0,0.0,0.0,0.0,0.0,0.0,0.0,0.0,0.0,0.0,0.0,0.0,0.0,0.0,0.0,0.0,0.0,0.0,0.0,0.0,0.0,0.0,3.2388,3.2144,3.2146,3.2365,3.1642,3.1308,0.0,0.0,0.0,0.0,0.0,0.0,0.0,0.0,0.0,0.0,0.0,0.0,0.0,0.0,0.0,0.0,0.0,0.0,0.0,0.0,0.0,0.0,0.0,0.0,0.0,0.0,0.0,0.0,0.0,0.0,0.0,0.0,0.0,0.0,0.0,0.0,0.0,0.0,0.0,0.0,0.0,0.0,0.0,0.0,0.0,0.0,0.0,0.0,0.0,0.0,0.0,0.0,0.0,0.0,0.0,0.0,0.0,0.0,0.0,0.0,0.0,0.0,0.0,0.0,0.0,0.0,0.0,0.0,0.0,0.0,0.0,0.0,0.0,0.0,0.0,0.0,0.0,0.0,0.0,0.0,0.0,0.0,0.0,0.0,0.0,0.0,0.0,0.0,0.0,0.0,0.0,0.0,0.0,0.0,0.0,0.0,0.0,0.0,0.0,0.0,0.0,0.0,0.0,0.0,0.0,0.0,0.0,0.0,0.0,3.4198,3.3322,3.2979,3.3314,3.2539,3.1969,3.1623,0.0,0.0,0.0,0.0,0.0,0.0,0.0,0.0,0.0,0.0,0.0,0.0,0.0,0.0,0.0,0.0,0.0,0.0,0.0,0.0,0.0,0.0,0.0,0.0,0.0,0.0,0.0,0.0,0.0,0.0,0.0,0.0,0.0,0.0,0.0,0.0,0.0,0.0,0.0,0.0,0.0,0.0,0.0,0.0,0.0,0.0,0.0,0.0,0.0,0.0,0.0,0.0,0.0,0.0,0.0,0.0,0.0,0.0,0.0,0.0,0.0,0.0,0.0,0.0,0.0,0.0,0.0,0.0,0.0,0.0,0.0,0.0,0.0,0.0,0.0,0.0,0.0,0.0,0.0,0.0,0.0,0.0,0.0,0.0,0.0,0.0,0.0,0.0,0.0,0.0,0.0,0.0,0.0,0.0,0.0,0.0,0.0,0.0,0.0,0.0,0.0,0.0,0.0,0.0,0.0,0.0,0.0,0.0,3.6765,3.4424,3.3596,3.432,3.3569,3.274,0.0,0.0,0.0,0.0,0.0,0.0,0.0,0.0,0.0,0.0,0.0,0.0,0.0,0.0,0.0,0.0,0.0,0.0,0.0,0.0,0.0,0.0,0.0,0.0,0.0,0.0,0.0,0.0,0.0,0.0,0.0,0.0,0.0,0.0,0.0,0.0,0.0,0.0,0.0,0.0,0.0,0.0,0.0,0.0,0.0,0.0,0.0,0.0,0.0,0.0,0.0,0.0,0.0,0.0,0.0,0.0,0.0,0.0,0.0,0.0,0.0,0.0,0.0,0.0,0.0,0.0,0.0,0.0,0.0,0.0,0.0,0.0,0.0,0.0,0.0,0.0,0.0,0.0,0.0,0.0,0.0,0.0,0.0,0.0,0.0,0.0,0.0,0.0,0.0,0.0,0.0,0.0,0.0,0.0,0.0,0.0,0.0,0.0,0.0,0.0,0.0,0.0,0.0,0.0,0.0,0.0,0.0,0.0,0.0,3.7656,3.7079,3.6535,3.6132,3.5348,3.4499,0.0,0.0,0.0,0.0,0.0,0.0,0.0,0.0,0.0,0.0,0.0,0.0,0.0,0.0,0.0,0.0,0.0,0.0,0.0,0.0,0.0,0.0,0.0,0.0,0.0,0.0,0.0,0.0,0.0,0.0,0.0,0.0,0.0,0.0,0.0,0.0,0.0,0.0,0.0,0.0,0.0,0.0,0.0,0.0,0.0,0.0,0.0,0.0,0.0,0.0,0.0,0.0,0.0,0.0,0.0,0.0,0.0,0.0,0.0,0.0,0.0,0.0,0.0,0.0,0.0,0.0,0.0,0.0,0.0,0.0,0.0,0.0,0.0,0.0,0.0,0.0,0.0,0.0,0.0,0.0,0.0,0.0,0.0,0.0,0.0,0.0,0.0,0.0,0.0,0.0,0.0,0.0,0.0,0.0,0.0,0.0,0.0,0.0,0.0,0.0,0.0,0.0,0.0,0.0,0.0,0.0,0.0,0.0,3.8075,3.8651,3.9025,3.8788,3.7906,3.7109,3.6086,0.0,0.0,0.0,0.0,0.0,0.0,0.0,0.0,0.0,0.0,0.0,0.0,0.0,0.0,0.0,0.0,0.0,0.0,0.0,0.0,0.0,0.0,0.0,0.0,0.0,0.0,0.0,0.0,0.0,0.0,0.0,0.0,0.0,0.0,0.0,0.0,0.0,0.0,0.0,0.0,0.0,0.0,0.0,0.0,0.0,0.0,0.0,0.0,0.0,0.0,0.0,0.0,0.0,0.0,0.0,0.0,0.0,0.0,0.0,0.0,0.0,0.0,0.0,0.0,0.0,0.0,0.0,0.0,0.0,0.0,0.0,0.0,0.0,0.0,0.0,0.0,0.0,0.0,0.0,0.0,0.0,0.0,0.0,0.0,0.0,0.0,0.0,0.0,0.0,0.0,0.0,0.0,0.0,0.0,0.0,0.0,0.0,0.0,0.0,0.0,0.0,0.0,0.0,0.0,0.0,0.0,0.0,0.0,3.9378,3.956,4.0301,4.0333,3.9561,3.8749,3.7513,0.0,0.0,0.0,0.0,0.0,0.0,0.0,0.0,0.0,0.0,0.0,0.0,0.0,0.0,0.0,0.0,0.0,0.0,0.0,0.0,0.0,0.0,0.0,0.0,0.0,0.0,0.0,0.0,0.0,0.0,0.0,0.0,0.0,0.0,0.0,0.0,0.0,0.0,0.0,0.0,0.0,0.0,0.0,0.0,0.0,0.0,0.0,0.0,0.0,0.0,0.0,0.0,0.0,0.0,0.0,0.0,0.0,0.0,0.0,0.0,0.0,0.0,0.0,0.0,0.0,0.0,0.0,0.0,0.0,0.0,0.0,0.0,0.0,0.0,0.0,0.0,0.0,0.0,0.0,0.0,0.0,0.0,0.0,0.0,0.0,0.0,0.0,0.0,0.0,0.0,0.0,0.0,0.0,0.0,0.0,0.0,0.0,0.0,0.0,0.0,0.0,0.0,0.0,0.0,0.0,0.0,0.0,0.0,3.9663,4.0397,4.061,4.0636,4.0488,3.9669,3.8419,0.0,0.0,0.0,0.0,0.0,0.0,0.0,0.0,0.0,0.0,0.0,0.0,0.0,0.0,0.0,0.0,0.0,0.0,0.0,0.0,0.0,0.0,0.0,0.0,0.0,0.0,0.0,0.0,0.0,0.0,0.0,0.0,0.0,0.0,0.0,0.0,0.0,0.0,0.0,0.0,0.0,0.0,0.0,0.0,0.0,0.0,0.0,0.0,3.5293,0.0,0.0,0.0,0.0,0.0,0.0,0.0,0.0,0.0,0.0,0.0,0.0,0.0,0.0,0.0,0.0,0.0,0.0,0.0,0.0,0.0,0.0,0.0,0.0,0.0,0.0,0.0,0.0,0.0,0.0,0.0,0.0,0.0,0.0,0.0,0.0,0.0,0.0,0.0,0.0,0.0,0.0,0.0,0.0,0.0,0.0,0.0,0.0,0.0,0.0,0.0,0.0,0.0,0.0,0.0,0.0,0.0,0.0,0.0,4.041,4.1268,4.13,4.1332,4.1351,4.0906,3.9881,0.0,0.0,0.0,0.0,0.0,0.0,0.0,0.0,0.0,0.0,0.0,0.0,0.0,0.0,0.0,0.0,0.0,0.0,0.0,0.0,0.0,0.0,0.0,0.0,0.0,0.0,0.0,0.0,0.0,0.0,0.0,0.0,0.0,0.0,0.0,0.0,0.0,0.0,0.0,0.0,0.0,0.0,0.0,0.0,0.0,0.0,0.0,0.0,0.0,0.0,0.0,0.0,0.0,0.0,0.0,0.0,0.0,0.0,0.0,0.0,0.0,0.0,0.0,0.0,0.0,0.0,0.0,0.0,0.0,0.0,0.0,0.0,0.0,0.0,0.0,0.0,0.0,0.0,0.0,0.0,0.0,0.0,0.0,0.0,0.0,0.0,0.0,0.0,0.0,0.0,0.0,0.0,0.0,0.0,0.0,0.0,0.0,0.0,0.0,0.0,0.0,0.0,0.0,0.0,0.0,0.0,0.0,4.003,4.1254,4.197,4.2125,4.2144,4.199,4.199,4.1274,3.9746,0.0,0.0,0.0,0.0,0.0,0.0,0.0,0.0,0.0,0.0,0.0,0.0,0.0,0.0,0.0,0.0,0.0,0.0,0.0,0.0,0.0,0.0,0.0,0.0,0.0,0.0,0.0,0.0,0.0,0.0,0.0,0.0,0.0,0.0,0.0,0.0,0.0,0.0,3.3501,3.6099,0.0,0.0,0.0,0.0,0.0,0.0,0.0,0.0,3.7382,0.0,0.0,0.0,0.0,0.0,0.0,0.0,0.0,0.0,0.0,0.0,0.0,0.0,0.0,0.0,0.0,0.0,0.0,0.0,0.0,0.0,0.0,0.0,0.0,0.0,0.0,0.0,0.0,0.0,0.0,0.0,0.0,0.0,0.0,0.0,0.0,0.0,0.0,0.0,0.0,0.0,0.0,0.0,0.0,0.0,0.0,0.0,0.0,0.0,0.0,0.0,0.0,0.0,0.0,0.0,0.0,3.9161,4.0899,4.1853,4.2009,4.2725,4.2744,4.2048,4.199,4.1545,4.0578,0.0,0.0,0.0,0.0,0.0,0.0,0.0,0.0,0.0,0.0,0.0,0.0,0.0,0.0,0.0,0.0,0.0,0.0,0.0,0.0,0.0,0.0,0.0,0.0,0.0,0.0,0.0,0.0,0.0,0.0,0.0,0.0,0.0,0.0,0.0,0.0,0.0,0.0,0.0,3.7581,3.8264,0.0,0.0,0.0,0.0,0.0,0.0,0.0,0.0,3.8966,0.0,0.0,0.0,0.0,0.0,0.0,0.0,0.0,0.0,0.0,0.0,0.0,0.0,0.0,0.0,0.0,0.0,0.0,0.0,0.0,0.0,0.0,0.0,0.0,0.0,0.0,0.0,0.0,0.0,0.0,0.0,0.0,0.0,0.0,0.0,0.0,0.0,0.0,0.0,0.0,0.0,0.0,0.0,0.0,0.0,0.0,0.0,0.0,0.0,0.0,0.0,0.0,0.0,0.0,0.0,3.9998,4.1332,4.2441,4.3324,4.3769,4.3788,4.3363,4.2899,4.228,0.0,0.0,0.0,0.0,0.0,0.0,0.0,0.0,0.0,0.0,0.0,0.0,0.0,0.0,0.0,0.0,0.0,0.0,0.0,0.0,0.0,0.0,0.0,0.0,0.0,0.0,0.0,0.0,0.0,0.0,0.0,0.0,0.0,0.0,0.0,0.0,0.0,0.0,0.0,0.0,3.8608,3.9283,3.8524,0.0,0.0,0.0,0.0,0.0,0.0,4.0388,3.9745,0.0,0.0,0.0,0.0,0.0,0.0,0.0,0.0,0.0,0.0,0.0,0.0,0.0,0.0,0.0,0.0,0.0,0.0,0.0,0.0,0.0,0.0,0.0,0.0,0.0,0.0,0.0,0.0,0.0,0.0,0.0,0.0,0.0,0.0,0.0,0.0,0.0,0.0,0.0,0.0,0.0,0.0,0.0,0.0,0.0,0.0,0.0,0.0,0.0,0.0,0.0,0.0,0.0,0.0,0.0,4.0833,4.1789,4.3015,4.4543,4.4755,4.4775,4.4581,4.3769,4.2879,0.0,0.0,0.0,0.0,0.0,0.0,0.0,0.0,0.0,0.0,0.0,0.0,0.0,0.0,0.0,0.0,0.0,0.0,0.0,0.0,0.0,0.0,0.0,0.0,0.0,0.0,0.0,0.0,0.0,0.0,0.0,0.0,0.0,0.0,0.0,0.0,0.0,0.0,0.0,0.0,0.0,4.0415,4.0277,4.11,0.0,0.0,0.0,0.0,4.1687,4.1144,0.0,0.0,0.0,0.0,0.0,0.0,0.0,0.0,0.0,0.0,0.0,0.0,0.0,0.0,0.0,0.0,0.0,0.0,0.0,0.0,0.0,0.0,0.0,0.0,0.0,0.0,0.0,0.0,0.0,0.0,0.0,0.0,0.0,0.0,0.0,0.0,0.0,0.0,0.0,0.0,0.0,0.0,0.0,0.0,0.0,0.0,0.0,0.0,0.0,0.0,0.0,0.0,0.0,0.0,0.0,0.0,4.1768,4.2679,4.3634,4.4581,4.5278,4.5316,4.462,4.375,4.2899,0.0,0.0,0.0,0.0,0.0,0.0,0.0,0.0,0.0,0.0,0.0,0.0,0.0,0.0,0.0,0.0,0.0,0.0,0.0,0.0,0.0,0.0,0.0,0.0,0.0,0.0,0.0,0.0,0.0,0.0,0.0,0.0,0.0,0.0,0.0,0.0,0.0,0.0,0.0,0.0,0.0,4.1219,4.0551,4.1672,4.2582,0.0,0.0,4.2637,4.2563,4.2514,0.0,0.0,0.0,0.0,0.0,0.0,0.0,0.0,0.0,0.0,0.0,0.0,0.0,0.0,0.0,0.0,0.0,0.0,0.0,0.0,0.0,0.0,0.0,0.0,0.0,0.0,0.0,0.0,0.0,0.0,0.0,0.0,0.0,0.0,0.0,0.0,0.0,0.0,0.0,0.0,0.0,0.0,0.0,0.0,0.0,0.0,0.0,0.0,0.0,0.0,0.0,0.0,0.0,0.0,0.0,3.965,4.2565,4.3104,4.3943,4.5239,4.5606,4.5626,4.5297,4.4465,4.3628,0.0,0.0,0.0,0.0,0.0,0.0,0.0,0.0,0.0,0.0,0.0,0.0,0.0,0.0,0.0,0.0,0.0,0.0,0.0,0.0,0.0,0.0,0.0,0.0,0.0,0.0,0.0,0.0,0.0,0.0,0.0,0.0,0.0,0.0,0.0,0.0,0.0,0.0,0.0,0.0,0.0,0.0,4.1837,4.2772,0.0,0.0,0.0,4.3466,4.3441,0.0,0.0,0.0,0.0,0.0,0.0,0.0,0.0,0.0,0.0,0.0,0.0,0.0,0.0,0.0,0.0,0.0,0.0,0.0,0.0,0.0,0.0,0.0,0.0,0.0,0.0,0.0,0.0,0.0,0.0,0.0,0.0,0.0,0.0,0.0,0.0,0.0,0.0,0.0,0.0,0.0,0.0,0.0,0.0,0.0,0.0,0.0,0.0,0.0,0.0,0.0,0.0,0.0,0.0,0.0,0.0,0.0,4.3115,4.3264,4.4098,4.5742,4.58,4.58,4.578,4.5026,0.0,0.0,0.0,0.0,0.0,0.0,0.0,0.0,0.0,0.0,0.0,0.0,0.0,0.0,0.0,0.0,0.0,0.0,0.0,0.0,0.0,0.0,0.0,0.0,0.0,0.0,0.0,3.441,0.0,0.0,0.0,0.0,0.0,0.0,0.0,0.0,0.0,0.0,0.0,0.0,0.0,0.0,4.1986,4.2787,4.3527,4.4005,0.0,0.0,4.4005,4.4005,4.3503,4.3069,0.0,0.0,0.0,0.0,0.0,0.0,0.0,0.0,0.0,0.0,0.0,0.0,0.0,0.0,0.0,0.0,0.0,0.0,0.0,0.0,0.0,0.0,0.0,0.0,0.0,0.0,0.0,0.0,0.0,0.0,0.0,0.0,0.0,0.0,0.0,0.0,0.0,0.0,0.0,0.0,0.0,0.0,0.0,0.0,0.0,0.0,0.0,0.0,0.0,0.0,0.0,0.0,0.0,0.0,4.0596,4.3115,4.3264,4.4117,4.5722,4.58,4.58,4.578,4.5026,4.4214,0.0,0.0,0.0,0.0,0.0,0.0,0.0,0.0,0.0,0.0,0.0,0.0,0.0,0.0,0.0,0.0,0.0,0.0,0.0,0.0,0.0,0.0,0.0,0.0,0.0,0.0,0.0,0.0,0.0,0.0,0.0,0.0,0.0,0.0,0.0,0.0,0.0,0.0,0.0,0.0,0.0,4.2062,4.2805,4.3534,4.4005,0.0,4.4005,4.4005,4.4005,4.3968,4.3683,4.3018,0.0,0.0,0.0,0.0,0.0,0.0,0.0,0.0,0.0,0.0,0.0,0.0,0.0,0.0,0.0,0.0,0.0,0.0,0.0,0.0,0.0,0.0,0.0,0.0,0.0,0.0,0.0,0.0,0.0,0.0,0.0,0.0,0.0,0.0,0.0,0.0,0.0,0.0,0.0,0.0,0.0,0.0,0.0,0.0,0.0,0.0,0.0,0.0,0.0,0.0,0.0,0.0,0.0,4.1222,4.3153,4.3786,4.4659,4.5742,4.58,4.58,4.58,4.549,4.4962,0.0,0.0,0.0,0.0,0.0,0.0,0.0,0.0,0.0,0.0,0.0,0.0,0.0,0.0,0.0,0.0,0.0,0.0,0.0,0.0,0.0,0.0,0.0,0.0,0.0,0.0,0.0,0.0,3.8927,3.9183,3.9701,0.0,0.0,0.0,0.0,0.0,0.0,0.0,0.0,0.0,0.0,4.2837,4.3629,4.3911,0.0,0.0,4.4005,4.4005,4.4005,4.4005,4.3924,4.3755,4.3312,0.0,0.0,0.0,0.0,0.0,0.0,0.0,0.0,0.0,0.0,0.0,0.0,0.0,0.0,0.0,0.0,0.0,0.0,0.0,0.0,0.0,0.0,0.0,0.0,0.0,0.0,0.0,0.0,0.0,0.0,0.0,0.0,0.0,0.0,0.0,0.0,0.0,0.0,0.0,0.0,0.0,0.0,0.0,0.0,0.0,0.0,0.0,0.0,0.0,0.0,0.0,0.0,4.1828,4.3188,4.4114,4.4987,4.578,4.58,4.58,4.58,4.58,4.5427,0.0,0.0,0.0,0.0,0.0,0.0,0.0,0.0,0.0,0.0,0.0,0.0,0.0,0.0,0.0,0.0,0.0,0.0,0.0,0.0,0.0,0.0,0.0,0.0,0.0,0.0,0.0,0.0,4.0349,4.0274,4.0727,0.0,0.0,0.0,0.0,0.0,0.0,0.0,0.0,0.0,0.0,4.3285,4.4143,4.4116,4.4005,4.4005,4.4005,4.4005,4.4005,4.4005,4.4036,4.4135,0.0,0.0,0.0,0.0,0.0,0.0,0.0,0.0,0.0,0.0,0.0,0.0,0.0,0.0,0.0,0.0,0.0,0.0,0.0,0.0,0.0,0.0,0.0,0.0,0.0,0.0,0.0,3.5813,0.0,0.0,3.4549,0.0,0.0,0.0,0.0,0.0,0.0,0.0,0.0,0.0,0.0,0.0,0.0,0.0,0.0,0.0,0.0,0.0,0.0,0.0,0.0,0.0,0.0,4.2389,4.3207,4.4148,4.5007,4.5761,4.58,4.58,4.58,4.58,4.5432,4.462,0.0,0.0,0.0,0.0,0.0,0.0,0.0,0.0,0.0,0.0,0.0,0.0,0.0,0.0,0.0,0.0,0.0,0.0,0.0,0.0,0.0,0.0,0.0,0.0,0.0,0.0,4.0579,4.1241,4.1509,0.0,0.0,0.0,0.0,0.0,0.0,0.0,0.0,0.0,0.0,4.3062,4.3303,4.4102,4.4085,4.4005,4.4023,4.4023,4.4023,4.4061,4.4061,4.4005,0.0,0.0,0.0,0.0,0.0,0.0,0.0,0.0,0.0,0.0,0.0,0.0,0.0,0.0,0.0,0.0,0.0,0.0,0.0,0.0,0.0,0.0,0.0,0.0,0.0,0.0,0.0,3.7568,3.7529,0.0,0.0,0.0,0.0,0.0,0.0,0.0,0.0,0.0,0.0,0.0,4.2106,4.1834,0.0,0.0,0.0,0.0,0.0,0.0,0.0,0.0,0.0,0.0,0.0,0.0,4.3266,4.4061,4.4954,4.5529,4.58,4.58,4.58,4.58,4.58,4.5432,4.462,0.0,0.0,0.0,0.0,0.0,0.0,0.0,0.0,0.0,0.0,0.0,0.0,0.0,0.0,0.0,0.0,0.0,0.0,0.0,0.0,0.0,0.0,0.0,0.0,0.0,4.0454,0.0,0.0,0.0,0.0,0.0,0.0,0.0,0.0,0.0,0.0,0.0,4.2806,4.3156,4.3596,4.3938,4.4195,4.4085,4.4209,0.0,0.0,0.0,0.0,0.0,0.0,0.0,0.0,0.0,0.0,0.0,0.0,0.0,0.0,4.237,4.1266,4.0809,4.0715,4.1023,0.0,0.0,0.0,0.0,0.0,0.0,0.0,0.0,0.0,0.0,0.0,0.0,0.0,0.0,4.0141,0.0,3.981,0.0,0.0,0.0,0.0,0.0,0.0,0.0,0.0,4.3257,4.3548,4.3807,4.3516,4.3373,0.0,4.3373,4.2249,0.0,0.0,0.0,0.0,0.0,0.0,0.0,0.0,4.4014,4.4554,4.538,4.5955,4.6245,4.6264,4.6399,4.6689,4.6419,4.5858,4.5045,4.4755,4.3827,0.0,0.0,0.0,0.0,0.0,0.0,0.0,0.0,0.0,0.0,0.0,0.0,0.0,0.0,0.0,0.0,0.0,0.0,0.0,0.0,0.0,0.0,0.0,4.1399,0.0,0.0,0.0,0.0,0.0,0.0,0.0,0.0,0.0,4.2629,4.3146,4.354,4.3661,4.4064,4.4314,4.4244,0.0,0.0,0.0,0.0,0.0,0.0,0.0,4.6513,4.6513,4.6527,4.6387,4.5884,4.5376,4.5053,4.5084,0.0,0.0,4.2922,4.2417,4.2305,4.2623,4.2408,4.2267,4.2576,4.2603,4.2555,0.0,0.0,0.0,0.0,0.0,0.0,0.0,0.0,4.2966,4.3296,0.0,4.2416,0.0,0.0,0.0,0.0,4.2202,4.3024,0.0,0.0,4.3865,4.3884,4.4557,4.3802,4.3427,4.347,4.3465,4.3428,4.3432,4.3434,0.0,0.0,0.0,0.0,0.0,0.0,4.462,4.4678,4.5452,4.6245,4.7042,4.7115,4.754,4.8299,4.7579,4.6728,4.5877,4.5123,4.4678,4.4581,4.2995,0.0,0.0,0.0,0.0,0.0,0.0,0.0,0.0,0.0,0.0,0.0,0.0,0.0,0.0,0.0,0.0,0.0,0.0,0.0,0.0,4.2072,0.0,0.0,0.0,0.0,0.0,0.0,0.0,0.0,0.0,0.0,4.3642,4.3611,4.3799,4.4493,0.0,0.0,0.0,0.0,4.5382,4.543,4.603,4.655,4.6605,4.6605,4.6605,4.6605,0.0,0.0,4.6531,4.6513,4.6438,4.6475,4.5825,4.5127,4.4479,4.3602,4.3285,4.4042,4.3487,4.3241,4.3942,4.3918,4.3875,4.4381,0.0,0.0,0.0,0.0,4.2951,4.3013,4.3059,4.3315,4.3393,4.3393,4.3141,0.0,0.0,0.0,0.0,0.0,0.0,4.4692,4.5427,4.5228,4.5228,4.5427,4.5195,4.5111,4.5111,4.5092,4.5098,4.5123,4.5117,4.4518,4.3412,0.0,0.0,0.0,0.0,4.4879,4.5471,4.6283,4.6844,4.7096,4.7715,4.814,4.8392,4.8159,4.7599,4.6748,4.6515,4.5838,4.4659,4.4117,0.0,0.0,0.0,0.0,0.0,0.0,0.0,0.0,0.0,0.0,0.0,0.0,0.0,0.0,0.0,0.0,0.0,0.0,0.0,4.2305,4.3295,4.3994,0.0,0.0,0.0,0.0,0.0,0.0,0.0,0.0,0.0,4.4502,4.453,4.4525,0.0,0.0,4.4702,4.5169,4.538,4.5898,4.7042,4.7332,0.0,4.8267,4.8274,4.8221,4.8221,4.7738,4.7367,4.7348,4.6884,4.6513,4.6513,4.6308,4.6099,4.5853,4.4681,4.3881,4.4011,4.3862,4.3757,4.398,4.4055,4.4023,4.5328,4.4393,4.4362,4.4374,4.4385,4.4369,4.4363,4.437,4.4344,4.4356,4.4344,4.4344,4.4344,4.4344,4.4363,0.0,0.0,0.0,4.5344,4.58,4.58,4.58,4.58,4.5847,4.5847,4.5827,4.5841,4.5835,4.5835,4.5847,4.5344,4.4427,0.0,0.0,4.5053,4.5421,4.5827,4.6322,4.7173,4.7773,4.814,4.8952,4.9243,4.8933,4.8914,4.8508,4.7657,4.7599,4.6999,4.5664,4.5587,4.4813,0.0,0.0,0.0,0.0,0.0,0.0,0.0,0.0,0.0,0.0,0.0,3.8607,3.9853,0.0,0.0,0.0,4.278,4.3281,4.3521,4.4015,0.0,0.0,0.0,0.0,0.0,0.0,0.0,4.39,4.4102,4.4369,4.4934,4.4991,4.4943,4.4745,4.4968,4.5283,4.5584,0.0,4.6937,4.7866,4.8194,4.852,4.9008,4.9015,4.8962,4.8909,4.85,4.8184,4.8166,4.7757,4.7478,4.7423,4.72,4.6977,4.6977,4.5881,4.4989,4.4989,4.4989,4.4989,4.4989,4.4989,4.4989,4.5956,4.5893,4.5827,4.5827,4.5887,4.5827,4.58,4.58,4.58,4.58,4.58,4.58,4.58,4.58,4.58,0.0,4.58,4.58,4.58,4.58,4.5814,4.5814,4.5814,4.586,4.5906,4.5899,4.5905,4.5898,4.591,4.597,4.6002,4.6009,4.6002,4.5974,4.5955,4.6767,4.7192,4.7212,4.8063,4.8914,4.9784,5.0519,5.0558,4.9823,4.9784,4.9397,4.8566,4.8508,4.8101,4.727,4.7212,4.6457,4.491,0.0,0.0,0.0,0.0,0.0,0.0,0.0,0.0,0.0,0.0,0.0,0.0,0.0,0.0,0.0,4.4278,0.0,4.4411,4.4344,0.0,0.0,0.0,4.4344,4.4383,4.4524,4.4605,4.4685,0.0,0.0,4.4991,4.5125,4.5144,4.5033,4.5571,4.5968,4.5848,4.7172,4.8183,4.8191,4.8725,4.9179,4.915,4.9101,4.9049,4.8909,4.889,4.8853,4.8853,4.8834,4.8872,4.8797,4.8296,4.7794,4.7794,4.7163,4.668,4.6698,4.6531,4.6457,4.6382,4.6364,4.6345,4.5912,4.5893,4.5827,4.5814,4.5827,4.5814,4.58,4.58,4.58,4.58,4.58,4.58,4.58,4.58,4.58,4.58,4.58,4.58,4.58,4.5814,4.5847,4.5874,4.5874,4.5899,4.5905,4.5898,4.5898,4.5898,4.5929,4.6577,4.6888,4.6919,4.7536,4.7502,4.6844,4.7657,4.8082,4.8082,4.8933,4.9803,5.0577,5.0809,5.0828,5.0635,5.0616,5.0229,4.9436,4.9397,4.8991,4.814,4.8082,4.7618,4.6573,4.5877,0.0,0.0,0.0,0.0,0.0,0.0,0.0,0.0,0.0,4.1952,4.331,0.0,4.3821,0.0,4.4606,4.4551,4.4411,4.4383,0.0,0.0,4.4344,4.4383,4.4411,4.4468,4.4551,4.4685,4.477,4.4889,4.4967,4.508,4.535,4.5884,4.6063,4.6348,4.686,4.7664,4.851,4.907,4.924,4.9276,4.9262,4.915,4.9049,4.8909,4.889,4.889,4.889,4.889,4.889,4.889,4.876,4.8612,4.8593,4.8444,4.8333,4.824,4.7367,4.6513,4.6513,4.6531,4.6531,4.5912,4.5893,4.5847,4.58,4.58,4.58,4.58,4.58,4.58,4.58,4.58,4.58,4.58,4.58,4.58,4.58,4.58,4.5847,4.5827,4.5841,4.5867,4.5899,4.5899,4.5937,4.5941,4.5941,4.6372,4.6557,4.6566,4.7412,4.7835,4.7844,4.8676,4.8822,4.8333,4.8754,4.8972,4.8991,4.9803,5.0461,5.0887,5.0906,5.0906,5.0906,5.0906,5.0693,5.0268,5.0248,4.9842,4.903,4.8972,4.8585,4.7734,4.7231,4.6593,0.0,0.0,0.0,0.0,0.0,0.0,0.0,0.0,0.0,0.0,0.0,4.4501,4.4833,4.4745,4.4632,4.4496,4.4487,4.443,4.4373,4.4354,4.4411,4.4411,4.4468,4.4578,4.4667,4.477,4.487,4.501,4.5403,4.5868,4.6311,4.7001,4.7536,4.7867,4.8513,4.9135,4.9529,4.9514,4.939,4.9276,4.9183,4.9068,4.8943,4.889,4.889,4.889,4.889,4.889,4.889,4.889,4.889,4.889,4.889,4.889,4.8779,4.8203,4.7646,4.7571,4.7553,4.7571,4.5893,4.5893,4.5847,4.5814,4.58,4.58,4.58,4.58,4.58,4.58,4.58,4.58,4.5814,4.5814,4.5814,4.5814,4.5814,4.5874,4.5887,4.5899,4.6021,4.6072,4.6084,4.6263,4.6344,4.6383,4.7193,4.7553,4.7503,4.8369,4.8766,4.8798,4.9576,4.9976,4.9957,4.9906,4.9877,4.9881,5.0558,5.0906,5.0906,5.0906,5.0906,5.0906,5.0906,5.0906,5.0906,5.0906,5.0577,4.9919,4.9861,4.9475,4.8624,4.8585,4.8179,0.0,4.725,0.0,0.0,0.0,0.0,0.0,0.0,0.0,0.0,4.4815,4.501,4.4821,4.4796,4.4738,4.4632,4.457,4.4515,4.444,4.4411,4.4411,4.4411,4.4524,4.4624,4.4685,4.4796,4.4933,4.5176,4.5959,4.6485,4.6853,4.7986,4.8814,4.8894,4.9362,4.9741,4.9634,4.9604,4.9483,4.9262,4.915,4.9068,4.8943,4.889,4.889,4.889,4.889,4.889,4.889,4.889,4.889,4.889,4.889,4.889,4.889,4.8816,4.876,4.8779,4.876,4.889,4.5937,4.5893,4.5893,4.5847,4.58,4.58,4.58,4.58,4.58,4.58,4.58,4.58,4.5847,4.5874,4.5874,4.5874,4.5887,4.5912,4.5905,4.5917,4.6698,4.7051,4.7093,4.7756,4.8137,4.8195,4.836,4.8448,4.8438,4.9312,4.9709,4.9681,5.0452,5.0855,5.0849,0.0,0.0,0.0,5.0828,5.0906,5.0906,5.0906,5.0906,5.0906,5.0906,0.0,5.0906,5.0906,5.0848,5.0693,5.0674,0.0,0.0,0.0,0.0,0.0,0.0,0.0,0.0,0.0,0.0,0.0,4.6482,4.6051,4.5247,4.5077,4.4967,4.487,4.4789,4.4712,4.4667,4.4667,4.4613,4.4578,4.4551,4.4551,4.4468,4.4515,4.4551,4.4685,4.4738,4.5054,4.5862,4.6254,4.693,4.808,4.8724,4.9224,4.9733,4.9838,4.9824,4.9778,4.9682,4.9514,4.9244,4.9197,4.9079,4.8943,4.889,4.889,4.889,4.889,4.889,4.889,4.889,4.889,4.889,4.889,4.889,4.889,4.889,4.889,4.889,4.889,4.889,4.5991,4.5944,4.5893,4.5874,0.0,4.5841,4.6106,4.6455,4.5988,4.6065,4.6505,4.6958,4.7146,4.7178,4.7178,4.7172,4.7178,4.7222,4.7218,4.725,4.7747,4.799,4.7991,4.8438,4.8671,4.8719,4.9153,4.9336,4.9378,5.0217,5.0636,5.0607,5.1006,5.1201,5.1189,5.1132,5.1042,5.0956,5.0956,5.0921,5.0906,5.0906,5.0906,5.0906,5.0906,0.0,0.0,0.0,0.0,0.0,0.0,0.0,0.0,5.0306,0.0,4.9687,4.9629,4.9475,4.9088,4.9015,4.8616,4.777,4.7559,4.6877,4.5456,4.5216,4.5103,4.501,4.4895,4.484,4.4796,4.4789,4.4719,4.4659,4.4659,4.4632,4.4605,4.4624,4.4802,4.5285,4.5387,4.576,4.6676,4.7333,4.7895,4.8751,4.9325,4.9754,5.0043,5.0038,4.9925,4.9778,4.9663,4.9514,4.9308,4.923,4.9146,4.903,4.8962,4.8909,4.889,4.889,4.889,4.889,4.889,4.889,4.889,4.889,4.889,4.889,4.889,4.889,4.889,4.889,4.889,4.6016,4.5983,4.5941,4.5912,4.5905,4.6067,4.6622,4.7385,4.6629,0.0,0.0,4.818,4.8496,4.8528,4.8528,4.8521,4.8534,4.8599,4.8613,4.8632,4.8827,4.8933,4.8933,4.9095,4.9161,4.9227,4.99,5.0238,5.0283,5.0977,5.1328,5.1308,5.1296,5.1308,5.1306,5.118,5.1101,5.1029,5.1034,5.1005,5.0921,5.0906,5.0906,5.0906,5.0906,5.0906,5.0906,5.0906,5.0906,5.0906,5.0906,5.0906,5.0906,5.0906,5.0906,5.0906,5.0906,5.0616,4.9977,4.99,4.9517,4.8581,4.8289,4.7472,4.5896,4.5778,4.5638,4.5376,4.5308,4.5181,4.4962,4.4889,4.484,4.4745,4.4745,4.4775,4.4926,4.4964,4.5349,4.6145,4.6341,4.6689,4.758,4.8346,4.899,4.92,4.9792,5.0278,5.0207,5.0063,4.9925,4.9788,4.9692,4.9544,4.9371,4.9276,4.9197,4.9083,4.8996,4.8962,4.8909,4.889,4.889,4.889,4.889,4.889,4.889,4.889,4.889,4.889,4.889,4.889,4.889,4.889,4.889,4.6056,4.5997,4.5986,4.5953,4.597,4.67,4.7514,4.829,4.8173,4.8193,4.8328,4.8445,4.8521,4.8588,4.8588,4.8608,4.8677,4.8672,4.8671,4.8725,4.9456,4.9815,4.987,5.0575,5.0959,5.1011,5.1154,5.1193,5.1213,5.133,5.1388,5.1369,5.1313,5.1297,5.1295,5.1278,5.121,5.1081,5.1081,5.1058,5.0971,5.0999,5.0964,5.0906,5.0906,5.0906,5.0906,5.0906,5.0906,5.0906,5.0906,5.0906,5.0906,5.0906,5.0906,5.0906,5.0906,5.0832,5.0751,5.0732,5.0349,4.9489,4.8701,4.8094,4.7741,4.7545,4.7131,4.6383,4.6256,4.586,4.5194,4.5114,4.5128,4.5043,4.4933,4.5174,4.5874,4.5937,4.6284,4.7188,4.7308,4.7631,4.8498,4.89,4.931,4.9844,5.0164,5.0278,5.0231,5.0108,4.9978,4.9898,4.9759,4.9615,4.9415,4.9321,4.9244,4.9135,4.9101,4.9015,4.8943,4.8909,4.889,4.889,4.889,4.889,4.889,4.889,4.889,4.889,4.889,4.889,4.889,4.889,4.889,4.6091,4.6046,4.6047,4.6319,4.6812,4.8144,4.8952,4.9349,4.9776,4.9695,4.9322,4.9742,4.999,5.0003,5.0003,5.0061,5.0111,5.0101,5.0124,5.0134,5.0543,5.0757,5.0791,5.1154,5.1361,5.1386,5.1396,5.1396,5.1396,5.1396,5.1396,5.1396,5.1362,5.1347,5.1342,5.132,5.1267,5.1211,5.1132,5.1075,5.1053,5.1033,5.0983,5.0975,5.0941,5.0906,5.0906,5.0906,5.0906,5.0906,5.0906,5.0906,5.0906,5.0906,5.0906,5.0906,5.0906,5.0906,5.0906,5.0906,5.0735,5.0333,4.995,4.9685,4.9618,4.8587,4.7778,4.7371,4.7248,4.7029,4.6606,4.6546,4.65,4.6411,4.6388,4.6535,4.6858,4.6947,4.727,4.808,4.8256,4.8599,4.9461,4.9654,4.9797,5.0221,5.0348,5.0371,5.0325,5.0212,5.0089,4.9952,4.9843,4.9731,4.9555,4.9415,4.9321,4.923,4.915,4.9083,4.9015,4.8962,4.8909,4.889,4.889,4.889,4.889,4.889,4.889,4.889,4.889,4.889,4.889,4.889,4.889,4.6183,4.6123,4.6333,4.7017,4.8108,4.943,5.0111,5.0344,5.0948,5.0831,5.0363,5.0938,5.1201,5.123,5.123,5.1239,5.1326,5.132,5.131,5.1336,5.138,5.14,5.14,5.1396,5.1401,5.1396,5.139,5.1394,5.1394,5.1394,5.1394,5.1394,5.1386,5.1396,5.14,5.1356,5.1316,5.1281,5.1211,5.1125,5.1089,5.1039,5.1024,5.1005,5.0956,5.0906,5.0906,5.0906,5.0906,5.0906,5.0906,5.0906,5.0906,5.0906,5.0906,5.0906,5.0906,5.0906,5.0906,5.0906,5.0906,5.0906,5.0913,5.0897,5.0784,4.9599,4.8586,4.8356,4.8257,4.8118,4.7826,4.7764,4.7758,4.7713,4.769,4.7709,4.7918,4.7938,4.83,4.9082,4.9272,4.952,5.0035,5.0278,5.0348,5.0352,5.0457,5.0478,5.0416,5.0371,5.0236,5.0063,4.9952,4.9843,4.9673,4.9525,4.9415,4.934,4.9211,4.915,4.9083,4.8996,4.8909,4.8909,4.889,4.889,4.889,4.889,4.889,4.889,4.889,4.889,4.889,4.889,4.889,4.6201,4.6333,4.7021,4.8296,4.9663,4.9945,5.046,5.1111,5.1267,5.1245,5.1133,5.1245,5.1295,5.1292,5.1296,5.1323,5.1388,5.1382,5.1394,5.1366,5.1396,5.1396,5.1396,5.1386,5.1394,5.139,5.1394,5.1394,5.1394,5.1394,5.1394,5.1394,5.1394,5.1386,5.1396,5.1391,5.1361,5.131,5.13,5.1201,5.1105,5.1093,5.1043,5.0986,5.0986,5.0956,5.0925,5.0906,5.0906,5.0906,5.0906,5.0906,5.0906,5.0906,5.0906,5.0906,5.0906,5.0906,5.0906,5.0906,5.0906,5.0906,5.0909,5.0893,5.0916,5.0728,5.0233,4.9509,4.9221,4.8854,4.8103,4.8064,4.812,4.8158,4.8058,4.8154,4.8867,4.8999,4.9302,5.0227,5.0224,5.0383,5.0418,5.0459,5.0478,5.0481,5.0521,5.0521,5.05,5.0478,5.0416,5.0255,5.0063,4.9925,4.9843,4.9721,4.9574,4.9434,4.9321,4.9244,4.915,4.9083,4.9068,4.9166,4.9002,4.902,4.8983,4.889,4.8946,4.8909,4.889,4.889,4.889,4.889,4.889,4.6542,4.6982,4.7345,4.8503,5.001,5.0594,5.103,5.1342,5.1362,5.1356,5.1343,5.1362,5.1362,5.1375,5.1362,5.1388,5.1394,5.1386,5.1396,5.1386,5.1386,5.1386,5.139,5.139,5.1394,5.1394,5.1394,5.1394,5.1394,5.1394,5.1394,5.1394,5.1394,5.139,5.139,5.1401,5.1391,5.1361,5.133,5.1277,5.121,5.1139,5.1081,5.1063,5.1062,5.102,5.0971,5.0956,5.0921,5.0906,5.0906,5.0906,5.0906,5.0906,5.0906,5.0906,5.0906,5.0906,5.0906,5.0906,5.0906,5.0906,5.0906,5.0909,5.0893,5.0913,5.0687,5.0387,5.0182,4.9952,4.9547,4.9528,4.9525,4.9465,4.9444,4.9578,4.9906,4.9944,5.0114,5.0462,5.05,5.05,5.0521,5.0544,5.0566,5.0606,5.0606,5.0605,5.0566,5.0563,5.0521,5.0416,5.0255,5.0082,4.9952,4.9843,4.9702,4.9574,4.9434,4.9308,4.9262,4.9164,4.9262,4.9626,4.9684,4.9668,4.967,4.9596,4.9559,4.9243,4.8909,4.889,4.889,4.889,4.889,4.6768,4.7545,4.8021,4.9079,5.0497,5.1121,5.1394,5.1394,5.1394,5.14,5.1386,5.1396,5.1396,5.1386,5.1386,5.1391,5.1396,5.1401,5.1386,5.1394,5.1394,5.1394,5.1394,5.1402,5.1402,5.1402,5.1398,5.1398,5.1389,5.1389,5.1389,5.1382,5.1398,5.1394,5.1394,5.1386,5.1401,5.1401,5.1357,5.1341,5.1323,5.1201,5.1139,5.1105,5.1095,5.1062,5.102,5.1,5.0971,5.0921,5.0906,5.0906,5.0906,5.0906,5.0906,5.0906,5.0906,5.0906,5.0906,5.0906,5.0906,5.0906,5.0906,5.0906,5.0906,5.0906,5.0909,5.0877,5.0829,5.07,5.0663,5.0664,5.0644,5.0585,5.0604,5.0585,5.0566,5.0585,5.0566,5.0604,5.0624,5.0604,5.0585,5.0625,5.0682,5.072,5.072,5.0739,5.0663,5.0644,5.0604,5.0544,5.0438,5.0302,5.0038,4.9925,4.9843,4.9721,4.9585,4.9415,4.9427,4.9407,4.9571,5.0082,5.0403,5.0575,5.054,5.0468,5.0209,4.9503,4.9094,4.8964,4.889,4.889,4.889,4.6807,4.7826,4.9325,5.0445,5.1336,5.138,5.1394,5.14,5.14,5.1391,5.139,5.1394,5.1394,5.1394,5.1394,5.1394,5.1394,5.1394,5.1394,5.1394,5.1394,5.1394,5.1394,5.1391,5.1396,5.1396,5.1385,5.1394,5.1386,5.1387,5.1386,5.1398,5.1385,5.1394,5.1394,5.1394,5.1394,5.139,5.1386,5.1396,5.1391,5.1323,5.123,5.1128,5.1093,5.1108,5.1081,5.1039,5.1005,5.1005,5.0941,5.0906,5.0906,5.0906,5.0906,5.0906,5.0906,5.0906,5.0906,5.0906,5.0906,5.0906,5.0906,5.0906,5.0906,5.0906,5.089,5.089,5.0877,5.0846,5.0793,5.0775,5.0794,5.0794,5.0775,5.0775,5.0775,5.0757,5.0812,5.0794,5.0776,5.0776,5.0794,5.0793,5.0793,5.0793,5.0793,5.0793,5.0775,5.072,5.0664,5.0606,5.0545,5.05,5.0302,5.0114,4.9978,4.9843,4.9702,4.9612,4.9734,4.9902,5.023,5.065,5.1162,5.1428,5.143,5.1191,5.0802,5.0172,4.941,4.915,4.8946,4.8909,4.889,4.7924,4.9305,5.0457,5.1115,5.1382,5.1382,5.1402,5.1402,5.1402,5.1385,5.1391,5.1391,5.1391,5.1391,5.14,5.1398,5.1391,5.1391,5.1391,5.1391,5.1391,5.1385,5.1394,5.1402,5.1396,5.1385,5.1384,5.1385,5.1387,5.1387,5.1386,5.1386,5.1384,5.14,5.1391,5.1402,5.1394,5.1394,5.139,5.1386,5.1401,5.138,5.1303,5.1239,5.12,5.1156,5.1088,5.1082,5.1042,5.0986,5.0971,5.0956,5.0906,5.0906,5.0906,5.0906,5.0906,5.0906,5.0906,5.0906,5.0906,5.0906,5.0906,5.0906,5.0906,5.0906,5.0906,5.089,5.0909,5.0893,5.0858,5.0808,5.0812,5.0812,5.0829,5.081,5.0812,5.0812,5.0812,5.0812,5.0812,5.0812,5.081,5.0827,5.0863,5.0883,5.0883,5.0863,5.0846,5.0793,5.0757,5.0682,5.0625,5.0585,5.0521,5.0302,5.0114,4.9933,4.9853,5.009,5.0285,5.0485,5.0748,5.1809,5.2289,5.2373,5.2375,5.1765,5.134,5.0653,4.9875,4.9522,4.8983,4.9094,4.902,4.8828,5.0136,5.1053,5.1386,5.1386,5.1386,5.1386,5.1386,5.1386,5.1386,5.1386,5.1386,5.1386,5.1386,5.1386,5.1386,5.1387,5.1386,5.1386,5.1386,5.1386,5.1384,5.1398,5.1398,5.1402,5.1387,5.1387,5.1387,5.1387,5.1387,5.1387,5.1387,5.1387,5.1386,5.1402,5.1396,5.1389,5.1398,5.1394,5.139,5.1386,5.1401,5.1523,5.17,5.1676,5.1618,5.1544,5.1268,5.1237,5.1377,5.1175,5.0971,5.0906,5.0906,5.0906,5.0906,5.0906,5.0906,5.0906,5.0906,5.0906,5.0906,5.0906,5.0906,5.0906,5.0906,5.0906,5.0906,5.0906,5.0906,5.089,5.0858,5.0844,5.0844,5.0844,5.0825,5.0844,5.0844,5.0844,5.0844,5.0844,5.0844,5.0844,5.0861,5.0897,5.0897,5.0897,5.0897,5.0897,5.0863,5.0829,5.0775,5.0682,5.0645,5.0585,5.044,5.0302,5.0139,5.0092,5.0382,5.0865,5.1099,5.1706,5.2798,5.3301,5.3315,5.3024,5.2395,5.1765,5.108,5.0691,5.0339,4.9856,4.9373,4.9336,4.9387,5.0227,5.1047,5.1398,5.14,5.14,5.1398,5.14,5.1398,5.14,5.14,5.1398,5.14,5.1398,5.1398,5.1394,5.1389,5.1396,5.14,5.14,5.14,5.14,5.14,5.1402,5.1385,5.1386,5.1387,5.1387,5.1387,5.1387,5.1387,5.1387,5.1387,5.1387,5.1387,5.1387,5.1402,5.1385,5.1398,5.1414,5.1414,5.1523,5.1923,5.2601,5.2636,5.2611,5.255,5.1738,5.1683,5.2221,5.1629,5.1029,5.1057,5.1022,5.0945,5.0925,5.0906,5.0906,5.0906,5.0906,5.0906,5.0906,5.0906,5.0906,5.0906,5.0906,5.0906,5.0906,5.0906,5.0906,5.0906,5.089,5.089,5.0906,5.089,5.089,5.089,5.0909,5.089,5.089,5.089,5.089,5.089,5.089,5.0909,5.0909,5.0909,5.0909,5.0909,5.0877,5.0899,5.0883,5.0793,5.072,5.0664,5.0566,5.0459,5.0363,5.0367,5.0537,5.1375,5.1793,5.2556,5.3522,5.3908,5.3943,5.3802,5.3211,5.275,5.2138,5.1693,5.1119,5.0562,5.0098,4.9819,5.0234,5.0992,5.1265,5.1382,5.1382,5.1382,5.1382,5.1382,5.1385,5.1385,5.1382,5.1385,5.1385,5.1382,5.1382,5.1402,5.1394,5.1402,5.1382,5.1385,5.1385,5.1385,5.1385,5.1385,5.1391,5.1402,5.1386,5.1387,5.1387,5.1387,5.1387,5.1387,5.1387,5.1387,5.1387,5.1387,5.1386,5.1384,5.1389,5.1668,5.2214,5.2288,5.2694,5.3484,5.3571,5.3793,5.4246,5.3466,5.311,5.3288,5.3016,5.2574,5.2012,5.1811,5.1505,5.0983,5.0906,5.0906,5.0906,5.0906,5.0906,5.0906,5.0906,5.0906,5.0906,5.0906,5.0906,5.0906,5.0906,5.0906,5.0906,5.0906,5.0906,5.0906,5.0906,5.0906,5.0906,5.0906,5.0906,5.0906,5.0906,5.0906,5.0906,5.0906,5.0906,5.0906,5.0906,5.0906,5.089,5.0909,5.0913,5.0899,5.0846,5.0793,5.072,5.0702,5.0662,5.0768,5.086,5.1078,5.1858,5.2634,5.3395,5.3948,5.4339,5.4401,5.4281,5.3955,5.3473,5.2975,5.2418,5.1824,5.1193,5.0859,5.0655,5.0614,5.1375,5.1394,5.1394,5.1394,5.1394,5.1394,5.1394,5.1394,5.1394,5.1394,5.1394,5.1394,5.1394,5.1394,5.1394,5.1394,5.1394,5.1394,5.1394,5.1394,5.1394,5.1394,5.1394,5.1398,5.1391,5.1398,5.1384,5.1386,5.1387,5.1387,5.1387,5.1387,5.1387,5.1387,5.1387,5.1387,5.1426,5.1713,5.215,5.2647,5.3014,5.36,5.4352,5.4465,5.4878,5.5541,5.5073,5.4585,5.4179,5.3883,5.3363,5.2821,5.2407,5.1931,5.1486,5.1099,5.0906,5.0906,5.0906,5.0906,5.0906,5.0906,5.0906,5.0906,5.0906,5.0906,5.0906,5.0906,5.0906,5.0906,5.0906,5.0906,5.0906,5.0906,5.0906,5.0906,5.0906,5.0906,5.0906,5.0906,5.0906,5.0906,5.0906,5.0906,5.0906,5.0906,5.0906,5.0906,5.0906,5.0893,5.0897,5.088,5.0846,5.0775,5.0797,5.0818,5.1104,5.142,5.1825,5.2436,5.3175,5.3952,5.4343,5.4711,5.4584,5.4434,5.4337,5.3971,5.3547,5.3087,5.2697,5.2178,5.1881,5.1639,5.0672,5.1355,5.1394,5.1394,5.1394,5.1394,5.1394,5.1394,5.1394,5.1394,5.1394,5.1394,5.1394,5.1394,5.1394,5.1394,5.1394,5.1394,5.1394,5.1394,5.1394,5.1394,5.1394,5.1394,5.1394,5.1398,5.1398,5.1385,5.1398,5.1387,5.1387,5.1387,5.1387,5.1387,5.1387,5.1387,5.1465,5.168,5.2266,5.2671,5.2986,5.3659,5.4498,5.5298,5.5348,5.563,5.6205,5.6176,5.5843,5.5097,5.4369,5.3931,5.3557,5.2814,5.2488,5.2279,5.1467,5.1138,5.1003,5.0945,5.0906,5.0906,5.0906,5.0906,5.0906,5.0906,5.0906,5.0906,5.0906,5.0906,5.0906,5.0906,5.0906,5.0906,5.0906,5.0906,5.0906,5.0906,5.0906,5.0906,5.0906,5.0906,5.0906,5.0906,5.0906,5.0906,5.0906,5.0906,5.0906,5.0906,5.0906,5.0909,5.0913,5.088,5.0846,5.1254,5.1297,5.1626,5.2104,5.2807,5.3149,5.3842,5.4352,5.4733,5.4901,5.473,5.4603,5.4524,5.4356,5.4011,5.3699,5.3479,5.32,5.2828,5.2568,5.1199,5.1394,5.1394,5.1394,5.1394,5.1394,5.1394,5.1394,5.1394,5.1394,5.1394,5.1394,5.1394,5.1394,5.1394,5.1394,5.1394,5.1394,5.1394,5.1394,5.1394,5.1394,5.1394,5.1394,5.1394,5.1394,5.1394,5.1398,5.1402,5.1389,5.1398,5.1387,5.1387,5.1387,5.1387,5.1426,5.1777,5.2285,5.2539,5.3398,5.443,5.4766,5.5376,5.6157,5.6211,5.6304,5.6484,5.6437,5.632,5.6003,5.5767,5.5228,5.4609,5.4196,5.3723,5.3127,5.2356,5.1834,5.1718,5.1273,5.0964,5.0906,5.0906,5.0906,5.0906,5.0906,5.0906,5.0906,5.0906,5.0906,5.0906,5.0906,5.0906,5.0906,5.0906,5.0906,5.0906,5.0906,5.0906,5.0906,5.0906,5.0906,5.0906,5.0906,5.0906,5.0906,5.0906,5.0906,5.0906,5.0906,5.0906,5.0906,5.0909,5.0913,5.1035,5.1518,5.187,5.2181,5.2878,5.3954,5.423,5.4566,5.4931,5.5203,5.5028,5.4882,5.4761,5.4635,5.4472,5.4321,5.4088,5.3831,5.3777,5.3535,5.3442,5.1394,5.1394,5.1394,5.1394,5.1394,5.1394,5.1394,5.1394,5.1394,5.1394,5.1394,5.1394,5.1394,5.1394,5.1394,5.1394,5.1394,5.1394,5.1394,5.1394,5.1394,5.1394,5.1394,5.1394,5.1394,5.1394,5.1394,5.1394,5.1394,5.1394,5.1389,5.1387,5.1386,5.1387,5.1445,5.1816,5.2168,5.2754,5.3359,5.4355,5.5215,5.567,5.6044,5.6528,5.6606,5.6563,5.6503,5.6471,5.6425,5.6358,5.629,5.6032,5.5491,5.5006,5.4587,5.4014,5.3224,5.2608,5.2182,5.1699,5.1293,5.1003,5.0906,5.0906,5.0906,5.0906,5.0906,5.0906,5.0906,5.0906,5.0906,5.0906,5.0906,5.0906,5.0906,5.0906,5.0906,5.0906,5.0906,5.0906,5.0906,5.0906,5.0906,5.0906,5.0906,5.0906,5.0906,5.0906,5.0906,5.0906,5.0906,5.0906,5.1061,5.1141,5.1454,5.1957,5.285,5.3182,5.3783,5.4863,5.4991,5.5182,5.5216,5.5307,5.5149,5.5028,5.4912,5.4761,5.4603,5.4439,5.4303,5.4163,5.4073,5.3963,5.3888,5.1394,5.1394,5.1394,5.1394,5.1394,5.1394,5.1394,5.1394,5.1394,5.1394,5.1394,5.1394,5.1394,5.1394,5.1394,5.1394,5.1394,5.1394,5.1394,5.1394,5.1394,5.1394,5.1394,5.1394,5.1394,5.1394,5.1394,5.1394,5.1394,5.1394,5.1394,5.1385,5.1402,5.1386,5.1562,5.2207,5.2695,5.3164,5.4336,5.5137,5.5605,5.6124,5.6481,5.6567,5.6606,5.6582,5.6528,5.6511,5.6476,5.6417,5.6353,5.6253,5.6077,5.5346,5.5029,5.4785,5.4149,5.3323,5.2627,5.2376,5.1873,5.1293,5.1022,5.0906,5.0906,5.0906,5.0906,5.0906,5.0906,5.0906,5.0906,5.0906,5.0906,5.0906,5.0906,5.0906,5.0906,5.0906,5.0906,5.0906,5.0906,5.0906,5.0906,5.0906,5.0906,5.0906,5.0906,5.0906,5.0906,5.0906,5.0906,5.0906,5.1138,5.1447,5.1892,5.2434,5.3503,5.4375,5.492,5.5577,5.5478,5.5525,5.5451,5.5389,5.5255,5.5149,5.5028,5.4882,5.473,5.459,5.4458,5.4303,5.4163,5.4055,5.3981,5.1394,5.1394,5.1394,5.1394,5.1394,5.1394,5.1394,5.1394,5.1394,5.1394,5.1394,5.1394,5.1394,5.1394,5.1394,5.1394,5.1394,5.1394,5.1394,5.1394,5.1394,5.1394,5.1394,5.1394,5.1394,5.1394,5.1394,5.1394,5.1394,5.1394,5.1394,5.1398,5.1385,5.1418,5.1582,5.2383,5.3086,5.375,5.4805,5.5664,5.6172,5.6426,5.6612,5.6614,5.6606,5.6602,5.6582,5.6528,5.6485,5.648,5.6417,5.6341,5.622,5.5996,5.5816,5.5575,5.5001,5.4407,5.4039,5.3033,5.2144,5.195,5.137,5.0906,5.0906,5.0906,5.0906,5.0906,5.0906,5.0906,5.0906,5.0906,5.0906,5.0906,5.0906,5.0906,5.0906,5.0906,5.0906,5.0906,5.0906,5.0906,5.0906,5.0906,5.0906,5.0906,5.0906,5.0906,5.0906,5.0906,5.1022,5.1099,5.1467,5.1892,5.2763,5.3362,5.4312,5.5049,5.5593,5.5943,5.5866,5.5787,5.564,5.5527,5.5383,5.5281,5.5149,5.5028,5.4882,5.4749,5.459,5.4458,5.4303,5.4198,5.4073,5.1394,5.1394,5.1394,5.1394,5.1394,5.1394,5.1394,5.1394,5.1394,5.1394,5.1394,5.1394,5.1394,5.1394,5.1394,5.1394,5.1394,5.1394,5.1394,5.1394,5.1394,5.1394,5.1394,5.1394,5.1394,5.1394,5.1394,5.1394,5.1394,5.1394,5.1394,5.1394,5.1414,5.1698,5.2084,5.287,5.3789,5.4609,5.5449,5.6172,5.6543,5.6621,5.662,5.661,5.6618,5.6606,5.6602,5.6533,5.6497,5.6471,5.6425,5.6377,5.6309,5.6284,5.6209,5.6052,5.5752,5.5158,5.46,5.4,5.3265,5.2801,5.1989,5.166,5.137,5.1177,5.0906,5.0906,5.0906,5.0906,5.0906,5.0906,5.0906,5.0906,5.0906,5.0906,5.0906,5.0906,5.0906,5.0906,5.0906,5.0906,5.0906,5.0906,5.0906,5.0906,5.0906,5.0906,5.0906,5.0964,5.1312,5.1505,5.1892,5.2511,5.3536,5.4368,5.518,5.5608,5.5803,5.598,5.5943,5.5866,5.5806,5.564,5.5504,5.5408,5.5281,5.5121,5.5,5.4852,5.473,5.4571,5.4472,5.4337,5.4252,5.1394,5.1394,5.1394,5.1394,5.1394,5.1394,5.1394,5.1394,5.1394,5.1394,5.1394,5.1394,5.1394,5.1394,5.1394,5.1394,5.1394,5.1394,5.1394,5.1394,5.1394,5.1394,5.1394,5.1394,5.1394,5.1394,5.1394,5.1394,5.1394,5.1394,5.1394,5.1414,5.1629,5.1984,5.2729,5.3703,5.4492,5.5195,5.5996,5.6484,5.6601,5.6621,5.6621,5.662,5.661,5.661,5.6606,5.6558,5.6509,5.6484,5.6452,5.6387,5.6336,5.6297,5.6278,5.6194,5.6071,5.5749,5.5233,5.481,5.4326,5.3672,5.2879,5.2337,5.2066,5.1583,5.1196,5.0964,5.0906,5.0906,5.0906,5.0906,5.0906,5.0906,5.0906,5.0906,5.0906,5.0906,5.0906,5.0906,5.0906,5.0906,5.0906,5.0906,5.0906,5.0906,5.0906,5.0945,5.0964,5.1177,5.1583,5.2202,5.2666,5.3498,5.4523,5.4851,5.5741,5.5896,5.6012,5.5996,5.5998,5.5943,5.5866,5.5766,5.5618,5.5527,5.5408,5.5281,5.5149,5.5,5.4852,5.473,5.4603,5.4505,5.439,5.1394,5.1394,5.1394,5.1394,5.1394,5.1394,5.1394,5.1394,5.1394,5.1394,5.1394,5.1394,5.1394,5.1394,5.1394,5.1394,5.1394,5.1394,5.1394,5.1394,5.1394,5.1394,5.1394,5.1394,5.1394,5.1394,5.1394,5.1394,5.1394,5.1394,5.1453,5.155,5.2078,5.2585,5.3229,5.4158,5.5089,5.5506,5.6191,5.6582,5.6621,5.6621,5.6621,5.6621,5.6616,5.6605,5.661,5.6582,5.6558,5.6509,5.6497,5.6452,5.6387,5.6345,5.6304,5.6265,5.6228,5.6029,5.5749,5.521,5.4846,5.4423,5.3788,5.2956,5.2472,5.2066,5.1699,5.1157,5.0964,5.0906,5.0906,5.0906,5.0906,5.0906,5.0906,5.0906,5.0906,5.0906,5.0906,5.0906,5.0906,5.0906,5.0906,5.0906,5.0906,5.0906,5.0906,5.1061,5.1196,5.1563,5.2066,5.2782,5.3556,5.4561,5.5625,5.5644,5.5954,5.5954,5.6012,5.6012,5.5996,5.5998,5.5943,5.5827,5.5745,5.564,5.5527,5.5408,5.5307,5.5149,5.5028,5.4882,5.4791,5.4686,5.4557,5.1394,5.1394,5.1394,5.1394,5.1394,5.1394,5.1394,5.1394,5.1394,5.1394,5.1394,5.1394,5.1394,5.1394,5.1394,5.1394,5.1394,5.1394,5.1394,5.1394,5.1394,5.1394,5.1394,5.1394,5.1394,5.1394,5.1394,5.1414,5.1394,5.1394,5.1648,5.2097,5.2546,5.3112,5.399,5.4834,5.5544,5.5909,5.6367,5.6621,5.6621,5.6621,5.6621,5.6621,5.6621,5.6612,5.661,5.6606,5.6602,5.6558,5.6509,5.6497,5.6445,5.6387,5.6345,5.6285,5.6265,5.6228,5.6145,5.5688,5.5501,5.5388,5.4675,5.4058,5.3536,5.3149,5.2472,5.1757,5.1041,5.0906,5.0906,5.0925,5.0906,5.0906,5.0906,5.0906,5.0906,5.0906,5.0906,5.0906,5.0906,5.0906,5.0906,5.0906,5.0906,5.0906,5.0945,5.1196,5.1505,5.2066,5.2685,5.3672,5.4465,5.5045,5.5896,5.5935,5.6012,5.6012,5.6012,5.6012,5.5995,5.5996,5.598,5.5924,5.5846,5.5765,5.566,5.5551,5.5432,5.5333,5.5203,5.5085,5.499,5.4871,5.4749,5.139,5.1394,5.1394,5.1394,5.1394,5.1394,5.1394,5.1394,5.1394,5.1394,5.1394,5.1394,5.1394,5.1394,5.1394,5.1394,5.1394,5.1394,5.1394,5.1394,5.1394,5.1394,5.1394,5.1394,5.1394,5.1433,5.1726,5.157,5.1472,5.1668,5.2097,5.2624,5.2917,5.3815,5.5005,5.5474,5.6001,5.6344,5.661,5.662,5.6621,5.6621,5.6621,5.6621,5.6621,5.6619,5.6605,5.661,5.6606,5.6602,5.6558,5.6509,5.6503,5.6452,5.6387,5.6333,5.6317,5.6265,5.6223,5.6126,5.5975,5.5904,5.5446,5.5062,5.4523,5.3788,5.313,5.2472,5.1738,5.1273,5.1293,5.1022,5.0925,5.0906,5.0906,5.0906,5.0906,5.0906,5.0906,5.0906,5.0925,5.0964,5.1022,5.0983,5.1003,5.1447,5.1505,5.195,5.2298,5.2859,5.3556,5.4639,5.5374,5.5644,5.5973,5.5973,5.6012,5.6012,5.6012,5.6012,5.6012,5.5995,5.5996,5.598,5.5943,5.5865,5.5745,5.5682,5.5551,5.5456,5.5383,5.5255,5.514,5.5028,5.4912,5.1386,5.1394,5.1394,5.1394,5.1394,5.1394,5.1394,5.1394,5.1394,5.1394,5.1394,5.1394,5.1394,5.1394,5.1394,5.1394,5.1394,5.1394,5.1394,5.1394,5.1394,5.1394,5.1394,5.1394,5.1492,5.1648,5.2195,5.2038,5.1941,5.2312,5.2624,5.3073,5.4186,5.5142,5.5435,5.5981,5.6469,5.6586,5.661,5.661,5.6621,5.6621,5.6621,5.6621,5.6621,5.6621,5.6621,5.6607,5.661,5.6606,5.6602,5.6558,5.6509,5.6484,5.6432,5.6396,5.6347,5.6297,5.6278,5.6218,5.6156,5.611,5.5904,5.5523,5.4965,5.4194,5.3556,5.3382,5.255,5.2086,5.1931,5.1428,5.108,5.1099,5.1293,5.1215,5.1138,5.1621,5.1544,5.1447,5.1621,5.1351,5.1235,5.1157,5.1138,5.1641,5.2144,5.2608,5.3169,5.3768,5.4252,5.5258,5.5683,5.5915,5.6012,5.6012,5.6012,5.6012,5.6012,5.6012,5.6012,5.6012,5.6012,5.5996,5.5961,5.5924,5.5846,5.5745,5.5682,5.5573,5.5504,5.5408,5.5281,5.5203,5.5085,5.1366,5.1386,5.139,5.1394,5.1394,5.1394,5.1394,5.1394,5.1394,5.1394,5.1394,5.1394,5.1394,5.1394,5.1394,5.1394,5.1394,5.1394,5.1394,5.1394,5.1394,5.1394,5.1394,5.1433,5.155,5.2195,5.2526,5.2917,5.2858,5.321,5.36,5.4205,5.4908,5.5552,5.5884,5.6391,5.6567,5.6606,5.6606,5.6621,5.6616,5.6621,5.6621,5.6621,5.6621,5.6621,5.6621,5.662,5.6605,5.6614,5.6606,5.6582,5.6558,5.6514,5.6478,5.6439,5.6377,5.6338,5.629,5.6272,5.6218,5.6156,5.611,5.5888,5.539,5.4755,5.4233,5.4213,5.344,5.2995,5.2917,5.2608,5.2472,5.2337,5.2105,5.2182,5.2202,5.2356,5.255,5.2414,5.2318,5.2182,5.2028,5.1989,5.2163,5.2627,5.3053,5.3401,5.4097,5.4851,5.5277,5.5741,5.5935,5.5993,5.6012,5.6012,5.6012,5.6012,5.6012,5.6012,5.6012,5.6012,5.6012,5.6012,5.5977,5.596,5.5904,5.5846,5.5785,5.5703,5.5618,5.5508,5.5413,5.5307,5.5195,5.1323,5.1396,5.1386,5.139,5.1394,5.1394,5.1394,5.1394,5.1394,5.1394,5.1394,5.1394,5.1394,5.1394,5.1394,5.1394,5.1394,5.1394,5.1394,5.1394,5.1433,5.155,5.1746,5.1824,5.2214,5.3014,5.3463,5.3756,5.4186,5.4576,5.4947,5.5318,5.5532,5.5962,5.6411,5.6586,5.6606,5.6606,5.6606,5.6614,5.6607,5.6614,5.6621,5.6621,5.6621,5.6621,5.6621,5.6621,5.6616,5.661,5.661,5.6606,5.6582,5.6558,5.6509,5.6478,5.6445,5.6405,5.6368,5.6314,5.6272,5.6218,5.616,5.6059,5.5949,5.541,5.5084,5.5084,5.4329,5.3923,5.3768,5.3614,5.3285,5.3227,5.3285,5.344,5.3498,5.3382,5.3227,5.3014,5.3033,5.342,5.3265,5.3091,5.3265,5.3672,5.4,5.4233,5.4851,5.5606,5.578,5.6012,5.6012,5.6012,5.6012,5.6012,5.6012,5.6012,5.6012,5.6012,5.6012,5.6012,5.6012,5.6012,5.6012,5.5995,5.5941,5.5943,5.5904,5.5806,5.5724,5.564,5.5573,5.5432,5.5307,5.1323,5.14,5.1391,5.1386,5.1394,5.1394,5.1394,5.1394,5.1394,5.1394,5.1394,5.1394,5.1394,5.1394,5.1394,5.1394,5.1394,5.1394,5.1472,5.1472,5.1472,5.198,5.2351,5.2722,5.3053,5.3893,5.4361,5.483,5.5318,5.5747,5.5708,5.5489,5.602,5.6411,5.6586,5.6606,5.6606,5.6606,5.6606,5.6606,5.661,5.6614,5.6602,5.6614,5.662,5.6621,5.6621,5.6621,5.6621,5.6621,5.6607,5.6606,5.6606,5.6602,5.6558,5.6528,5.6503,5.6471,5.6433,5.6368,5.6309,5.6259,5.6223,5.6164,5.6078,5.6078,5.5946,5.5741,5.5045,5.4774,5.4465,5.4116,5.3981,5.402,5.4155,5.4136,5.4136,5.3981,5.3807,5.3575,5.3788,5.4271,5.4484,5.4291,5.4252,5.4619,5.4697,5.4948,5.5296,5.5877,5.5915,5.6012,5.6012,5.6012,5.6012,5.6012,5.6012,5.6012,5.6012,5.6012,5.6012,5.6012,5.6012,5.6012,5.6012,5.5995,5.5995,5.5979,5.5943,5.5905,5.5826,5.5766,5.5662,5.5527,5.5432,5.13,5.1342,5.1375,5.1396,5.1394,5.1394,5.1394,5.1394,5.1394,5.1394,5.1394,5.1394,5.1394,5.1394,5.1394,5.1394,5.1394,5.1394,5.1726,5.2078,5.2312,5.2741,5.3229,5.362,5.3932,5.4693,5.522,5.5669,5.6138,5.645,5.6411,5.6313,5.645,5.6528,5.6606,5.6606,5.6606,5.6606,5.6606,5.6606,5.6606,5.6606,5.661,5.6618,5.6602,5.6612,5.6621,5.6621,5.6621,5.6621,5.6621,5.661,5.661,5.661,5.6602,5.6558,5.6533,5.6503,5.6485,5.6425,5.6358,5.6304,5.6265,5.6223,5.6145,5.6133,5.6098,5.593,5.5758,5.5451,5.5412,5.5238,5.5161,5.5084,5.4967,5.489,5.4813,5.4697,5.4697,5.46,5.489,5.5316,5.5432,5.549,5.549,5.5528,5.5567,5.5625,5.5857,5.6012,5.6012,5.6012,5.6012,5.6012,5.6012,5.6012,5.6012,5.6012,5.6012,5.6012,5.6012,5.6012,5.6012,5.6012,5.6012,5.6012,5.5995,5.6014,5.5979,5.5961,5.5924,5.5846,5.5745,5.564,5.5551,5.1276,5.132,5.1362,5.1391,5.1394,5.1394,5.1394,5.1394,5.1394,5.1394,5.1394,5.1394,5.1394,5.1394,5.1394,5.1648,5.1785,5.1921,5.2409,5.28,5.3171,5.3639,5.4127,5.4517,5.483,5.5493,5.5728,5.6098,5.6489,5.6586,5.6547,5.6547,5.6606,5.6606,5.6606,5.6606,5.6606,5.6606,5.6606,5.6606,5.6606,5.6606,5.6606,5.6606,5.661,5.6614,5.6605,5.6612,5.6621,5.6621,5.6621,5.6621,5.661,5.6614,5.6606,5.6602,5.6577,5.6533,5.6523,5.6445,5.6378,5.6345,5.6297,5.6259,5.6223,5.618,5.6145,5.6133,5.6062,5.6029,5.6029,5.5835,5.5741,5.5586,5.5606,5.5567,5.5606,5.5548,5.5644,5.5683,5.5877,5.5818,5.5818,5.5818,5.5799,5.5799,5.5799,5.5799,5.5896,5.6012,5.6012,5.6012,5.6012,5.6012,5.6012,5.6012,5.6012,5.6012,5.6012,5.6012,5.6012,5.6012,5.6012,5.6012,5.6012,5.6012,5.6012,5.5995,5.5996,5.5998,5.5961,5.5924,5.5846,5.5745,5.5682,5.1239,5.13,5.1382,5.1391,5.139,5.1394,5.1394,5.1394,5.1394,5.1394,5.1394,5.1394,5.1472,5.1492,5.1609,5.2019,5.2585,5.2702,5.3151,5.3795,5.399,5.4517,5.4986,5.5376,5.563,5.6352,5.645,5.6411,5.6606,5.6606,5.6606,5.6606,5.6606,5.6606,5.6606,5.6606,5.6606,5.6606,5.6606,5.6606,5.6606,5.6606,5.6606,5.6606,5.6606,5.661,5.6614,5.6614,5.661,5.6621,5.6621,5.6621,5.6621,5.6621,5.661,5.661,5.6606,5.6602,5.6602,5.6471,5.6405,5.6378,5.6347,5.6321,5.6285,5.6232,5.6204,5.6194,5.6149,5.6117,5.6082,5.6046,5.6029,5.6012,5.6012,5.6012,5.6012,5.6012,5.6012,5.6012,5.6012,5.5993,5.5993,5.5993,5.5973,5.5973,5.5993,5.6012,5.6012,5.6012,5.6012,5.6012,5.6012,5.6012,5.6012,5.6012,5.6012,5.6012,5.6012,5.6012,5.6012,5.6012,5.6012,5.6012,5.6012,5.6012,5.6012,5.6012,5.5995,5.5996,5.5998,5.5961,5.5924,5.5885,5.5806,5.1201,5.1239,5.1369,5.14,5.1391,5.139,5.1394,5.1394,5.1394,5.1394,5.1394,5.1394,5.1785,5.2078,5.2331,5.2722,5.3428,5.358,5.4029,5.4791,5.4849,5.5415,5.5884,5.6098,5.6274,5.6508,5.6606,5.6606,5.6606,5.6606,5.6606,5.6606,5.6606,5.6606,5.6606,5.6606,5.6606,5.6606,5.6606,5.6606,5.6606,5.6606,5.6606,5.6606,5.6606,5.6606,5.6606,5.6606,5.6614,5.661,5.6618,5.6621,5.6621,5.6621,5.6607,5.6621,5.6618,5.6606,5.6582,5.6517,5.6464,5.6433,5.6398,5.6368,5.6345,5.6304,5.6278,5.6251,5.6194,5.6164,5.6149,5.6098,5.6082,5.6046,5.6046,5.6012,5.6012,5.6012,5.6012,5.6012,5.6012,5.6012,5.6012,5.6012,5.6012,5.6012,5.6012,5.6012,5.6012,5.6012,5.6012,5.6012,5.6012,5.6012,5.6012,5.6012,5.6012,5.6012,5.6012,5.6012,5.6012,5.6012,5.6012,5.6012,5.6012,5.6012,5.6012,5.6012,5.6012,5.5995,5.5996,5.5998,5.5961,5.5943,5.5924,5.121,5.122,5.1323,5.1375,5.14,5.1386,5.1394,5.1453,5.1707,5.1843,5.1921,5.2175,5.2605,5.3053,5.321,5.362,5.4385,5.4459,5.4908,5.565,5.5747,5.6079,5.6411,5.6606,5.6528,5.6606,5.6606,5.6606,5.6606,5.6606,5.6606,5.6606,5.6606,5.6606,5.6606,5.6606,5.6606,5.6606,5.6606,5.6606,5.6606,5.6606,5.6606,5.6606,5.6606,5.6606,5.6606,5.6606,5.6606,5.6614,5.6607,5.662,5.6621,5.662,5.6618,5.6614,5.6621,5.661,5.6582,5.6558,5.6517,5.6445,5.643,5.6425,5.6398,5.6336,5.6321,5.6285,5.6251,5.6223,5.6194,5.6145,5.6149,5.6114,5.6098,5.6082,5.6029,5.6029,5.6029,5.6029,5.6012,5.6012,5.6012,5.6012,5.6012,5.6012,5.6012,5.6012,5.6012,5.6012,5.6012,5.6012,5.6012,5.6012,5.6012,5.6012,5.6012,5.6012,5.6012,5.6012,5.6012,5.6012,5.6012,5.6012,5.6012,5.6012,5.6012,5.6012,5.6012,5.6012,5.5995,5.5996,5.5998,5.5998,5.598,5.12,5.1201,5.1308,5.1421,5.1464,5.162,5.159,5.157,5.237,5.2741,5.278,5.3522,5.3854,5.399,5.4029,5.4537,5.5201,5.5337,5.5786,5.6255,5.6352,5.6567,5.6567,5.6606,5.6606,5.6606,5.6606,5.6606,5.6606,5.6606,5.6606,5.6606,5.6606,5.6606,5.6606,5.6606,5.6606,5.6606,5.6606,5.6606,5.6606,5.6606,5.6606,5.6606,5.6606,5.6606,5.6606,5.6606,5.6606,5.6606,5.661,5.661,5.6618,5.6621,5.6621,5.662,5.6607,5.6618,5.6606,5.6582,5.6558,5.6517,5.6498,5.6457,5.6405,5.6378,5.6368,5.6325,5.6309,5.6272,5.6232,5.6223,5.6194,5.618,5.6199,5.6149,5.6117,5.6082,5.6065,5.6046,5.6012,5.6012,5.6012,5.6012,5.6012,5.6012,5.6012,5.6012,5.6012,5.6012,5.6012,5.6012,5.6012,5.6012,5.6012,5.6012,5.6012,5.6012,5.6012,5.6012,5.6012,5.6012,5.6012,5.6012,5.6012,5.6012,5.6012,5.6012,5.6012,5.6012,5.6012,5.5995,5.5996,5.6014,5.5996,5.1147,5.1269,5.1935,5.2251,5.2343,5.296,5.2904,5.2507,5.3229,5.362,5.3639,5.3873,5.4439,5.4888,5.4927,5.5474,5.5903,5.6255,5.6352,5.6547,5.6606,5.6606,5.6606,5.6606,5.6606,5.6606,5.6606,5.6606,5.6606,5.6606,5.6606,5.6606,5.6606,5.6606,5.6606,5.6606,5.6606,5.6606,5.6606,5.6606,5.6606,5.6606,5.6606,5.6606,5.6606,5.6606,5.6606,5.6606,5.6606,5.6606,5.6606,5.6618,5.6618,5.6612,5.6618,5.6621,5.6619,5.6614,5.6614,5.6606,5.6602,5.6582,5.6567,5.6536,5.6491,5.6422,5.6416,5.6388,5.6367,5.6333,5.6309,5.6291,5.6278,5.6265,5.6257,5.6209,5.618,5.6164,5.6114,5.6082,5.6029,5.6012,5.6012,5.6012,5.6012,5.6012,5.6012,5.6012,5.6012,5.6012,5.6012,5.6012,5.6012,5.6012,5.6012,5.6012,5.6012,5.6012,5.6012,5.6012,5.6012,5.6012,5.6012,5.6012,5.6012,5.6012,5.6012,5.6012,5.6012,5.6012,5.6012,5.6012,5.6012,5.6012,5.6012,5.1618,5.1802,5.2669,5.3085,5.3264,5.4079,5.4142,5.3845,5.4303,5.4517,5.4556,5.4908,5.5318,5.5747,5.5845,5.6079,5.6508,5.6528,5.6586,5.6586,5.6606,5.6606,5.6606,5.6606,5.6606,5.6606,5.6606,5.6606,5.6606,5.6606,5.6606,5.6606,5.6606,5.6606,5.6606,5.6606,5.6606,5.6606,5.6606,5.6606,5.6606,5.6606,5.6606,5.6606,5.6606,5.6606,5.6606,5.6606,5.6606,5.6606,5.6606,5.6606,5.6606,5.6618,5.6614,5.6621,5.6621,5.6621,5.6612,5.6602,5.6614,5.6606,5.6606,5.6577,5.6542,5.6504,5.6457,5.6433,5.6407,5.6398,5.6367,5.6364,5.6353,5.6329,5.6291,5.6251,5.6223,5.6209,5.618,5.6098,5.6065,5.6029,5.6012,5.6012,5.6012,5.6012,5.6012,5.6012,5.6012,5.6012,5.6012,5.6012,5.6012,5.6012,5.6012,5.6012,5.6012,5.6012,5.6012,5.6012,5.6012,5.6012,5.6012,5.6012,5.6012,5.6012,5.6012,5.6012,5.6012,5.6012,5.6012,5.6012,5.6012,5.6012,5.6012,5.2505,5.2593,5.3487,5.402,5.4215,5.497,5.5282,5.5318,5.5348,5.5396,5.5552,5.6196,5.643,5.6411,5.643,5.645,5.6606,5.6606,5.6606,5.6606,5.6606,5.6606,5.6606,5.6606,5.6606,5.6606,5.6606,5.6606,5.6606,5.6606,5.6606,5.6606,5.6606,5.6606,5.6606,5.6606,5.6606,5.6606,5.6606,5.6606,5.6606,5.6606,5.6606,5.6606,5.6606,5.6606,5.6606,5.6606,5.6606,5.6606,5.6606,5.6606,5.6606,5.661,5.661,5.6621,5.6621,5.6621,5.6621,5.6616,5.661,5.6621,5.6606,5.6602,5.6572,5.6523,5.6485,5.6471,5.6441,5.6433,5.6407,5.6407,5.6407,5.6377,5.6325,5.6309,5.6304,5.6278,5.6223,5.616,5.6133,5.6098,5.6046,5.6029,5.6029,5.6012,5.6012,5.6012,5.6012,5.6012,5.6012,5.6012,5.6012,5.6012,5.6012,5.6012,5.6012,5.6012,5.6012,5.6012,5.6012,5.6012,5.6012,5.6012,5.6012,5.6012,5.6012,5.6012,5.6012,5.6012,5.6012,5.6012,5.6012,5.6012,5.6012,5.3291,5.3475,5.4392,5.516,5.5771,5.6067,5.6159,5.6179,5.6216,5.6207,5.6313,5.6489,5.6606,5.6606,5.6606,5.6606,5.6606,5.6606,5.6606,5.6606,5.6606,5.6606,5.6606,5.6606,5.6606,5.6606,5.6606,5.6606,5.6606,5.6606,5.6606,5.6606,5.6606,5.6606,5.6606,5.6606,5.6606,5.6606,5.6606,5.6606,5.6606,5.6606,5.6606,5.6606,5.6606,5.6606,5.6606,5.6606,5.6606,5.6606,5.6606,5.6606,5.6606,5.6606,5.661,5.6602,5.6618,5.6621,5.6621,5.6621,5.6621,5.6621,5.6607,5.6614,5.6582,5.6514,5.6484,5.6491,5.6485,5.6471,5.6457,5.6461,5.6464,5.6407,5.6369,5.6377,5.6375,5.6317,5.6265,5.6223,5.6199,5.6149,5.6098,5.6046,5.6029,5.6029,5.6012,5.6012,5.6012,5.6012,5.6012,5.6012,5.6012,5.6012,5.6012,5.6012,5.6012,5.6012,5.6012,5.6012,5.6012,5.6012,5.6012,5.6012,5.6012,5.6012,5.6012,5.6012,5.6012,5.6012,5.6012,5.6012,5.6012,5.6012,5.6012,5.4068,5.427,5.5202,5.591,5.6339,5.6435,5.6441,5.6464,5.6498,5.6517,5.6548,5.6577,5.6606,5.6606,5.6606,5.6606,5.6606,5.6606,5.6606,5.6606,5.6606,5.6606,5.6606,5.6606,5.6606,5.6606,5.6606,5.6606,5.6606,5.6606,5.6606,5.6606,5.6606,5.6606,5.6606,5.6606,5.6606,5.6606,5.6606,5.6606,5.6606,5.6606,5.6606,5.6606,5.6606,5.6606,5.6606,5.6606,5.6606,5.6606,5.6606,5.6606,5.6606,5.6606,5.6606,5.661,5.6607,5.6621,5.6621,5.6621,5.6621,5.6621,5.6621,5.6621,5.6621,5.6552,5.6538,5.6528,5.6503,5.6472,5.6485,5.6471,5.6484,5.6449,5.6453,5.6446,5.6417,5.6364,5.6317,5.6265,5.6257,5.6209,5.6145,5.6098,5.6082,5.6065,5.6048,5.6012,5.6012,5.6012,5.6012,5.6012,5.6012,5.6012,5.6012,5.6012,5.6012,5.6012,5.6012,5.6012,5.6012,5.6012,5.6012,5.6012,5.6012,5.6012,5.6012,5.6012,5.6012,5.6012,5.6012,5.6012,5.6012,5.6012,5.6012,5.4854,5.5023,5.5855,5.6329,5.6375,5.6388,5.6398,5.6405,5.6461,5.6484,5.6498,5.6567,5.6582,5.6582,5.6606,5.6606,5.6606,5.6606,5.6606,5.6606,5.6606,5.6606,5.6606,5.6606,5.6606,5.6606,5.6606,5.6606,5.6606,5.6606,5.6606,5.6606,5.6606,5.6606,5.6606,5.6606,5.6606,5.6606,5.6606,5.6606,5.6606,5.6606,5.6606,5.6606,5.6606,5.6606,5.6606,5.6606,5.6606,5.6606,5.6606,5.6606,5.6606,5.6606,5.6606,5.661,5.661,5.6607,5.6621,5.6621,5.6621,5.6621,5.6621,5.6621,5.6621,5.6602,5.6591,5.6567,5.6519,5.6509,5.6503,5.6503,5.6511,5.6504,5.6503,5.6488,5.6455,5.6417,5.6375,5.6317,5.6291,5.6265,5.6223,5.6164,5.6133,5.6098,5.6065,5.6029,5.5993,5.6012,5.6012,5.6012,5.6012,5.6012,5.6012,5.6012,5.6012,5.6012,5.6012,5.6012,5.6012,5.6012,5.6012,5.6012,5.6012,5.6012,5.6012,5.6012,5.6012,5.6012,5.6012,5.6012,5.6012,5.6012,5.6012,5.5653,5.5797,5.6097,5.6259,5.6317,5.6333,5.6356,5.6388,5.6416,5.6414,5.6449,5.6498,5.6517,5.6533,5.6582,5.6606,5.6602,5.6602,5.6606,5.6606,5.6606,5.6606,5.6606,5.6606,5.6606,5.6606,5.6606,5.6606,5.6606,5.6606,5.6606,5.6606,5.6606,5.6606,5.6606,5.6606,5.6606,5.6606,5.6606,5.6606,5.6606,5.6606,5.6606,5.6606,5.6606,5.6606,5.6606,5.6606,5.6606,5.6606,5.6606,5.6606,5.6606,5.6606,5.6606,5.6606,5.6606,5.661,5.6607,5.6618,5.6621,5.6621,5.6621,5.6621,5.6614,5.6605,5.6598,5.6602,5.6575,5.6582,5.6577,5.6577,5.6572,5.6523,5.6504,5.6491,5.6469,5.6444,5.6398,5.6358,5.6325,5.6309,5.6278,5.6223,5.616,5.6145,5.6098,5.6046,5.6029,5.6012,5.6012,5.6012,5.6012,5.6012,5.6012,5.6012,5.6012,5.6012,5.6012,5.6012,5.6012,5.6012,5.6012,5.6012,5.6012,5.6012,5.6012,5.6012,5.6012,5.6012,5.6012,5.6012,5.6012,5.6012,5.6012]},{"header":{"parameterUnit":"m.s-1","parameterCategory":1,"la1":31.0,"la2":29.5877,"lo1":-88.7671,"lo2":-86.6584,"dy":0.0162,"dx":0.0185,"nx":115,"ny":88,"refTime":"2023-11-20T06:00:00:Z","depth":0,"parameterNumber":3,"parameterNumberName":"V-component_of_WINDS"},"data":[0.0,0.0,0.0,0.0,0.0,0.0,0.0,0.0,0.0,0.0,0.0,0.0,0.0,0.0,0.0,0.0,0.0,0.0,0.0,0.0,0.0,0.0,0.0,0.0,0.0,0.0,0.0,0.0,0.0,0.0,0.0,0.0,0.0,0.0,0.0,0.0,0.0,0.0,0.0,0.0,0.0,0.0,0.0,0.0,0.0,0.0,0.0,0.0,0.0,0.0,0.0,0.0,0.0,0.0,0.0,0.0,0.0,0.0,0.0,0.0,0.0,0.0,0.0,0.0,0.0,0.0,0.0,0.0,0.0,0.0,0.0,0.0,0.0,0.0,0.0,0.0,0.0,0.0,0.0,0.0,0.0,0.0,0.0,0.0,0.0,0.0,0.0,0.0,0.0,0.0,0.0,0.0,0.0,0.0,0.0,0.0,0.0,0.0,0.0,0.0,0.0,0.0,0.0,0.0,0.0,0.0,0.0,0.0,0.0,0.0,0.0,0.0,0.0,0.0,0.0,0.0,0.0,0.0,0.0,0.0,0.0,0.0,0.0,0.0,0.0,0.0,0.0,0.0,0.0,0.0,0.0,0.0,0.0,0.0,0.0,0.0,0.0,0.0,0.0,0.0,0.0,0.0,0.0,0.0,0.0,0.0,0.0,0.0,0.0,0.0,0.0,0.0,0.0,0.0,0.0,0.0,0.0,0.0,0.0,0.0,0.0,0.0,0.0,0.0,0.0,0.0,0.0,0.0,0.0,0.0,0.0,0.0,0.0,0.0,0.0,0.0,0.0,0.0,0.0,0.0,0.0,0.0,0.0,0.0,0.0,0.0,0.0,0.0,0.0,0.0,0.0,0.0,0.0,0.0,0.0,0.0,0.0,0.0,0.0,0.0,0.0,0.0,0.0,0.0,0.0,0.0,0.0,0.0,0.0,0.0,0.0,0.0,0.0,0.0,0.0,0.0,0.0,0.0,0.0,0.0,0.0,0.0,0.0,0.0,0.0,0.0,0.0,0.0,0.0,0.0,0.0,0.0,0.0,0.0,0.0,0.0,0.0,0.0,0.0,0.0,0.0,0.0,0.0,0.0,0.0,0.0,0.0,0.0,0.0,0.0,0.0,0.0,0.0,0.0,0.0,0.0,0.0,0.0,0.0,0.0,0.0,0.0,0.0,0.0,0.0,0.0,0.0,0.0,0.0,0.0,0.0,0.0,0.0,0.0,0.0,0.0,0.0,0.0,0.0,0.0,0.0,0.0,0.0,0.0,0.0,0.0,0.0,0.0,0.0,0.0,0.0,0.0,0.0,0.0,0.0,0.0,0.0,0.0,0.0,0.0,0.0,0.0,0.0,0.0,0.0,0.0,0.0,0.0,0.0,0.0,0.0,0.0,0.0,0.0,0.0,0.0,0.0,0.0,0.0,0.0,0.0,0.0,0.0,0.0,0.0,0.0,0.0,0.0,0.0,0.0,0.0,0.0,0.0,0.0,0.0,0.0,0.0,0.0,0.0,0.0,0.0,0.0,0.0,0.0,0.0,0.0,0.0,0.0,0.0,0.0,0.0,0.0,0.0,0.0,0.0,0.0,0.0,0.0,0.0,0.0,0.0,0.0,0.0,0.0,0.0,0.0,0.0,0.0,0.0,0.0,0.0,0.0,0.0,0.0,0.0,0.0,0.0,0.0,0.0,0.0,0.0,0.0,0.0,0.0,0.0,0.0,0.0,0.0,0.0,0.0,0.0,0.0,0.0,0.0,0.0,0.0,0.0,0.0,0.0,0.0,0.0,0.0,0.0,0.0,0.0,0.0,0.0,0.0,0.0,0.0,0.0,0.0,0.0,0.0,0.0,0.0,0.0,0.0,0.0,0.0,0.0,0.0,0.0,0.0,0.0,0.0,0.0,0.0,0.0,0.0,0.0,0.0,0.0,0.0,0.0,0.0,0.0,0.0,0.0,0.0,0.0,0.0,0.0,0.0,0.0,0.0,0.0,0.0,0.0,0.0,0.0,0.0,0.0,0.0,0.0,0.0,0.0,0.0,0.0,0.0,0.0,0.0,0.0,0.0,0.0,0.0,0.0,0.0,0.0,0.0,0.0,0.0,0.0,0.0,0.0,0.0,0.0,0.0,0.0,0.0,0.0,0.0,0.0,0.0,0.0,0.0,0.0,0.0,0.0,0.0,0.0,0.0,0.0,0.0,0.0,0.0,0.0,0.0,0.0,0.0,0.0,0.0,0.0,0.0,0.0,0.0,0.0,0.0,0.0,0.0,0.0,0.0,0.0,0.0,0.0,0.0,0.0,0.0,0.0,0.0,0.0,0.0,0.0,0.0,0.0,0.0,0.0,0.0,0.0,0.0,0.0,0.0,0.0,0.0,0.0,0.0,0.0,0.0,0.0,0.0,0.0,0.0,0.0,0.0,0.0,0.0,0.0,0.0,0.0,0.0,0.0,0.0,0.0,0.0,0.0,0.0,0.0,0.0,0.0,0.0,0.0,0.0,0.0,0.0,0.0,0.0,0.0,0.0,0.0,0.0,0.0,0.0,0.0,0.0,0.0,0.0,0.0,0.0,0.0,0.0,0.0,0.0,0.0,0.0,0.0,0.0,0.0,0.0,0.0,0.0,0.0,0.0,0.0,0.0,0.0,0.0,0.0,0.0,0.0,0.0,0.0,0.0,0.0,0.0,0.0,0.0,0.0,0.0,0.0,0.0,0.0,0.0,0.0,0.0,0.0,0.0,0.0,0.0,0.0,0.0,0.0,0.0,0.0,0.0,0.0,0.0,0.0,0.0,0.0,0.0,0.0,0.0,0.0,0.0,0.0,0.0,0.0,0.0,0.0,0.0,0.0,0.0,0.0,0.0,0.0,0.0,0.0,0.0,0.0,0.0,0.0,0.0,0.0,0.0,0.0,0.0,0.0,0.0,0.0,0.0,0.0,0.0,0.0,0.0,0.0,0.0,0.0,0.0,0.0,0.0,0.0,0.0,0.0,0.0,0.0,0.0,0.0,0.0,0.0,0.0,0.0,0.0,0.0,0.0,0.0,0.0,0.0,0.0,0.0,0.0,0.0,0.0,0.0,0.0,0.0,0.0,0.0,0.0,0.0,0.0,0.0,0.0,0.0,0.0,0.0,0.0,0.0,0.0,0.0,0.0,0.0,0.0,0.0,0.0,0.0,0.0,0.0,0.0,0.0,0.0,0.0,0.0,0.0,0.0,0.0,0.0,0.0,0.0,0.0,0.0,0.0,0.0,0.0,0.0,0.0,0.0,0.0,0.0,0.0,0.0,0.0,0.0,0.0,0.0,0.0,0.0,0.0,0.0,0.0,0.0,0.0,0.0,0.0,0.0,0.0,0.0,0.0,0.0,0.0,0.0,0.0,0.0,0.0,0.0,0.0,0.0,0.0,0.0,0.0,0.0,0.0,0.0,0.0,0.0,0.0,0.0,0.0,0.0,0.0,0.0,0.0,0.0,0.0,0.0,0.0,0.0,0.0,0.0,0.0,0.0,0.0,0.0,0.0,0.0,0.0,0.0,0.0,0.0,0.0,0.0,0.0,0.0,0.0,0.0,0.0,0.0,0.0,0.0,0.0,0.0,0.0,0.0,0.0,0.0,0.0,0.0,0.0,0.0,0.0,0.0,0.0,0.0,0.0,0.0,0.0,0.0,0.0,0.0,0.0,0.0,0.0,0.0,0.0,0.0,0.0,0.0,0.0,0.0,0.0,0.0,0.0,0.0,0.0,0.0,0.0,0.0,0.0,0.0,0.0,0.0,0.0,0.0,0.0,0.0,0.0,0.0,0.0,0.0,0.0,0.0,0.0,0.0,0.0,0.0,0.0,0.0,0.0,0.0,0.0,0.0,0.0,0.0,0.0,0.0,0.0,0.0,0.0,0.0,0.0,0.0,0.0,0.0,0.0,0.0,0.0,0.0,0.0,0.0,0.0,0.0,0.0,0.0,0.0,0.0,0.0,0.0,0.0,0.0,0.0,0.0,0.0,0.0,0.0,0.0,0.0,0.0,0.0,0.0,0.0,0.0,0.0,0.0,0.0,0.0,0.0,0.0,0.0,0.0,0.0,0.0,0.0,0.0,0.0,0.0,0.0,0.0,0.0,0.0,0.0,0.0,0.0,0.0,0.0,0.0,0.0,0.0,0.0,0.0,0.0,0.0,0.0,0.0,0.0,0.0,0.0,0.0,0.0,0.0,0.0,0.0,0.0,0.0,0.0,0.0,0.0,0.0,0.0,0.0,0.0,0.0,0.0,0.0,0.0,0.0,0.0,0.0,-0.8368,0.0,0.0,0.0,0.0,0.0,0.0,0.0,0.0,0.0,0.0,0.0,0.0,0.0,0.0,0.0,0.0,0.0,0.0,0.0,0.0,0.0,0.0,0.0,0.0,0.0,0.0,0.0,0.0,0.0,0.0,0.0,0.0,0.0,0.0,0.0,0.0,0.0,0.0,0.0,0.0,0.0,0.0,0.0,0.0,0.0,0.0,0.0,0.0,0.0,0.0,0.0,0.0,0.0,0.0,0.0,0.0,0.0,0.0,0.0,0.0,0.0,0.0,0.0,0.0,0.0,0.0,0.0,0.0,0.0,0.0,0.0,0.0,0.0,0.0,0.0,0.0,0.0,0.0,0.0,0.0,0.0,0.0,0.0,0.0,0.0,0.0,0.0,0.0,0.0,0.0,0.0,0.0,0.0,0.0,0.0,0.0,0.0,0.0,0.0,0.0,0.0,0.0,0.0,0.0,0.0,0.0,0.0,0.0,0.0,0.0,-0.8703,-0.8703,-0.8703,-0.8661,-0.8562,0.0,0.0,0.0,0.0,0.0,0.0,0.0,0.0,0.0,0.0,0.0,0.0,0.0,0.0,0.0,0.0,0.0,0.0,0.0,0.0,0.0,0.0,0.0,0.0,0.0,0.0,0.0,0.0,0.0,0.0,0.0,0.0,0.0,0.0,0.0,0.0,0.0,0.0,0.0,0.0,0.0,0.0,0.0,0.0,0.0,0.0,0.0,0.0,0.0,0.0,0.0,0.0,0.0,0.0,0.0,0.0,0.0,0.0,0.0,0.0,0.0,0.0,0.0,0.0,0.0,0.0,0.0,0.0,0.0,0.0,0.0,0.0,0.0,0.0,0.0,0.0,0.0,0.0,0.0,0.0,0.0,0.0,0.0,0.0,0.0,0.0,0.0,0.0,0.0,0.0,0.0,0.0,0.0,0.0,0.0,0.0,0.0,0.0,0.0,0.0,0.0,0.0,0.0,0.0,0.0,0.0,0.0,0.0,0.0,0.0,0.0,0.0,-0.8703,-0.8703,-0.8689,0.0,0.0,0.0,0.0,0.0,0.0,0.0,0.0,0.0,0.0,0.0,0.0,0.0,0.0,0.0,0.0,0.0,0.0,0.0,0.0,0.0,0.0,0.0,0.0,0.0,0.0,0.0,0.0,0.0,0.0,0.0,0.0,0.0,0.0,0.0,0.0,0.0,0.0,0.0,0.0,0.0,0.0,0.0,0.0,0.0,0.0,0.0,0.0,0.0,0.0,0.0,0.0,0.0,0.0,0.0,0.0,0.0,0.0,0.0,0.0,0.0,0.0,0.0,0.0,0.0,0.0,0.0,0.0,0.0,0.0,0.0,0.0,0.0,0.0,0.0,0.0,0.0,0.0,0.0,0.0,0.0,0.0,0.0,0.0,0.0,0.0,0.0,0.0,0.0,0.0,0.0,0.0,0.0,0.0,0.0,0.0,0.0,0.0,0.0,0.0,0.0,0.0,0.0,0.0,0.0,0.0,0.0,0.0,0.0,0.0,-0.8703,-0.8703,-0.8703,0.0,-0.867,0.0,0.0,0.0,0.0,0.0,0.0,0.0,0.0,0.0,0.0,0.0,0.0,0.0,0.0,0.0,0.0,0.0,0.0,0.0,0.0,0.0,0.0,0.0,0.0,0.0,0.0,0.0,0.0,0.0,0.0,0.0,0.0,0.0,0.0,0.0,0.0,0.0,0.0,0.0,0.0,0.0,0.0,0.0,0.0,0.0,0.0,0.0,0.0,0.0,0.0,0.0,0.0,0.0,0.0,0.0,0.0,0.0,0.0,0.0,0.0,0.0,0.0,0.0,0.0,0.0,0.0,0.0,0.0,0.0,0.0,0.0,0.0,0.0,0.0,0.0,0.0,0.0,0.0,0.0,0.0,0.0,0.0,0.0,0.0,0.0,0.0,0.0,0.0,0.0,0.0,0.0,0.0,0.0,0.0,0.0,0.0,0.0,0.0,0.0,0.0,0.0,0.0,0.0,0.0,0.0,0.0,0.0,0.0,0.0,0.0,-0.8319,-0.8194,-0.8157,-0.82,0.0,0.0,0.0,0.0,0.0,0.0,0.0,0.0,0.0,0.0,0.0,0.0,0.0,0.0,0.0,0.0,0.0,0.0,0.0,0.0,0.0,0.0,0.0,0.0,0.0,0.0,0.0,0.0,0.0,0.0,0.0,0.0,0.0,0.0,0.0,0.0,0.0,0.0,0.0,0.0,0.0,0.0,0.0,0.0,0.0,0.0,0.0,0.0,0.0,0.0,0.0,0.0,0.0,0.0,0.0,0.0,0.0,0.0,0.0,0.0,0.0,0.0,0.0,0.0,0.0,0.0,0.0,0.0,0.0,0.0,0.0,0.0,0.0,0.0,0.0,0.0,0.0,0.0,0.0,0.0,0.0,0.0,0.0,0.0,0.0,0.0,0.0,0.0,0.0,0.0,0.0,0.0,0.0,0.0,0.0,0.0,0.0,0.0,0.0,0.0,0.0,0.0,0.0,0.0,0.0,0.0,0.0,0.0,0.0,0.0,-0.8029,-0.7888,-0.7753,-0.7726,-0.7816,-0.8009,0.0,0.0,0.0,0.0,0.0,0.0,0.0,0.0,0.0,0.0,0.0,0.0,0.0,0.0,0.0,0.0,0.0,0.0,0.0,0.0,0.0,0.0,0.0,0.0,0.0,0.0,0.0,0.0,0.0,0.0,0.0,0.0,0.0,0.0,0.0,0.0,0.0,0.0,0.0,0.0,0.0,0.0,0.0,0.0,0.0,0.0,0.0,0.0,0.0,0.0,0.0,0.0,0.0,0.0,0.0,0.0,0.0,0.0,0.0,0.0,0.0,0.0,0.0,0.0,0.0,0.0,0.0,0.0,0.0,0.0,0.0,0.0,0.0,0.0,0.0,0.0,0.0,0.0,0.0,0.0,0.0,0.0,0.0,0.0,0.0,0.0,0.0,0.0,0.0,0.0,0.0,0.0,0.0,0.0,0.0,0.0,0.0,0.0,0.0,0.0,0.0,0.0,0.0,0.0,0.0,0.0,0.0,0.0,-0.7824,-0.7677,-0.7606,-0.7593,-0.7606,-0.7699,0.0,0.0,0.0,0.0,0.0,0.0,0.0,0.0,0.0,0.0,0.0,0.0,0.0,0.0,0.0,0.0,0.0,0.0,0.0,0.0,0.0,0.0,0.0,0.0,0.0,0.0,0.0,0.0,0.0,0.0,0.0,0.0,0.0,0.0,0.0,0.0,0.0,0.0,0.0,0.0,0.0,0.0,0.0,0.0,0.0,0.0,0.0,0.0,0.0,0.0,0.0,0.0,0.0,0.0,0.0,0.0,0.0,0.0,0.0,0.0,0.0,0.0,0.0,0.0,0.0,0.0,0.0,0.0,0.0,0.0,0.0,0.0,0.0,0.0,0.0,0.0,0.0,0.0,0.0,0.0,0.0,0.0,0.0,0.0,0.0,0.0,0.0,0.0,0.0,0.0,0.0,0.0,0.0,0.0,0.0,0.0,0.0,0.0,0.0,0.0,0.0,0.0,0.0,0.0,0.0,0.0,0.0,0.0,0.0,-0.748,-0.7142,-0.7005,-0.6994,-0.699,-0.7074,0.0,0.0,0.0,0.0,0.0,0.0,0.0,0.0,0.0,0.0,0.0,0.0,0.0,0.0,0.0,0.0,0.0,0.0,0.0,0.0,0.0,0.0,0.0,0.0,0.0,0.0,0.0,0.0,0.0,0.0,0.0,0.0,0.0,0.0,0.0,0.0,0.0,0.0,0.0,0.0,0.0,0.0,0.0,0.0,0.0,0.0,0.0,0.0,0.0,0.0,0.0,0.0,0.0,0.0,0.0,0.0,0.0,0.0,0.0,0.0,0.0,0.0,0.0,0.0,0.0,0.0,0.0,0.0,0.0,0.0,0.0,0.0,0.0,0.0,0.0,0.0,0.0,0.0,0.0,0.0,0.0,0.0,0.0,0.0,0.0,0.0,0.0,0.0,0.0,0.0,0.0,0.0,0.0,0.0,0.0,0.0,0.0,0.0,0.0,0.0,0.0,0.0,0.0,0.0,0.0,0.0,0.0,0.0,0.0,-0.7022,0.0,-0.6501,-0.6474,-0.6491,-0.6543,0.0,0.0,0.0,0.0,0.0,0.0,0.0,0.0,0.0,0.0,0.0,0.0,0.0,0.0,0.0,0.0,0.0,0.0,0.0,0.0,0.0,0.0,0.0,0.0,0.0,0.0,0.0,0.0,0.0,0.0,0.0,0.0,0.0,0.0,0.0,0.0,0.0,0.0,0.0,0.0,0.0,0.0,0.0,0.0,0.0,0.0,0.0,0.0,0.0,0.0,0.0,0.0,0.0,0.0,0.0,0.0,0.0,0.0,0.0,0.0,0.0,0.0,0.0,0.0,0.0,0.0,0.0,0.0,0.0,0.0,0.0,0.0,0.0,0.0,0.0,0.0,0.0,0.0,0.0,0.0,0.0,0.0,0.0,0.0,0.0,0.0,0.0,0.0,0.0,0.0,0.0,0.0,0.0,0.0,0.0,0.0,0.0,0.0,0.0,0.0,0.0,0.0,0.0,0.0,0.0,0.0,0.0,0.0,-0.6834,-0.6405,-0.6317,-0.6187,-0.6134,-0.5993,-0.5978,0.0,0.0,0.0,0.0,0.0,0.0,0.0,0.0,0.0,0.0,0.0,0.0,0.0,0.0,0.0,0.0,0.0,0.0,0.0,0.0,0.0,0.0,0.0,0.0,0.0,0.0,0.0,0.0,0.0,0.0,0.0,0.0,0.0,0.0,0.0,0.0,0.0,0.0,0.0,0.0,0.0,0.0,0.0,0.0,0.0,0.0,0.0,0.0,0.0,0.0,0.0,0.0,0.0,0.0,0.0,0.0,0.0,0.0,0.0,0.0,0.0,0.0,0.0,0.0,0.0,0.0,0.0,0.0,0.0,0.0,0.0,0.0,0.0,0.0,0.0,0.0,0.0,0.0,0.0,0.0,0.0,0.0,0.0,0.0,0.0,0.0,0.0,0.0,0.0,0.0,0.0,0.0,0.0,0.0,0.0,0.0,0.0,0.0,0.0,0.0,0.0,0.0,0.0,0.0,0.0,0.0,0.0,0.0,0.0,-0.6663,-0.6394,-0.6176,-0.6072,-0.6007,-0.6086,0.0,0.0,0.0,0.0,0.0,0.0,0.0,0.0,0.0,0.0,0.0,0.0,0.0,0.0,0.0,0.0,0.0,0.0,0.0,0.0,0.0,0.0,0.0,0.0,0.0,0.0,0.0,0.0,0.0,0.0,0.0,0.0,0.0,0.0,0.0,0.0,0.0,0.0,0.0,0.0,0.0,0.0,0.0,0.0,0.0,0.0,0.0,0.0,0.0,0.0,0.0,0.0,0.0,0.0,0.0,0.0,0.0,0.0,0.0,0.0,0.0,0.0,0.0,0.0,0.0,0.0,0.0,0.0,0.0,0.0,0.0,0.0,0.0,0.0,0.0,0.0,0.0,0.0,0.0,0.0,0.0,0.0,0.0,0.0,0.0,0.0,0.0,0.0,0.0,0.0,0.0,0.0,0.0,0.0,0.0,0.0,0.0,0.0,0.0,0.0,0.0,0.0,0.0,0.0,0.0,0.0,0.0,0.0,0.0,-0.688,-0.6477,-0.6187,-0.5874,-0.5884,-0.5853,-0.579,0.0,0.0,0.0,0.0,0.0,0.0,0.0,0.0,0.0,0.0,0.0,0.0,0.0,0.0,0.0,0.0,0.0,0.0,0.0,0.0,0.0,0.0,0.0,0.0,0.0,0.0,0.0,0.0,0.0,0.0,0.0,0.0,0.0,0.0,0.0,0.0,0.0,0.0,0.0,0.0,0.0,0.0,0.0,0.0,0.0,0.0,0.0,0.0,0.0,0.0,0.0,0.0,0.0,0.0,0.0,0.0,0.0,0.0,0.0,0.0,0.0,0.0,0.0,0.0,0.0,0.0,0.0,0.0,0.0,0.0,0.0,0.0,0.0,0.0,0.0,0.0,0.0,0.0,0.0,0.0,0.0,0.0,0.0,0.0,0.0,0.0,0.0,0.0,0.0,0.0,0.0,0.0,0.0,0.0,0.0,0.0,0.0,0.0,0.0,0.0,0.0,0.0,0.0,0.0,0.0,0.0,0.0,0.0,-0.698,-0.6536,-0.6075,-0.5666,-0.5542,-0.5405,0.0,0.0,0.0,0.0,0.0,0.0,0.0,0.0,0.0,0.0,0.0,0.0,0.0,0.0,0.0,0.0,0.0,0.0,0.0,0.0,0.0,0.0,0.0,0.0,0.0,0.0,0.0,0.0,0.0,0.0,0.0,0.0,0.0,0.0,0.0,0.0,0.0,0.0,0.0,0.0,0.0,0.0,0.0,0.0,0.0,0.0,0.0,0.0,0.0,0.0,0.0,0.0,0.0,0.0,0.0,0.0,0.0,0.0,0.0,0.0,0.0,0.0,0.0,0.0,0.0,0.0,0.0,0.0,0.0,0.0,0.0,0.0,0.0,0.0,0.0,0.0,0.0,0.0,0.0,0.0,0.0,0.0,0.0,0.0,0.0,0.0,0.0,0.0,0.0,0.0,0.0,0.0,0.0,0.0,0.0,0.0,0.0,0.0,0.0,0.0,0.0,0.0,0.0,0.0,0.0,0.0,0.0,0.0,0.0,-0.6555,-0.6455,-0.6278,-0.5965,-0.5678,-0.5541,0.0,0.0,0.0,0.0,0.0,0.0,0.0,0.0,0.0,0.0,0.0,0.0,0.0,0.0,0.0,0.0,0.0,0.0,0.0,0.0,0.0,0.0,0.0,0.0,0.0,0.0,0.0,0.0,0.0,0.0,0.0,0.0,0.0,0.0,0.0,0.0,0.0,0.0,0.0,0.0,0.0,0.0,0.0,0.0,0.0,0.0,0.0,0.0,0.0,0.0,0.0,0.0,0.0,0.0,0.0,0.0,0.0,0.0,0.0,0.0,0.0,0.0,0.0,0.0,0.0,0.0,0.0,0.0,0.0,0.0,0.0,0.0,0.0,0.0,0.0,0.0,0.0,0.0,0.0,0.0,0.0,0.0,0.0,0.0,0.0,0.0,0.0,0.0,0.0,0.0,0.0,0.0,0.0,0.0,0.0,0.0,0.0,0.0,0.0,0.0,0.0,0.0,0.0,0.0,0.0,0.0,0.0,0.0,-0.6542,-0.6295,-0.6181,-0.6057,-0.6004,-0.5794,-0.5635,0.0,0.0,0.0,0.0,0.0,0.0,0.0,0.0,0.0,0.0,0.0,0.0,0.0,0.0,0.0,0.0,0.0,0.0,0.0,0.0,0.0,0.0,0.0,0.0,0.0,0.0,0.0,0.0,0.0,0.0,0.0,0.0,0.0,0.0,0.0,0.0,0.0,0.0,0.0,0.0,0.0,0.0,0.0,0.0,0.0,0.0,0.0,0.0,0.0,0.0,0.0,0.0,0.0,0.0,0.0,0.0,0.0,0.0,0.0,0.0,0.0,0.0,0.0,0.0,0.0,0.0,0.0,0.0,0.0,0.0,0.0,0.0,0.0,0.0,0.0,0.0,0.0,0.0,0.0,0.0,0.0,0.0,0.0,0.0,0.0,0.0,0.0,0.0,0.0,0.0,0.0,0.0,0.0,0.0,0.0,0.0,0.0,0.0,0.0,0.0,0.0,0.0,0.0,0.0,0.0,0.0,0.0,0.0,-0.6325,-0.6177,-0.5843,-0.5758,-0.5912,-0.5791,-0.5606,0.0,0.0,0.0,0.0,0.0,0.0,0.0,0.0,0.0,0.0,0.0,0.0,0.0,0.0,0.0,0.0,0.0,0.0,0.0,0.0,0.0,0.0,0.0,0.0,0.0,0.0,0.0,0.0,0.0,0.0,0.0,0.0,0.0,0.0,0.0,0.0,0.0,0.0,0.0,0.0,0.0,0.0,0.0,0.0,0.0,0.0,0.0,0.0,0.0,0.0,0.0,0.0,0.0,0.0,0.0,0.0,0.0,0.0,0.0,0.0,0.0,0.0,0.0,0.0,0.0,0.0,0.0,0.0,0.0,0.0,0.0,0.0,0.0,0.0,0.0,0.0,0.0,0.0,0.0,0.0,0.0,0.0,0.0,0.0,0.0,0.0,0.0,0.0,0.0,0.0,0.0,0.0,0.0,0.0,0.0,0.0,0.0,0.0,0.0,0.0,0.0,0.0,0.0,0.0,0.0,0.0,0.0,0.0,-0.6016,-0.6128,-0.5888,-0.5711,-0.578,-0.5575,-0.5485,0.0,0.0,0.0,0.0,0.0,0.0,0.0,0.0,0.0,0.0,0.0,0.0,0.0,0.0,0.0,0.0,0.0,0.0,0.0,0.0,0.0,0.0,0.0,0.0,0.0,0.0,0.0,0.0,0.0,0.0,0.0,0.0,0.0,0.0,0.0,0.0,0.0,0.0,0.0,0.0,0.0,0.0,0.0,0.0,0.0,0.0,0.0,0.0,-1.2846,0.0,0.0,0.0,0.0,0.0,0.0,0.0,0.0,0.0,0.0,0.0,0.0,0.0,0.0,0.0,0.0,0.0,0.0,0.0,0.0,0.0,0.0,0.0,0.0,0.0,0.0,0.0,0.0,0.0,0.0,0.0,0.0,0.0,0.0,0.0,0.0,0.0,0.0,0.0,0.0,0.0,0.0,0.0,0.0,0.0,0.0,0.0,0.0,0.0,0.0,0.0,0.0,0.0,0.0,0.0,0.0,0.0,0.0,0.0,-0.6039,-0.5984,-0.5896,-0.5809,-0.5812,-0.5749,-0.5605,0.0,0.0,0.0,0.0,0.0,0.0,0.0,0.0,0.0,0.0,0.0,0.0,0.0,0.0,0.0,0.0,0.0,0.0,0.0,0.0,0.0,0.0,0.0,0.0,0.0,0.0,0.0,0.0,0.0,0.0,0.0,0.0,0.0,0.0,0.0,0.0,0.0,0.0,0.0,0.0,0.0,0.0,0.0,0.0,0.0,0.0,0.0,0.0,0.0,0.0,0.0,0.0,0.0,0.0,0.0,0.0,0.0,0.0,0.0,0.0,0.0,0.0,0.0,0.0,0.0,0.0,0.0,0.0,0.0,0.0,0.0,0.0,0.0,0.0,0.0,0.0,0.0,0.0,0.0,0.0,0.0,0.0,0.0,0.0,0.0,0.0,0.0,0.0,0.0,0.0,0.0,0.0,0.0,0.0,0.0,0.0,0.0,0.0,0.0,0.0,0.0,0.0,0.0,0.0,0.0,0.0,0.0,-0.6072,-0.6074,-0.5899,-0.592,-0.5923,-0.5901,-0.5901,-0.5801,-0.5586,0.0,0.0,0.0,0.0,0.0,0.0,0.0,0.0,0.0,0.0,0.0,0.0,0.0,0.0,0.0,0.0,0.0,0.0,0.0,0.0,0.0,0.0,0.0,0.0,0.0,0.0,0.0,0.0,0.0,0.0,0.0,0.0,0.0,0.0,0.0,0.0,0.0,0.0,-1.0724,-1.2079,0.0,0.0,0.0,0.0,0.0,0.0,0.0,0.0,-1.333,0.0,0.0,0.0,0.0,0.0,0.0,0.0,0.0,0.0,0.0,0.0,0.0,0.0,0.0,0.0,0.0,0.0,0.0,0.0,0.0,0.0,0.0,0.0,0.0,0.0,0.0,0.0,0.0,0.0,0.0,0.0,0.0,0.0,0.0,0.0,0.0,0.0,0.0,0.0,0.0,0.0,0.0,0.0,0.0,0.0,0.0,0.0,0.0,0.0,0.0,0.0,0.0,0.0,0.0,0.0,0.0,-0.594,-0.6204,-0.6162,-0.5904,-0.6005,-0.6007,-0.5909,-0.5901,-0.5839,-0.5703,0.0,0.0,0.0,0.0,0.0,0.0,0.0,0.0,0.0,0.0,0.0,0.0,0.0,0.0,0.0,0.0,0.0,0.0,0.0,0.0,0.0,0.0,0.0,0.0,0.0,0.0,0.0,0.0,0.0,0.0,0.0,0.0,0.0,0.0,0.0,0.0,0.0,0.0,0.0,-1.2757,-1.3175,0.0,0.0,0.0,0.0,0.0,0.0,0.0,0.0,-1.3417,0.0,0.0,0.0,0.0,0.0,0.0,0.0,0.0,0.0,0.0,0.0,0.0,0.0,0.0,0.0,0.0,0.0,0.0,0.0,0.0,0.0,0.0,0.0,0.0,0.0,0.0,0.0,0.0,0.0,0.0,0.0,0.0,0.0,0.0,0.0,0.0,0.0,0.0,0.0,0.0,0.0,0.0,0.0,0.0,0.0,0.0,0.0,0.0,0.0,0.0,0.0,0.0,0.0,0.0,0.0,-0.6156,-0.6085,-0.6059,-0.6089,-0.6151,-0.6154,-0.6094,-0.6029,-0.5942,0.0,0.0,0.0,0.0,0.0,0.0,0.0,0.0,0.0,0.0,0.0,0.0,0.0,0.0,0.0,0.0,0.0,0.0,0.0,0.0,0.0,0.0,0.0,0.0,0.0,0.0,0.0,0.0,0.0,0.0,0.0,0.0,0.0,0.0,0.0,0.0,0.0,0.0,0.0,0.0,-1.3012,-1.3335,-1.3077,0.0,0.0,0.0,0.0,0.0,0.0,-1.3907,-1.3492,0.0,0.0,0.0,0.0,0.0,0.0,0.0,0.0,0.0,0.0,0.0,0.0,0.0,0.0,0.0,0.0,0.0,0.0,0.0,0.0,0.0,0.0,0.0,0.0,0.0,0.0,0.0,0.0,0.0,0.0,0.0,0.0,0.0,0.0,0.0,0.0,0.0,0.0,0.0,0.0,0.0,0.0,0.0,0.0,0.0,0.0,0.0,0.0,0.0,0.0,0.0,0.0,0.0,0.0,0.0,-0.6376,-0.6059,-0.6045,-0.626,-0.629,-0.6293,-0.6265,-0.6151,-0.6026,0.0,0.0,0.0,0.0,0.0,0.0,0.0,0.0,0.0,0.0,0.0,0.0,0.0,0.0,0.0,0.0,0.0,0.0,0.0,0.0,0.0,0.0,0.0,0.0,0.0,0.0,0.0,0.0,0.0,0.0,0.0,0.0,0.0,0.0,0.0,0.0,0.0,0.0,0.0,0.0,0.0,-1.3523,-1.3379,-1.3752,0.0,0.0,0.0,0.0,-1.4151,-1.3866,0.0,0.0,0.0,0.0,0.0,0.0,0.0,0.0,0.0,0.0,0.0,0.0,0.0,0.0,0.0,0.0,0.0,0.0,0.0,0.0,0.0,0.0,0.0,0.0,0.0,0.0,0.0,0.0,0.0,0.0,0.0,0.0,0.0,0.0,0.0,0.0,0.0,0.0,0.0,0.0,0.0,0.0,0.0,0.0,0.0,0.0,0.0,0.0,0.0,0.0,0.0,0.0,0.0,0.0,0.0,0.0,-0.6335,-0.6188,-0.6132,-0.6265,-0.6363,-0.6369,-0.6271,-0.6149,-0.6029,0.0,0.0,0.0,0.0,0.0,0.0,0.0,0.0,0.0,0.0,0.0,0.0,0.0,0.0,0.0,0.0,0.0,0.0,0.0,0.0,0.0,0.0,0.0,0.0,0.0,0.0,0.0,0.0,0.0,0.0,0.0,0.0,0.0,0.0,0.0,0.0,0.0,0.0,0.0,0.0,0.0,-1.3393,-1.2981,-1.3641,-1.4248,0.0,0.0,-1.3957,-1.4241,-1.4019,0.0,0.0,0.0,0.0,0.0,0.0,0.0,0.0,0.0,0.0,0.0,0.0,0.0,0.0,0.0,0.0,0.0,0.0,0.0,0.0,0.0,0.0,0.0,0.0,0.0,0.0,0.0,0.0,0.0,0.0,0.0,0.0,0.0,0.0,0.0,0.0,0.0,0.0,0.0,0.0,0.0,0.0,0.0,0.0,0.0,0.0,0.0,0.0,0.0,0.0,0.0,0.0,0.0,0.0,0.0,-0.6103,-0.6551,-0.625,-0.6176,-0.6358,-0.641,-0.6412,-0.6366,-0.6249,-0.6034,0.0,0.0,0.0,0.0,0.0,0.0,0.0,0.0,0.0,0.0,0.0,0.0,0.0,0.0,0.0,0.0,0.0,0.0,0.0,0.0,0.0,0.0,0.0,0.0,0.0,0.0,0.0,0.0,0.0,0.0,0.0,0.0,0.0,0.0,0.0,0.0,0.0,0.0,0.0,0.0,0.0,0.0,-1.3191,-1.3794,0.0,0.0,0.0,-1.4123,-1.4325,0.0,0.0,0.0,0.0,0.0,0.0,0.0,0.0,0.0,0.0,0.0,0.0,0.0,0.0,0.0,0.0,0.0,0.0,0.0,0.0,0.0,0.0,0.0,0.0,0.0,0.0,0.0,0.0,0.0,0.0,0.0,0.0,0.0,0.0,0.0,0.0,0.0,0.0,0.0,0.0,0.0,0.0,0.0,0.0,0.0,0.0,0.0,0.0,0.0,0.0,0.0,0.0,0.0,0.0,0.0,0.0,0.0,-0.6829,-0.6369,-0.6198,-0.6429,-0.6437,-0.6437,-0.6434,-0.6328,0.0,0.0,0.0,0.0,0.0,0.0,0.0,0.0,0.0,0.0,0.0,0.0,0.0,0.0,0.0,0.0,0.0,0.0,0.0,0.0,0.0,0.0,0.0,0.0,0.0,0.0,0.0,-0.9301,0.0,0.0,0.0,0.0,0.0,0.0,0.0,0.0,0.0,0.0,0.0,0.0,0.0,0.0,-1.3238,-1.3491,-1.3933,-1.4298,0.0,0.0,-1.4298,-1.4298,-1.4135,-1.389,0.0,0.0,0.0,0.0,0.0,0.0,0.0,0.0,0.0,0.0,0.0,0.0,0.0,0.0,0.0,0.0,0.0,0.0,0.0,0.0,0.0,0.0,0.0,0.0,0.0,0.0,0.0,0.0,0.0,0.0,0.0,0.0,0.0,0.0,0.0,0.0,0.0,0.0,0.0,0.0,0.0,0.0,0.0,0.0,0.0,0.0,0.0,0.0,0.0,0.0,0.0,0.0,0.0,0.0,-0.6248,-0.6829,-0.6369,-0.62,-0.6426,-0.6437,-0.6437,-0.6434,-0.6328,-0.6214,0.0,0.0,0.0,0.0,0.0,0.0,0.0,0.0,0.0,0.0,0.0,0.0,0.0,0.0,0.0,0.0,0.0,0.0,0.0,0.0,0.0,0.0,0.0,0.0,0.0,0.0,0.0,0.0,0.0,0.0,0.0,0.0,0.0,0.0,0.0,0.0,0.0,0.0,0.0,0.0,0.0,-1.3061,-1.3496,-1.404,-1.4298,0.0,-1.4298,-1.4298,-1.4298,-1.4286,-1.4088,-1.3667,0.0,0.0,0.0,0.0,0.0,0.0,0.0,0.0,0.0,0.0,0.0,0.0,0.0,0.0,0.0,0.0,0.0,0.0,0.0,0.0,0.0,0.0,0.0,0.0,0.0,0.0,0.0,0.0,0.0,0.0,0.0,0.0,0.0,0.0,0.0,0.0,0.0,0.0,0.0,0.0,0.0,0.0,0.0,0.0,0.0,0.0,0.0,0.0,0.0,0.0,0.0,0.0,0.0,-0.6161,-0.6835,-0.6446,-0.6276,-0.6429,-0.6437,-0.6437,-0.6437,-0.6393,-0.6219,0.0,0.0,0.0,0.0,0.0,0.0,0.0,0.0,0.0,0.0,0.0,0.0,0.0,0.0,0.0,0.0,0.0,0.0,0.0,0.0,0.0,0.0,0.0,0.0,0.0,0.0,0.0,0.0,-1.1346,-1.1514,-1.176,0.0,0.0,0.0,0.0,0.0,0.0,0.0,0.0,0.0,0.0,-1.3199,-1.3547,-1.3951,0.0,0.0,-1.4298,-1.4298,-1.4298,-1.4298,-1.4166,-1.3796,-1.3449,0.0,0.0,0.0,0.0,0.0,0.0,0.0,0.0,0.0,0.0,0.0,0.0,0.0,0.0,0.0,0.0,0.0,0.0,0.0,0.0,0.0,0.0,0.0,0.0,0.0,0.0,0.0,0.0,0.0,0.0,0.0,0.0,0.0,0.0,0.0,0.0,0.0,0.0,0.0,0.0,0.0,0.0,0.0,0.0,0.0,0.0,0.0,0.0,0.0,0.0,0.0,0.0,-0.6065,-0.6744,-0.6495,-0.6323,-0.6434,-0.6437,-0.6437,-0.6437,-0.6437,-0.6283,0.0,0.0,0.0,0.0,0.0,0.0,0.0,0.0,0.0,0.0,0.0,0.0,0.0,0.0,0.0,0.0,0.0,0.0,0.0,0.0,0.0,0.0,0.0,0.0,0.0,0.0,0.0,0.0,-1.2048,-1.2025,-1.1871,0.0,0.0,0.0,0.0,0.0,0.0,0.0,0.0,0.0,0.0,-1.3337,-1.3601,-1.4016,-1.4298,-1.4298,-1.4298,-1.4298,-1.4298,-1.4298,-1.4202,-1.4022,0.0,0.0,0.0,0.0,0.0,0.0,0.0,0.0,0.0,0.0,0.0,0.0,0.0,0.0,0.0,0.0,0.0,0.0,0.0,0.0,0.0,0.0,0.0,0.0,0.0,0.0,0.0,-0.3212,0.0,0.0,-0.3099,0.0,0.0,0.0,0.0,0.0,0.0,0.0,0.0,0.0,0.0,0.0,0.0,0.0,0.0,0.0,0.0,0.0,0.0,0.0,0.0,0.0,0.0,-0.6146,-0.6747,-0.6401,-0.6325,-0.6431,-0.6437,-0.6437,-0.6437,-0.6437,-0.6385,-0.6271,0.0,0.0,0.0,0.0,0.0,0.0,0.0,0.0,0.0,0.0,0.0,0.0,0.0,0.0,0.0,0.0,0.0,0.0,0.0,0.0,0.0,0.0,0.0,0.0,0.0,0.0,-1.2697,-1.2806,-1.2394,0.0,0.0,0.0,0.0,0.0,0.0,0.0,0.0,0.0,0.0,-1.3063,-1.3343,-1.38,-1.4112,-1.4298,-1.4304,-1.4304,-1.4304,-1.4316,-1.4316,-1.4298,0.0,0.0,0.0,0.0,0.0,0.0,0.0,0.0,0.0,0.0,0.0,0.0,0.0,0.0,0.0,0.0,0.0,0.0,0.0,0.0,0.0,0.0,0.0,0.0,0.0,0.0,0.0,-0.3535,-0.3531,0.0,0.0,0.0,0.0,0.0,0.0,0.0,0.0,0.0,0.0,0.0,-0.517,-0.5137,0.0,0.0,0.0,0.0,0.0,0.0,0.0,0.0,0.0,0.0,0.0,0.0,-0.6081,-0.6585,-0.6418,-0.6399,-0.6437,-0.6437,-0.6437,-0.6437,-0.6437,-0.6385,-0.6271,0.0,0.0,0.0,0.0,0.0,0.0,0.0,0.0,0.0,0.0,0.0,0.0,0.0,0.0,0.0,0.0,0.0,0.0,0.0,0.0,0.0,0.0,0.0,0.0,0.0,-1.2175,0.0,0.0,0.0,0.0,0.0,0.0,0.0,0.0,0.0,0.0,0.0,-1.1771,-1.2681,-1.3121,-1.3538,-1.3829,-1.4112,-1.4364,0.0,0.0,0.0,0.0,0.0,0.0,0.0,0.0,0.0,0.0,0.0,0.0,0.0,0.0,-1.2651,-1.2322,-1.2282,-1.2254,-1.2249,0.0,0.0,0.0,0.0,0.0,0.0,0.0,0.0,0.0,0.0,0.0,0.0,0.0,0.0,-0.4308,0.0,-0.4272,0.0,0.0,0.0,0.0,0.0,0.0,0.0,0.0,-0.5407,-0.5443,-0.5573,-0.5536,-0.5422,0.0,-0.5422,-0.5281,0.0,0.0,0.0,0.0,0.0,0.0,0.0,0.0,-0.6088,-0.646,-0.6479,-0.6458,-0.6499,-0.6502,-0.6521,-0.6562,-0.6524,-0.6445,-0.6331,-0.629,-0.6159,0.0,0.0,0.0,0.0,0.0,0.0,0.0,0.0,0.0,0.0,0.0,0.0,0.0,0.0,0.0,0.0,0.0,0.0,0.0,0.0,0.0,0.0,0.0,-1.2558,0.0,0.0,0.0,0.0,0.0,0.0,0.0,0.0,0.0,-1.1223,-1.1561,-1.1972,-1.2623,-1.3052,-1.3443,-1.3738,0.0,0.0,0.0,0.0,0.0,0.0,0.0,-1.5113,-1.5113,-1.5005,-1.4737,-1.4577,-1.4307,-1.4097,-1.3999,0.0,0.0,-1.3122,-1.2968,-1.2934,-1.3031,-1.3067,-1.3124,-1.3118,-1.3229,-1.3316,0.0,0.0,0.0,0.0,0.0,0.0,0.0,0.0,-0.5371,-0.5412,0.0,-0.5208,0.0,0.0,0.0,0.0,-0.5182,-0.5378,0.0,0.0,-0.558,-0.5583,-0.5866,-0.5767,-0.5621,-0.5434,-0.5626,-0.591,-0.6297,-0.5718,0.0,0.0,0.0,0.0,0.0,0.0,-0.6271,-0.6279,-0.6388,-0.6499,-0.6716,-0.6622,-0.6681,-0.6895,-0.6687,-0.6567,-0.6448,-0.6342,-0.6279,-0.6265,-0.6043,0.0,0.0,0.0,0.0,0.0,0.0,0.0,0.0,0.0,0.0,0.0,0.0,0.0,0.0,0.0,0.0,0.0,0.0,0.0,0.0,-1.2963,0.0,0.0,0.0,0.0,0.0,0.0,0.0,0.0,0.0,0.0,-1.1287,-1.1482,-1.1838,-1.2339,0.0,0.0,0.0,0.0,-1.4418,-1.4652,-1.4956,-1.5125,-1.5143,-1.5143,-1.5143,-1.5143,0.0,0.0,-1.5119,-1.5113,-1.5089,-1.5101,-1.489,-1.4445,-1.3705,-1.3435,-1.3337,-1.3465,-1.3607,-1.3738,-1.3855,-1.4058,-1.4256,-0.5057,0.0,0.0,0.0,0.0,-0.5179,-0.5472,-0.5573,-0.5414,-0.5424,-0.5424,-0.5393,0.0,0.0,0.0,0.0,0.0,0.0,-0.5884,-0.6283,-0.6155,-0.6155,-0.6283,-0.6251,-0.6139,-0.6139,-0.6137,-0.6238,-0.6342,-0.624,-0.5861,-0.5426,0.0,0.0,0.0,0.0,-0.6108,-0.6391,-0.6505,-0.6584,-0.6619,-0.6706,-0.6766,-0.6801,-0.6768,-0.669,-0.657,-0.6537,-0.6442,-0.6276,-0.62,0.0,0.0,0.0,0.0,0.0,0.0,0.0,0.0,0.0,0.0,0.0,0.0,0.0,0.0,0.0,0.0,0.0,0.0,0.0,-1.2732,-1.3237,-1.3555,0.0,0.0,0.0,0.0,0.0,0.0,0.0,0.0,0.0,-1.0993,-1.1206,-1.1619,0.0,0.0,-1.2818,-1.338,-1.3766,-1.4142,-1.4607,-1.4924,0.0,-1.5334,-1.5569,-1.5668,-1.5668,-1.5511,-1.539,-1.5384,-1.5234,-1.5113,-1.5113,-1.5046,-1.4867,-1.4678,-1.4302,-1.4046,-1.4088,-1.404,-1.4112,-1.4184,-1.4208,-1.4304,-0.5365,-0.5451,-0.5545,-0.5448,-0.5352,-0.5644,-0.5841,-0.594,-0.5838,-0.5741,-0.5838,-0.5838,-0.5838,-0.5838,-0.5841,0.0,0.0,0.0,-0.6171,-0.6437,-0.6437,-0.6437,-0.6437,-0.6239,-0.6239,-0.6237,-0.6137,-0.6034,-0.6034,-0.6239,-0.6171,-0.5652,0.0,0.0,-0.6131,-0.6182,-0.6237,-0.651,-0.663,-0.6714,-0.6766,-0.688,-0.6921,-0.6877,-0.6874,-0.6817,-0.6698,-0.669,-0.6605,-0.6418,-0.6407,-0.6298,0.0,0.0,0.0,0.0,0.0,0.0,0.0,0.0,0.0,0.0,0.0,-0.803,-0.8653,0.0,0.0,0.0,-1.1263,-1.2104,-1.3098,-1.3352,0.0,0.0,0.0,0.0,0.0,0.0,0.0,-1.1763,-1.1303,-1.096,-1.0788,-1.0801,-1.0998,-1.178,-1.2154,-1.2558,-1.3286,0.0,-1.4015,-1.452,-1.4849,-1.5182,-1.5452,-1.569,-1.5791,-1.5891,-1.5759,-1.5656,-1.565,-1.5517,-1.5427,-1.5409,-1.5336,-1.5264,-1.5264,-1.4908,-1.4618,-1.4618,-1.4618,-1.4618,-1.4618,-1.4618,-1.4618,-0.5541,-0.6042,-0.6237,-0.6237,-0.5939,-0.6237,-0.6437,-0.6437,-0.6437,-0.6437,-0.6437,-0.6437,-0.6437,-0.6437,-0.6437,0.0,-0.6437,-0.6437,-0.6437,-0.6437,-0.6337,-0.6337,-0.6337,-0.6139,-0.5942,-0.5839,-0.5636,-0.5534,-0.5434,-0.6052,-0.6261,-0.6057,-0.6261,-0.6461,-0.6458,-0.6573,-0.6632,-0.6635,-0.6755,-0.6874,-0.6997,-0.71,-0.7105,-0.7002,-0.6997,-0.6942,-0.6825,-0.6817,-0.676,-0.6643,-0.6635,-0.6529,-0.6312,0.0,0.0,0.0,0.0,0.0,0.0,0.0,0.0,0.0,0.0,0.0,0.0,0.0,0.0,0.0,-1.1864,0.0,-1.305,-1.3346,0.0,0.0,0.0,-1.3346,-1.3147,-1.2662,-1.237,-1.2078,0.0,0.0,-1.0801,-1.0314,-1.0319,-1.1124,-1.1785,-1.2425,-1.2931,-1.3415,-1.393,-1.4389,-1.4781,-1.5035,-1.5261,-1.5482,-1.5583,-1.5891,-1.5885,-1.5873,-1.5873,-1.5867,-1.5879,-1.5855,-1.5692,-1.5529,-1.5529,-1.5324,-1.5167,-1.5173,-1.5119,-1.5095,-1.5071,-1.5065,-1.5059,-0.5739,-0.6042,-0.6237,-0.6337,-0.6237,-0.6337,-0.6437,-0.6437,-0.6437,-0.6437,-0.6437,-0.6437,-0.6437,-0.6437,-0.6437,-0.6437,-0.6437,-0.6437,-0.6437,-0.6337,-0.6239,-0.6039,-0.6039,-0.5839,-0.5636,-0.5534,-0.5534,-0.5534,-0.5436,-0.5616,-0.5965,-0.6177,-0.6575,-0.6676,-0.6584,-0.6698,-0.6757,-0.6757,-0.6877,-0.6999,-0.7108,-0.7141,-0.7143,-0.7116,-0.7114,-0.7059,-0.6948,-0.6942,-0.6885,-0.6766,-0.6757,-0.6692,-0.6545,-0.6448,0.0,0.0,0.0,0.0,0.0,0.0,0.0,0.0,0.0,-0.844,-0.9206,0.0,-1.0318,0.0,-1.1848,-1.2565,-1.305,-1.3147,0.0,0.0,-1.3346,-1.3147,-1.305,-1.2856,-1.2565,-1.2078,-1.1683,-1.1296,-1.09,-1.0511,-1.047,-1.1016,-1.1271,-1.1663,-1.2337,-1.3107,-1.3567,-1.3955,-1.4352,-1.4713,-1.4826,-1.5261,-1.5583,-1.5891,-1.5885,-1.5885,-1.5885,-1.5885,-1.5885,-1.5885,-1.5843,-1.5795,-1.5789,-1.5741,-1.5704,-1.5674,-1.539,-1.5113,-1.5113,-1.5119,-1.5119,-0.5739,-0.6042,-0.6239,-0.6437,-0.6437,-0.6437,-0.6437,-0.6437,-0.6437,-0.6437,-0.6437,-0.6437,-0.6437,-0.6437,-0.6437,-0.6437,-0.6437,-0.6239,-0.6237,-0.6137,-0.5937,-0.5839,-0.5839,-0.5539,-0.5336,-0.5336,-0.5181,-0.5099,-0.5203,-0.5192,-0.545,-0.5874,-0.63,-0.6536,-0.6363,-0.6744,-0.6883,-0.6885,-0.6999,-0.7092,-0.7152,-0.7154,-0.7154,-0.7154,-0.7154,-0.7124,-0.7065,-0.7062,-0.7005,-0.6891,-0.6883,-0.6828,-0.6709,-0.6638,-0.6548,0.0,0.0,0.0,0.0,0.0,0.0,0.0,0.0,0.0,0.0,0.0,-1.0581,-1.1282,-1.178,-1.2273,-1.2759,-1.2861,-1.3055,-1.3249,-1.3244,-1.305,-1.305,-1.2856,-1.2467,-1.2073,-1.1683,-1.1292,-1.0806,-1.0587,-1.0484,-1.0905,-1.0959,-1.1412,-1.2268,-1.2886,-1.3281,-1.3619,-1.3964,-1.4396,-1.4713,-1.5154,-1.5589,-1.5785,-1.5885,-1.5885,-1.5885,-1.5885,-1.5885,-1.5885,-1.5885,-1.5885,-1.5885,-1.5885,-1.5885,-1.5849,-1.5662,-1.5481,-1.5457,-1.5451,-1.5457,-0.5737,-0.6042,-0.6239,-0.6337,-0.6437,-0.6437,-0.6437,-0.6437,-0.6437,-0.6437,-0.6437,-0.6437,-0.6337,-0.6337,-0.6337,-0.6337,-0.6337,-0.6039,-0.5939,-0.5839,-0.5651,-0.5555,-0.5454,-0.5271,-0.5075,-0.508,-0.4648,-0.4579,-0.4888,-0.487,-0.5018,-0.5452,-0.5868,-0.6136,-0.6134,-0.6681,-0.6899,-0.701,-0.7105,-0.7154,-0.7154,-0.7154,-0.7154,-0.7154,-0.7154,-0.7154,-0.7154,-0.7154,-0.7108,-0.7016,-0.7008,-0.6953,-0.6834,-0.6828,-0.6771,0.0,-0.6641,0.0,0.0,0.0,0.0,0.0,0.0,0.0,0.0,-0.973,-1.0806,-1.1487,-1.1585,-1.1883,-1.2273,-1.257,-1.2764,-1.2953,-1.305,-1.305,-1.305,-1.2662,-1.2375,-1.2078,-1.1585,-1.1203,-1.095,-1.061,-1.0412,-1.0817,-1.0858,-1.1269,-1.2191,-1.2651,-1.298,-1.3532,-1.364,-1.4072,-1.4826,-1.5261,-1.5589,-1.5785,-1.5885,-1.5885,-1.5885,-1.5885,-1.5885,-1.5885,-1.5885,-1.5885,-1.5885,-1.5885,-1.5885,-1.5885,-1.5861,-1.5843,-1.5849,-1.5843,-1.5885,-0.5539,-0.6042,-0.6042,-0.6239,-0.6437,-0.6437,-0.6437,-0.6437,-0.6437,-0.6437,-0.6437,-0.6437,-0.6239,-0.6039,-0.6039,-0.6039,-0.5939,-0.5739,-0.5636,-0.5536,-0.5424,-0.5257,-0.5054,-0.4914,-0.4635,-0.4429,-0.4337,-0.4239,-0.4344,-0.4857,-0.5005,-0.4893,-0.5414,-0.5682,-0.5906,0.0,0.0,0.0,-0.7143,-0.7154,-0.7154,-0.7154,-0.7154,-0.7154,-0.7154,0.0,-0.7154,-0.7154,-0.7146,-0.7124,-0.7122,0.0,0.0,0.0,0.0,0.0,0.0,0.0,0.0,0.0,0.0,0.0,-0.7778,-0.8431,-0.8795,-0.9993,-1.09,-1.1292,-1.1688,-1.198,-1.2073,-1.2073,-1.2268,-1.2467,-1.2565,-1.2565,-1.2856,-1.2764,-1.2565,-1.2078,-1.1883,-1.1757,-1.1435,-1.0891,-1.0835,-1.1321,-1.1137,-1.1138,-1.1711,-1.2195,-1.2654,-1.2989,-1.3428,-1.3964,-1.4821,-1.5041,-1.5357,-1.5785,-1.5885,-1.5885,-1.5885,-1.5885,-1.5885,-1.5885,-1.5885,-1.5885,-1.5885,-1.5885,-1.5885,-1.5885,-1.5885,-1.5885,-1.5885,-1.5885,-1.5885,-0.524,-0.5641,-0.5737,-0.6039,0.0,-0.6137,-0.607,-0.6116,-0.6361,-0.6372,-0.6329,-0.6182,-0.6102,-0.6002,-0.6002,-0.5896,-0.5688,-0.5485,-0.5171,-0.4862,-0.4808,-0.4727,-0.4515,-0.4344,-0.4151,-0.4048,-0.3761,-0.3666,-0.3886,-0.4173,-0.4319,-0.4205,-0.435,-0.4592,-0.4929,-0.5487,-0.6267,-0.6935,-0.6935,-0.7043,-0.7154,-0.7154,-0.7154,-0.7154,-0.7154,0.0,0.0,0.0,0.0,0.0,0.0,0.0,0.0,-0.707,0.0,-0.6983,-0.6975,-0.6953,-0.6899,-0.6998,-0.7157,-0.7139,-0.7852,-0.8582,-0.9145,-0.9817,-1.0413,-1.0806,-1.1194,-1.1492,-1.1585,-1.1688,-1.1878,-1.2175,-1.2175,-1.2273,-1.237,-1.2375,-1.2319,-1.2028,-1.1949,-1.1834,-1.1638,-1.1254,-1.1168,-1.1367,-1.1048,-1.0916,-1.1324,-1.1782,-1.2332,-1.2989,-1.3423,-1.3964,-1.4606,-1.4934,-1.5143,-1.5577,-1.5791,-1.5891,-1.5885,-1.5885,-1.5885,-1.5885,-1.5885,-1.5885,-1.5885,-1.5885,-1.5885,-1.5885,-1.5885,-1.5885,-1.5885,-1.5885,-1.5885,-0.4836,-0.5138,-0.5336,-0.5739,-0.6247,-0.5758,-0.5725,-0.5923,-0.6139,0.0,0.0,-0.6022,-0.5847,-0.5744,-0.5744,-0.5636,-0.553,-0.5108,-0.4574,-0.4148,-0.4164,-0.4066,-0.4066,-0.3756,-0.3653,-0.355,-0.3161,-0.3073,-0.3296,-0.3453,-0.3477,-0.3475,-0.3362,-0.3475,-0.4038,-0.4815,-0.5596,-0.6379,-0.6492,-0.6715,-0.7043,-0.7154,-0.7154,-0.7154,-0.7154,-0.7154,-0.7154,-0.7154,-0.7154,-0.7154,-0.7154,-0.7154,-0.7154,-0.7154,-0.7154,-0.7154,-0.7154,-0.7114,-0.7024,-0.7013,-0.7069,-0.7261,-0.7864,-0.8584,-0.9338,-0.9522,-0.9805,-1.0268,-1.0564,-1.0847,-1.1002,-1.1296,-1.1492,-1.178,-1.178,-1.1893,-1.1933,-1.1943,-1.1939,-1.1827,-1.1769,-1.1749,-1.1643,-1.1384,-1.1198,-1.1246,-1.0925,-1.0802,-1.1131,-1.1673,-1.2332,-1.2876,-1.3315,-1.3856,-1.439,-1.4713,-1.5041,-1.5476,-1.5684,-1.5791,-1.5891,-1.5885,-1.5885,-1.5885,-1.5885,-1.5885,-1.5885,-1.5885,-1.5885,-1.5885,-1.5885,-1.5885,-1.5885,-1.5885,-1.5885,-0.4435,-0.4834,-0.4935,-0.5236,-0.5746,-0.5734,-0.5834,-0.5929,-0.5915,-0.5917,-0.5934,-0.5948,-0.5636,-0.5214,-0.5214,-0.5216,-0.5116,-0.4579,-0.4151,-0.3728,-0.3892,-0.3811,-0.3597,-0.3315,-0.3117,-0.2897,-0.2793,-0.2795,-0.2796,-0.2802,-0.2806,-0.2805,-0.2353,-0.2688,-0.3924,-0.4148,-0.4706,-0.5594,-0.6272,-0.6609,-0.6824,-0.7054,-0.7163,-0.7154,-0.7154,-0.7154,-0.7154,-0.7154,-0.7154,-0.7154,-0.7154,-0.7154,-0.7154,-0.7154,-0.7154,-0.7154,-0.7154,-0.7257,-0.7133,-0.713,-0.7188,-0.7396,-0.7387,-0.7725,-0.8525,-0.9457,-1.0018,-0.9965,-1.0361,-1.0693,-1.0538,-1.0623,-1.073,-1.0918,-1.1203,-1.1368,-1.1544,-1.1773,-1.1755,-1.1438,-1.1358,-1.1435,-1.142,-1.1065,-1.0932,-1.105,-1.0777,-1.0802,-1.1021,-1.1568,-1.2114,-1.2441,-1.2985,-1.3527,-1.4169,-1.4493,-1.4821,-1.5374,-1.5482,-1.569,-1.5785,-1.5891,-1.5885,-1.5885,-1.5885,-1.5885,-1.5885,-1.5885,-1.5885,-1.5885,-1.5885,-1.5885,-1.5885,-1.5885,-1.5885,-0.383,-0.413,-0.4332,-0.4562,-0.492,-0.4954,-0.4929,-0.5078,-0.5122,-0.5333,-0.5511,-0.5448,-0.5144,-0.4815,-0.4815,-0.482,-0.4715,-0.4163,-0.3615,-0.3176,-0.3202,-0.3216,-0.2995,-0.2793,-0.2579,-0.2468,-0.2244,-0.2244,-0.2244,-0.2244,-0.2244,-0.2244,-0.213,-0.2466,-0.3253,-0.3589,-0.4035,-0.448,-0.5487,-0.6158,-0.6495,-0.6945,-0.7165,-0.6937,-0.7046,-0.7154,-0.7154,-0.7154,-0.7154,-0.7154,-0.7154,-0.7154,-0.7154,-0.7154,-0.7154,-0.7154,-0.7154,-0.7154,-0.7154,-0.7154,-0.7243,-0.7298,-0.7354,-0.7536,-0.797,-0.8676,-0.9287,-0.953,-0.9935,-1.0211,-1.0226,-1.0319,-1.0522,-1.0822,-1.0923,-1.1065,-1.1141,-1.1271,-1.1349,-1.1321,-1.1252,-1.1332,-1.1419,-1.1008,-1.0812,-1.0789,-1.0472,-1.0363,-1.0582,-1.1017,-1.1564,-1.2223,-1.2659,-1.3093,-1.3743,-1.4169,-1.4493,-1.4934,-1.5261,-1.5476,-1.569,-1.5791,-1.5891,-1.5885,-1.5885,-1.5885,-1.5885,-1.5885,-1.5885,-1.5885,-1.5885,-1.5885,-1.5885,-1.5885,-1.5885,-0.3128,-0.3428,-0.3748,-0.401,-0.4315,-0.4216,-0.4274,-0.4294,-0.4345,-0.4559,-0.4739,-0.4681,-0.4592,-0.4257,-0.4257,-0.4145,-0.4039,-0.3589,-0.3138,-0.269,-0.258,-0.2581,-0.2581,-0.2244,-0.2132,-0.2244,-0.1907,-0.1795,-0.1795,-0.1795,-0.1795,-0.1795,-0.2019,-0.2244,-0.2581,-0.3029,-0.3363,-0.3586,-0.448,-0.5373,-0.6047,-0.6606,-0.6717,-0.6715,-0.6935,-0.7154,-0.7154,-0.7154,-0.7154,-0.7154,-0.7154,-0.7154,-0.7154,-0.7154,-0.7154,-0.7154,-0.7154,-0.7154,-0.7154,-0.7154,-0.7154,-0.7154,-0.7382,-0.7493,-0.759,-0.7967,-0.8458,-0.9071,-0.938,-0.968,-0.9839,-1.0044,-1.026,-1.0468,-1.0573,-1.0577,-1.0623,-1.0627,-1.0708,-1.0881,-1.0923,-1.0978,-1.1093,-1.0802,-1.0472,-1.0359,-1.0036,-0.9926,-1.0143,-1.0363,-1.0907,-1.1673,-1.2223,-1.2659,-1.331,-1.3851,-1.4169,-1.4498,-1.4928,-1.5261,-1.5476,-1.5684,-1.5891,-1.5891,-1.5885,-1.5885,-1.5885,-1.5885,-1.5885,-1.5885,-1.5885,-1.5885,-1.5885,-1.5885,-1.5885,-0.2522,-0.2935,-0.3185,-0.3695,-0.4236,-0.415,-0.4082,-0.4023,-0.4035,-0.3808,-0.3463,-0.3808,-0.3924,-0.3699,-0.3362,-0.3251,-0.3143,-0.2918,-0.2693,-0.2467,-0.2244,-0.2244,-0.2244,-0.2019,-0.1795,-0.1907,-0.1795,-0.1795,-0.1795,-0.1795,-0.1795,-0.1795,-0.1795,-0.2019,-0.2244,-0.2356,-0.2579,-0.3138,-0.3587,-0.4367,-0.5371,-0.5483,-0.5929,-0.6712,-0.6712,-0.6935,-0.7157,-0.7154,-0.7154,-0.7154,-0.7154,-0.7154,-0.7154,-0.7154,-0.7154,-0.7154,-0.7154,-0.7154,-0.7154,-0.7154,-0.7154,-0.7154,-0.7268,-0.7379,-0.7496,-0.7695,-0.7956,-0.8618,-0.9012,-0.9275,-0.935,-0.9452,-0.9572,-0.9579,-0.9778,-0.9797,-0.972,-0.9858,-1.0031,-0.9991,-1.0104,-0.9908,-1.0029,-0.9923,-0.9926,-0.9812,-0.9706,-0.9706,-0.9816,-0.9926,-1.0143,-1.0911,-1.1673,-1.2332,-1.2659,-1.3207,-1.3748,-1.4175,-1.4493,-1.4821,-1.5261,-1.5476,-1.5589,-1.5857,-1.5922,-1.5928,-1.5916,-1.5885,-1.5903,-1.5891,-1.5885,-1.5885,-1.5885,-1.5885,-1.5885,-0.193,-0.2154,-0.2688,-0.2967,-0.3278,-0.3316,-0.3233,-0.3253,-0.3254,-0.3029,-0.2915,-0.2917,-0.2917,-0.303,-0.2917,-0.2806,-0.2693,-0.2468,-0.2244,-0.2019,-0.2019,-0.2019,-0.1907,-0.1907,-0.1795,-0.1795,-0.1795,-0.1795,-0.1795,-0.1795,-0.1795,-0.1795,-0.1795,-0.1907,-0.1907,-0.2132,-0.2356,-0.2579,-0.2802,-0.3361,-0.4255,-0.5037,-0.5594,-0.5931,-0.627,-0.6604,-0.6824,-0.6935,-0.7043,-0.7154,-0.7154,-0.7154,-0.7154,-0.7154,-0.7154,-0.7154,-0.7154,-0.7154,-0.7154,-0.7154,-0.7154,-0.7154,-0.7154,-0.7268,-0.7379,-0.7382,-0.7575,-0.7981,-0.851,-0.8808,-0.9071,-0.9179,-0.9403,-0.9615,-0.9723,-0.9749,-0.9701,-0.9708,-0.9855,-0.9809,-0.9816,-0.9816,-0.9706,-0.9482,-0.9258,-0.9037,-0.9037,-0.9151,-0.9258,-0.9485,-0.9706,-1.0143,-1.0911,-1.1678,-1.2223,-1.2659,-1.3202,-1.3748,-1.4175,-1.4606,-1.4826,-1.5148,-1.5296,-1.5766,-1.5904,-1.6018,-1.6139,-1.6115,-1.6103,-1.6,-1.5891,-1.5885,-1.5885,-1.5885,-1.5885,-0.1633,-0.1764,-0.2097,-0.2465,-0.2646,-0.2679,-0.2693,-0.2693,-0.2693,-0.2581,-0.2468,-0.2244,-0.2244,-0.2468,-0.2468,-0.2356,-0.2244,-0.2132,-0.2019,-0.1795,-0.1795,-0.1795,-0.1795,-0.157,-0.157,-0.157,-0.1683,-0.1683,-0.1346,-0.1346,-0.1346,-0.157,-0.1683,-0.1795,-0.1795,-0.2019,-0.2132,-0.2132,-0.2242,-0.2578,-0.3251,-0.4367,-0.5037,-0.5371,-0.5822,-0.627,-0.6604,-0.6601,-0.6824,-0.7043,-0.7154,-0.7154,-0.7154,-0.7154,-0.7154,-0.7154,-0.7154,-0.7154,-0.7154,-0.7154,-0.7154,-0.7154,-0.7154,-0.7154,-0.7154,-0.7154,-0.7268,-0.749,-0.7937,-0.8371,-0.8592,-0.8819,-0.9044,-0.9261,-0.9265,-0.9261,-0.9258,-0.9261,-0.9258,-0.9265,-0.9154,-0.9265,-0.9261,-0.8927,-0.8595,-0.8488,-0.8374,-0.8377,-0.8592,-0.893,-0.9265,-0.9482,-1.0033,-1.0692,-1.1782,-1.2332,-1.2659,-1.3207,-1.3635,-1.4169,-1.4407,-1.4752,-1.5155,-1.5551,-1.5771,-1.6068,-1.6178,-1.6276,-1.6314,-1.6085,-1.5952,-1.591,-1.5885,-1.5885,-1.5885,-0.1635,-0.1566,-0.1722,-0.2092,-0.269,-0.258,-0.2693,-0.2581,-0.2581,-0.2356,-0.1907,-0.1795,-0.1795,-0.1795,-0.1795,-0.1795,-0.1795,-0.1795,-0.1795,-0.1795,-0.1795,-0.1795,-0.1795,-0.1234,-0.1009,-0.1009,-0.1458,-0.1121,-0.0224,0.0,-0.0336,-0.0897,-0.1458,-0.1795,-0.1795,-0.1795,-0.1795,-0.1907,-0.2019,-0.2244,-0.2356,-0.3251,-0.4257,-0.5148,-0.5483,-0.571,-0.6272,-0.6606,-0.6715,-0.6715,-0.7046,-0.7154,-0.7154,-0.7154,-0.7154,-0.7154,-0.7154,-0.7154,-0.7154,-0.7154,-0.7154,-0.7154,-0.7154,-0.7154,-0.7154,-0.7154,-0.7265,-0.7265,-0.749,-0.7826,-0.8045,-0.8156,-0.8159,-0.8159,-0.8156,-0.8156,-0.8156,-0.8266,-0.8048,-0.8159,-0.8269,-0.8269,-0.8159,-0.8045,-0.8045,-0.8045,-0.8045,-0.8045,-0.8156,-0.8374,-0.8706,-0.8923,-0.9368,-0.9816,-1.0692,-1.1455,-1.2114,-1.2659,-1.3202,-1.3759,-1.4261,-1.4663,-1.4998,-1.5365,-1.5764,-1.6092,-1.6216,-1.6386,-1.6384,-1.6302,-1.6054,-1.597,-1.5903,-1.5891,-1.5885,-0.0732,-0.1076,-0.1101,-0.1338,-0.157,-0.157,-0.157,-0.157,-0.157,-0.1458,-0.1234,-0.1234,-0.1234,-0.1234,-0.0785,-0.0897,-0.1234,-0.1234,-0.1234,-0.1234,-0.1234,-0.1458,-0.1795,-0.157,-0.1009,-0.0448,-0.0561,-0.0448,0.0,0.0,-0.0112,-0.0336,-0.0561,-0.0785,-0.1234,-0.157,-0.1795,-0.1795,-0.1907,-0.2019,-0.2132,-0.258,-0.325,-0.4145,-0.4817,-0.5264,-0.5708,-0.5933,-0.6267,-0.6712,-0.6824,-0.6935,-0.7154,-0.7154,-0.7154,-0.7154,-0.7154,-0.7154,-0.7154,-0.7154,-0.7154,-0.7154,-0.7154,-0.7154,-0.7154,-0.7154,-0.7154,-0.7265,-0.7268,-0.7379,-0.7487,-0.782,-0.8048,-0.8048,-0.7937,-0.7934,-0.8048,-0.8048,-0.8048,-0.8048,-0.8048,-0.8048,-0.7934,-0.7823,-0.7715,-0.7718,-0.7718,-0.7715,-0.7826,-0.8045,-0.8266,-0.8595,-0.8927,-0.9261,-0.9706,-1.0692,-1.1455,-1.2219,-1.2777,-1.3188,-1.3592,-1.4119,-1.4552,-1.5101,-1.5613,-1.6012,-1.6138,-1.6321,-1.6434,-1.6336,-1.6205,-1.6091,-1.5916,-1.5952,-1.5928,0.0107,-0.0219,-0.0334,-0.0336,-0.0336,-0.0336,-0.0336,-0.0336,-0.0336,-0.0336,-0.0336,-0.0336,-0.0336,-0.0224,0.0112,0.0224,-0.0,-0.0224,-0.0336,-0.0336,-0.0336,-0.0561,-0.0897,-0.0897,-0.0673,0.0,0.0,0.0,0.0,0.0,0.0,0.0,0.0,-0.0224,-0.0673,-0.1009,-0.1346,-0.1683,-0.1795,-0.1907,-0.2019,-0.2132,-0.2475,-0.3162,-0.4067,-0.4743,-0.5304,-0.5502,-0.5951,-0.6422,-0.6624,-0.6824,-0.7154,-0.7154,-0.7154,-0.7154,-0.7154,-0.7154,-0.7154,-0.7154,-0.7154,-0.7154,-0.7154,-0.7154,-0.7154,-0.7154,-0.7154,-0.7154,-0.7154,-0.7154,-0.7265,-0.7487,-0.7712,-0.7712,-0.7712,-0.7709,-0.7712,-0.7712,-0.7712,-0.7712,-0.7712,-0.7712,-0.7712,-0.7601,-0.7493,-0.7493,-0.7493,-0.7493,-0.7493,-0.7715,-0.7937,-0.8156,-0.8595,-0.8816,-0.9261,-0.9919,-1.0692,-1.1345,-1.2142,-1.2679,-1.3155,-1.3573,-1.4097,-1.4766,-1.5284,-1.5793,-1.6085,-1.6269,-1.6321,-1.6351,-1.6348,-1.6356,-1.6199,-1.6042,-1.603,0.0862,0.0877,0.0891,0.0897,0.0785,0.0785,0.0897,0.0785,0.0897,0.0785,0.0785,0.0897,0.0785,0.0897,0.0897,0.1121,0.1346,0.1009,0.0785,0.0785,0.0785,0.0785,0.0785,0.0673,0.0448,0.0112,0.0,0.0,0.0,0.0,0.0,0.0,0.0,0.0,0.0,0.0,-0.0673,-0.1458,-0.1683,-0.1795,-0.1795,-0.2024,-0.2267,-0.2412,-0.3219,-0.4141,-0.506,-0.5324,-0.566,-0.595,-0.6454,-0.6831,-0.7062,-0.7171,-0.716,-0.7157,-0.7154,-0.7154,-0.7154,-0.7154,-0.7154,-0.7154,-0.7154,-0.7154,-0.7154,-0.7154,-0.7154,-0.7154,-0.7154,-0.7154,-0.7154,-0.7265,-0.7265,-0.7154,-0.7265,-0.7265,-0.7265,-0.7268,-0.7265,-0.7265,-0.7265,-0.7265,-0.7265,-0.7265,-0.7268,-0.7268,-0.7268,-0.7268,-0.7268,-0.749,-0.7607,-0.7718,-0.8045,-0.8488,-0.8819,-0.9258,-0.9923,-1.059,-1.1397,-1.2133,-1.2571,-1.3154,-1.3714,-1.4341,-1.5077,-1.5595,-1.5937,-1.6141,-1.6379,-1.6439,-1.6547,-1.661,-1.6429,-1.6278,-1.6187,0.1425,0.1558,0.1566,0.157,0.157,0.157,0.157,0.157,0.1458,0.1458,0.157,0.1458,0.1458,0.157,0.157,0.157,0.1795,0.157,0.157,0.1458,0.1458,0.1458,0.1458,0.1458,0.1234,0.0673,0.0224,0.0,0.0,0.0,0.0,0.0,0.0,0.0,0.0,0.0,-0.0224,-0.0561,-0.1346,-0.1804,-0.1823,-0.194,-0.207,-0.2335,-0.2573,-0.3172,-0.4269,-0.4913,-0.5348,-0.5718,-0.604,-0.6455,-0.6848,-0.7166,-0.7239,-0.7165,-0.7154,-0.7154,-0.7154,-0.7154,-0.7154,-0.7154,-0.7154,-0.7154,-0.7154,-0.7154,-0.7154,-0.7154,-0.7154,-0.7154,-0.7154,-0.7154,-0.7154,-0.7154,-0.7154,-0.7154,-0.7154,-0.7154,-0.7154,-0.7154,-0.7154,-0.7154,-0.7154,-0.7154,-0.7154,-0.7154,-0.7154,-0.7154,-0.7265,-0.7268,-0.7382,-0.7607,-0.7826,-0.8045,-0.8488,-0.8826,-0.9275,-0.9868,-1.0695,-1.1441,-1.1972,-1.2515,-1.3189,-1.3952,-1.4687,-1.5343,-1.5693,-1.611,-1.6221,-1.6576,-1.6653,-1.6589,-1.6634,-1.6525,-1.6459,0.1767,0.1794,0.1795,0.1795,0.1795,0.1795,0.1795,0.1795,0.1795,0.1795,0.1795,0.1795,0.1795,0.1795,0.1795,0.1795,0.1795,0.1795,0.1795,0.1795,0.1795,0.1795,0.1795,0.1795,0.1683,0.1234,0.0897,0.0561,0.0336,0.0,0.0,0.0,0.0,0.0,0.0,0.0,0.0,0.0,-0.079,-0.1366,-0.1723,-0.1851,-0.1872,-0.2136,-0.2259,-0.2636,-0.3397,-0.4213,-0.4896,-0.5456,-0.602,-0.6434,-0.6837,-0.7132,-0.7298,-0.7236,-0.7182,-0.7154,-0.7154,-0.7154,-0.7154,-0.7154,-0.7154,-0.7154,-0.7154,-0.7154,-0.7154,-0.7154,-0.7154,-0.7154,-0.7154,-0.7154,-0.7154,-0.7154,-0.7154,-0.7154,-0.7154,-0.7154,-0.7154,-0.7154,-0.7154,-0.7154,-0.7154,-0.7154,-0.7154,-0.7154,-0.7154,-0.7154,-0.7154,-0.7154,-0.7379,-0.7493,-0.7604,-0.7826,-0.8156,-0.8387,-0.8732,-0.9356,-0.9995,-1.0662,-1.1265,-1.191,-1.2456,-1.3423,-1.4277,-1.4753,-1.5224,-1.5709,-1.5987,-1.6243,-1.6611,-1.6742,-1.6828,-1.6857,-1.6779,0.177,0.1793,0.1795,0.1795,0.1795,0.1795,0.1795,0.1795,0.1795,0.1795,0.1795,0.1795,0.1795,0.1795,0.1795,0.1795,0.1795,0.1795,0.1795,0.1795,0.1795,0.1795,0.1795,0.1795,0.1795,0.1683,0.1683,0.1458,0.0897,0.0,0.0,0.0,0.0,0.0,0.0,0.0,0.0,0.0,0.0,-0.069,-0.1503,-0.1874,-0.1903,-0.1931,-0.2175,-0.2429,-0.27,-0.3559,-0.4395,-0.5305,-0.6074,-0.6622,-0.6932,-0.7188,-0.726,-0.7347,-0.7233,-0.7187,-0.7168,-0.716,-0.7154,-0.7154,-0.7154,-0.7154,-0.7154,-0.7154,-0.7154,-0.7154,-0.7154,-0.7154,-0.7154,-0.7154,-0.7154,-0.7154,-0.7154,-0.7154,-0.7154,-0.7154,-0.7154,-0.7154,-0.7154,-0.7154,-0.7154,-0.7154,-0.7154,-0.7154,-0.7154,-0.7154,-0.7154,-0.7154,-0.7154,-0.7268,-0.7382,-0.7604,-0.7826,-0.8003,-0.8354,-0.8755,-0.9422,-1.0026,-1.0813,-1.1322,-1.1925,-1.2888,-1.3688,-1.4282,-1.4759,-1.5121,-1.5715,-1.6127,-1.6417,-1.6862,-1.7029,-1.7038,-1.708,0.1788,0.1795,0.1795,0.1795,0.1795,0.1795,0.1795,0.1795,0.1795,0.1795,0.1795,0.1795,0.1795,0.1795,0.1795,0.1795,0.1795,0.1795,0.1795,0.1795,0.1795,0.1795,0.1795,0.1795,0.1795,0.1795,0.1795,0.1683,0.157,0.1346,0.0897,0.0,0.0,0.0,0.0,0.0,0.0,0.0,0.0,0.0,-0.0594,-0.1434,-0.1934,-0.1961,-0.2086,-0.2212,-0.259,-0.3452,-0.4309,-0.5269,-0.5861,-0.6292,-0.6705,-0.7015,-0.7311,-0.7348,-0.7358,-0.7285,-0.7269,-0.7206,-0.7163,-0.7154,-0.7154,-0.7154,-0.7154,-0.7154,-0.7154,-0.7154,-0.7154,-0.7154,-0.7154,-0.7154,-0.7154,-0.7154,-0.7154,-0.7154,-0.7154,-0.7154,-0.7154,-0.7154,-0.7154,-0.7154,-0.7154,-0.7154,-0.7154,-0.7154,-0.7154,-0.7154,-0.7154,-0.7154,-0.7154,-0.7154,-0.7268,-0.7382,-0.7627,-0.7699,-0.7983,-0.8265,-0.8849,-0.9392,-1.0173,-1.1101,-1.1551,-1.2238,-1.3084,-1.3684,-1.4162,-1.4639,-1.5235,-1.5833,-1.6279,-1.6586,-1.6956,-1.7137,-1.7235,0.1795,0.1795,0.1795,0.1795,0.1795,0.1795,0.1795,0.1795,0.1795,0.1795,0.1795,0.1795,0.1795,0.1795,0.1795,0.1795,0.1795,0.1795,0.1795,0.1795,0.1795,0.1795,0.1795,0.1795,0.1795,0.1795,0.1795,0.1795,0.1795,0.1795,0.1346,0.0,0.0224,0.0,0.0,0.0,0.0,0.0,0.0,0.0,0.0,-0.1215,-0.1835,-0.1974,-0.1977,-0.2099,-0.259,-0.3207,-0.3946,-0.4807,-0.5544,-0.6137,-0.6568,-0.6998,-0.7187,-0.7351,-0.7362,-0.7394,-0.7334,-0.7266,-0.7209,-0.7168,-0.7154,-0.7154,-0.7154,-0.7154,-0.7154,-0.7154,-0.7154,-0.7154,-0.7154,-0.7154,-0.7154,-0.7154,-0.7154,-0.7154,-0.7154,-0.7154,-0.7154,-0.7154,-0.7154,-0.7154,-0.7154,-0.7154,-0.7154,-0.7154,-0.7154,-0.7154,-0.7154,-0.7154,-0.7154,-0.7154,-0.7176,-0.7301,-0.746,-0.7533,-0.7899,-0.8186,-0.8518,-0.9058,-0.9696,-1.0601,-1.1234,-1.1756,-1.2479,-1.3084,-1.3564,-1.4162,-1.4759,-1.5353,-1.5828,-1.6301,-1.6661,-1.7015,-1.725,0.1795,0.1795,0.1795,0.1795,0.1795,0.1795,0.1795,0.1795,0.1795,0.1795,0.1795,0.1795,0.1795,0.1795,0.1795,0.1795,0.1795,0.1795,0.1795,0.1795,0.1795,0.1795,0.1795,0.1795,0.1795,0.1795,0.1795,0.1795,0.1795,0.1795,0.1795,0.1458,0.0673,0.0224,0.0,0.0,0.0,0.0,0.0,0.0,0.0,-0.098,-0.1602,-0.1975,-0.1977,-0.2099,-0.2468,-0.2838,-0.3454,-0.4316,-0.5302,-0.5912,-0.6265,-0.6796,-0.7123,-0.7334,-0.7369,-0.7494,-0.7396,-0.7361,-0.729,-0.7209,-0.7171,-0.7154,-0.7154,-0.7154,-0.7154,-0.7154,-0.7154,-0.7154,-0.7154,-0.7154,-0.7154,-0.7154,-0.7154,-0.7154,-0.7154,-0.7154,-0.7154,-0.7154,-0.7154,-0.7154,-0.7154,-0.7154,-0.7154,-0.7154,-0.7154,-0.7154,-0.7154,-0.7154,-0.7154,-0.7154,-0.7187,-0.723,-0.7293,-0.7369,-0.7758,-0.8005,-0.8453,-0.8927,-0.9284,-1.0041,-1.0653,-1.1269,-1.1997,-1.2479,-1.3084,-1.3684,-1.4282,-1.4883,-1.5359,-1.5828,-1.6301,-1.6655,-1.6891,0.1795,0.1795,0.1795,0.1795,0.1795,0.1795,0.1795,0.1795,0.1795,0.1795,0.1795,0.1795,0.1795,0.1795,0.1795,0.1795,0.1795,0.1795,0.1795,0.1795,0.1795,0.1795,0.1795,0.1795,0.1795,0.1795,0.1795,0.1795,0.1795,0.1795,0.1795,0.1683,0.1458,0.0898,0.0,0.0,0.0,0.0,0.0,0.0,0.0,0.0,-0.0988,-0.173,-0.1977,-0.21,-0.2099,-0.2468,-0.296,-0.3702,-0.4564,-0.5425,-0.6033,-0.6628,-0.6977,-0.7317,-0.7485,-0.7646,-0.7595,-0.7453,-0.7328,-0.7301,-0.722,-0.7154,-0.7154,-0.7154,-0.7154,-0.7154,-0.7154,-0.7154,-0.7154,-0.7154,-0.7154,-0.7154,-0.7154,-0.7154,-0.7154,-0.7154,-0.7154,-0.7154,-0.7154,-0.7154,-0.7154,-0.7154,-0.7154,-0.7154,-0.7154,-0.7154,-0.7154,-0.7154,-0.7171,-0.7182,-0.7233,-0.7293,-0.7415,-0.75,-0.7754,-0.7982,-0.8308,-0.861,-0.8973,-0.9335,-1.0061,-1.0668,-1.1394,-1.1877,-1.2479,-1.3084,-1.3684,-1.4286,-1.4883,-1.5359,-1.5828,-1.6183,-1.6661,0.1795,0.1795,0.1795,0.1795,0.1795,0.1795,0.1795,0.1795,0.1795,0.1795,0.1795,0.1795,0.1795,0.1795,0.1795,0.1795,0.1795,0.1795,0.1795,0.1795,0.1795,0.1795,0.1795,0.1795,0.1795,0.1795,0.1795,0.1795,0.1795,0.1795,0.1795,0.1795,0.1795,0.1467,0.0795,0.0346,0.0,0.0,0.0,0.0,0.0,0.0,-0.0247,-0.1112,-0.1606,-0.1977,-0.21,-0.2345,-0.2714,-0.3207,-0.3946,-0.4808,-0.5546,-0.6164,-0.6653,-0.7131,-0.7464,-0.7629,-0.7674,-0.7589,-0.7486,-0.7421,-0.7307,-0.726,-0.722,-0.7192,-0.7154,-0.7154,-0.7154,-0.7154,-0.7154,-0.7154,-0.7154,-0.7154,-0.7154,-0.7154,-0.7154,-0.7154,-0.7154,-0.7154,-0.7154,-0.7154,-0.7154,-0.7154,-0.7154,-0.7154,-0.7154,-0.7154,-0.7154,-0.7163,-0.7211,-0.7239,-0.7293,-0.738,-0.7524,-0.7641,-0.7755,-0.7939,-0.8091,-0.8366,-0.861,-0.8973,-0.9339,-1.0061,-1.0789,-1.1273,-1.1877,-1.2599,-1.3204,-1.3803,-1.4282,-1.4878,-1.5235,-1.5709,-1.607,0.1795,0.1795,0.1795,0.1795,0.1795,0.1795,0.1795,0.1795,0.1795,0.1795,0.1795,0.1795,0.1795,0.1795,0.1795,0.1795,0.1795,0.1795,0.1795,0.1795,0.1795,0.1795,0.1795,0.1795,0.1795,0.1795,0.1795,0.1795,0.1795,0.1795,0.1795,0.1795,0.1803,0.1702,0.1611,0.0937,0.0,0.0,0.0,0.0,0.0,0.0,0.0,-0.0371,-0.1112,-0.1853,-0.1977,-0.2222,-0.2467,-0.259,-0.3206,-0.419,-0.5053,-0.5669,-0.6039,-0.6775,-0.7133,-0.734,-0.7517,-0.7581,-0.7514,-0.7543,-0.7432,-0.7355,-0.7317,-0.7249,-0.7195,-0.7163,-0.7154,-0.7154,-0.7154,-0.7154,-0.7154,-0.7154,-0.7154,-0.7154,-0.7154,-0.7154,-0.7154,-0.7154,-0.7154,-0.7154,-0.7154,-0.7154,-0.7154,-0.7154,-0.7154,-0.716,-0.7163,-0.7192,-0.7249,-0.7336,-0.7402,-0.7519,-0.7663,-0.7709,-0.7834,-0.7856,-0.7872,-0.8119,-0.8244,-0.861,-0.8973,-0.9457,-1.0183,-1.0668,-1.1273,-1.1877,-1.2479,-1.3204,-1.3803,-1.4282,-1.4759,-1.5116,-1.5596,0.1795,0.1795,0.1795,0.1795,0.1795,0.1795,0.1795,0.1795,0.1795,0.1795,0.1795,0.1795,0.1795,0.1795,0.1795,0.1795,0.1795,0.1795,0.1795,0.1795,0.1795,0.1795,0.1795,0.1795,0.1795,0.1795,0.1795,0.1795,0.1795,0.1795,0.1797,0.18,0.1819,0.1836,0.1859,0.1536,0.0962,0.0363,0.0,0.0,0.0,0.0,0.0,0.0,-0.0741,-0.1359,-0.1853,-0.2099,-0.2222,-0.2467,-0.2714,-0.3206,-0.419,-0.5177,-0.5794,-0.6162,-0.6655,-0.7004,-0.734,-0.7391,-0.7464,-0.7528,-0.7559,-0.7442,-0.7375,-0.7317,-0.7266,-0.719,-0.7163,-0.7154,-0.7154,-0.7154,-0.7154,-0.7154,-0.7154,-0.7154,-0.7154,-0.7154,-0.7154,-0.7154,-0.7154,-0.7154,-0.7154,-0.7154,-0.7154,-0.7154,-0.7154,-0.7176,-0.7195,-0.7247,-0.7317,-0.7418,-0.7527,-0.7668,-0.7818,-0.782,-0.7864,-0.7864,-0.7872,-0.7872,-0.8119,-0.8244,-0.861,-0.9092,-0.9579,-1.0061,-1.0668,-1.1273,-1.1756,-1.2479,-1.3084,-1.3684,-1.4043,-1.4525,-1.5002,0.1795,0.1795,0.1795,0.1795,0.1795,0.1795,0.1795,0.1795,0.1795,0.1795,0.1795,0.1795,0.1795,0.1795,0.1795,0.1795,0.1795,0.1795,0.1795,0.1795,0.1795,0.1795,0.1795,0.1795,0.1795,0.1795,0.1795,0.1795,0.1795,0.1795,0.1804,0.1819,0.1835,0.1855,0.1885,0.1795,0.1576,0.0976,0.0,0.0,0.0,0.0,0.0,0.0,0.0,-0.0988,-0.1853,-0.1977,-0.21,-0.2222,-0.2467,-0.2714,-0.3329,-0.419,-0.5177,-0.5792,-0.6162,-0.6655,-0.7018,-0.7208,-0.743,-0.7538,-0.7562,-0.7597,-0.7524,-0.747,-0.7375,-0.7274,-0.7173,-0.7154,-0.7154,-0.7157,-0.7154,-0.7154,-0.7154,-0.7154,-0.7154,-0.7154,-0.7154,-0.7154,-0.7154,-0.7154,-0.7154,-0.7154,-0.7154,-0.7154,-0.716,-0.7195,-0.7239,-0.7317,-0.7404,-0.7543,-0.7655,-0.7736,-0.7856,-0.7861,-0.7872,-0.7872,-0.7872,-0.7872,-0.7994,-0.8119,-0.8366,-0.8732,-0.9095,-0.9582,-1.0065,-1.0547,-1.1152,-1.1635,-1.2238,-1.2844,-1.3329,-1.3808,-1.4286,0.1907,0.1795,0.1795,0.1795,0.1795,0.1795,0.1795,0.1795,0.1795,0.1795,0.1795,0.1795,0.1795,0.1795,0.1795,0.1795,0.1795,0.1795,0.1795,0.1795,0.1795,0.1795,0.1795,0.1795,0.1795,0.1796,0.1806,0.1801,0.1797,0.1804,0.1819,0.1838,0.1848,0.1879,0.1921,0.1937,0.1956,0.1598,0.1112,0.0371,0.0,0.0,0.0,0.0,0.0,-0.0494,-0.1359,-0.1853,-0.1977,-0.21,-0.2222,-0.2467,-0.259,-0.3206,-0.419,-0.53,-0.5671,-0.6162,-0.653,-0.7016,-0.7121,-0.736,-0.7546,-0.7616,-0.7663,-0.7559,-0.7467,-0.7375,-0.7271,-0.7206,-0.7209,-0.7171,-0.7157,-0.7154,-0.7154,-0.7154,-0.7154,-0.7154,-0.7154,-0.7154,-0.7157,-0.7163,-0.7171,-0.7165,-0.7168,-0.723,-0.7239,-0.7301,-0.735,-0.7429,-0.7527,-0.7679,-0.7782,-0.782,-0.7867,-0.7867,-0.7872,-0.7872,-0.7872,-0.7872,-0.7872,-0.7994,-0.8119,-0.8366,-0.8735,-0.9098,-0.9579,-0.9943,-1.0547,-1.1031,-1.1394,-1.1997,-1.2603,-1.3084,-1.3564,0.2019,0.1795,0.1795,0.1795,0.1795,0.1795,0.1795,0.1795,0.1795,0.1795,0.1795,0.1795,0.1795,0.1795,0.1795,0.1795,0.1795,0.1795,0.1795,0.1795,0.1795,0.1795,0.1795,0.1795,0.1798,0.1804,0.1823,0.1817,0.1814,0.1827,0.1838,0.1853,0.1892,0.1926,0.1936,0.1955,0.1972,0.1976,0.1853,0.1112,0.0,0.0,0.0,0.0,0.0,0.0,0.0,-0.1235,-0.1853,-0.1977,-0.21,-0.2222,-0.2467,-0.259,-0.3204,-0.4067,-0.493,-0.5669,-0.6039,-0.6405,-0.6771,-0.7138,-0.736,-0.7556,-0.7603,-0.7616,-0.7527,-0.7502,-0.7385,-0.732,-0.7298,-0.7228,-0.7179,-0.7182,-0.7209,-0.7198,-0.7187,-0.7255,-0.7244,-0.723,-0.7255,-0.7217,-0.7201,-0.719,-0.7187,-0.7258,-0.7328,-0.7394,-0.7472,-0.7557,-0.7625,-0.7766,-0.7826,-0.7858,-0.7872,-0.7872,-0.7872,-0.7872,-0.7872,-0.7872,-0.7872,-0.7872,-0.7872,-0.8119,-0.8488,-0.8732,-0.9095,-0.9579,-0.9943,-1.0425,-1.0789,-1.1273,-1.1877,-1.2238,-1.2844,0.2467,0.2019,0.1907,0.1795,0.1795,0.1795,0.1795,0.1795,0.1795,0.1795,0.1795,0.1795,0.1795,0.1795,0.1795,0.1795,0.1795,0.1795,0.1795,0.1795,0.1795,0.1795,0.1795,0.1796,0.18,0.1823,0.1834,0.1848,0.1846,0.1858,0.1872,0.1893,0.1917,0.194,0.1952,0.1969,0.1975,0.1977,0.1977,0.1483,0.0741,0.0,0.0,0.0,0.0,0.0,0.0,-0.0371,-0.1359,-0.173,-0.1977,-0.2099,-0.2222,-0.2344,-0.2713,-0.3081,-0.4066,-0.4805,-0.5544,-0.5914,-0.6405,-0.6771,-0.7138,-0.7482,-0.7661,-0.7695,-0.7622,-0.7619,-0.751,-0.7448,-0.7437,-0.7394,-0.7375,-0.7355,-0.7323,-0.7334,-0.7336,-0.7358,-0.7385,-0.7366,-0.7353,-0.7334,-0.7312,-0.7307,-0.7331,-0.7396,-0.7456,-0.7505,-0.7603,-0.7709,-0.7769,-0.7834,-0.7861,-0.7869,-0.7872,-0.7872,-0.7872,-0.7872,-0.7872,-0.7872,-0.7872,-0.7872,-0.7872,-0.7872,-0.8116,-0.8363,-0.8729,-0.9095,-0.946,-0.9822,-1.0183,-1.0664,-1.1148,-1.1756,-1.2363,0.2914,0.2244,0.2019,0.1907,0.1795,0.1795,0.1795,0.1795,0.1795,0.1795,0.1795,0.1795,0.1795,0.1795,0.1795,0.1795,0.1795,0.1795,0.1795,0.1795,0.1796,0.18,0.1807,0.181,0.1823,0.1851,0.1867,0.1877,0.1892,0.1906,0.1919,0.1932,0.1939,0.1954,0.197,0.1976,0.1977,0.1977,0.1977,0.173,0.1235,0.0865,0.0,0.0,0.0,0.0,0.0,0.0,-0.0741,-0.1112,-0.1853,-0.1977,-0.2099,-0.2222,-0.2467,-0.2713,-0.3329,-0.3944,-0.4684,-0.5298,-0.5914,-0.6405,-0.6896,-0.738,-0.7614,-0.7664,-0.7741,-0.7741,-0.7635,-0.7578,-0.7557,-0.7535,-0.7489,-0.7481,-0.7489,-0.751,-0.7519,-0.7502,-0.7481,-0.7451,-0.7453,-0.7508,-0.7486,-0.7462,-0.7486,-0.7543,-0.7589,-0.7622,-0.7709,-0.7815,-0.7839,-0.7872,-0.7872,-0.7872,-0.7872,-0.7872,-0.7872,-0.7872,-0.7872,-0.7872,-0.7872,-0.7872,-0.7872,-0.7872,-0.7872,-0.7994,-0.836,-0.861,-0.8979,-0.9339,-0.97,-1.0061,-1.0425,-1.1152,-1.1756,0.3251,0.2581,0.2356,0.2019,0.1795,0.1795,0.1795,0.1795,0.1795,0.1795,0.1795,0.1795,0.1795,0.1795,0.1795,0.1795,0.1795,0.1795,0.1797,0.1797,0.1797,0.1815,0.1828,0.1841,0.1853,0.1882,0.1898,0.1915,0.1932,0.1947,0.1945,0.2059,0.1956,0.197,0.1976,0.1977,0.1977,0.1977,0.1977,0.1977,0.1853,0.173,0.1482,0.0865,0.0371,0.0,0.0,0.0,0.0,0.0,-0.1235,-0.1977,-0.1977,-0.21,-0.2222,-0.2468,-0.259,-0.3207,-0.3822,-0.4684,-0.5546,-0.6037,-0.653,-0.7021,-0.7383,-0.7383,-0.749,-0.7834,-0.7736,-0.7698,-0.7655,-0.7606,-0.7587,-0.7592,-0.7611,-0.7608,-0.7608,-0.7587,-0.7562,-0.7529,-0.7559,-0.7627,-0.7657,-0.763,-0.7625,-0.7676,-0.7687,-0.7722,-0.7771,-0.7853,-0.7858,-0.7872,-0.7872,-0.7872,-0.7872,-0.7872,-0.7872,-0.7872,-0.7872,-0.7872,-0.7872,-0.7872,-0.7872,-0.7872,-0.7872,-0.7994,-0.7994,-0.8241,-0.861,-0.8854,-0.9217,-0.9457,-0.994,-1.0668,-1.1152,0.3587,0.3253,0.2692,0.2244,0.1795,0.1795,0.1795,0.1795,0.1795,0.1795,0.1795,0.1795,0.1795,0.1795,0.1795,0.1795,0.1795,0.1795,0.1806,0.1819,0.1827,0.1842,0.1859,0.1872,0.1883,0.191,0.1928,0.1944,0.196,0.1971,0.197,0.1967,0.1971,0.1974,0.1977,0.1977,0.1977,0.1977,0.1977,0.1977,0.1977,0.1977,0.1853,0.1606,0.1482,0.0988,0.0,0.0,0.0,0.0,0.0,-0.1112,-0.1853,-0.1853,-0.21,-0.2222,-0.2345,-0.259,-0.296,-0.3946,-0.4807,-0.5794,-0.6162,-0.653,-0.7018,-0.7266,-0.7385,-0.7612,-0.7712,-0.7793,-0.7788,-0.7763,-0.7752,-0.7741,-0.7725,-0.7714,-0.7703,-0.7687,-0.7687,-0.7674,-0.7714,-0.7774,-0.779,-0.7799,-0.7799,-0.7804,-0.7809,-0.7818,-0.785,-0.7872,-0.7872,-0.7872,-0.7872,-0.7872,-0.7872,-0.7872,-0.7872,-0.7872,-0.7872,-0.7872,-0.7872,-0.7872,-0.7872,-0.7872,-0.7872,-0.7872,-0.7994,-0.7997,-0.8241,-0.8488,-0.8732,-0.9095,-0.9579,-1.0061,-1.0547,0.3923,0.3589,0.2917,0.2356,0.1795,0.1795,0.1795,0.1795,0.1795,0.1795,0.1795,0.1795,0.1795,0.1795,0.1795,0.1804,0.1808,0.1813,0.183,0.1844,0.1857,0.1873,0.189,0.1904,0.1915,0.1938,0.1946,0.1959,0.1973,0.1976,0.1975,0.1975,0.1977,0.1977,0.1977,0.1977,0.1977,0.1977,0.1977,0.1977,0.1977,0.1977,0.1977,0.1977,0.1853,0.173,0.1359,0.0988,0.0,0.0,0.0,0.0,-0.1112,-0.173,-0.1977,-0.21,-0.2223,-0.2345,-0.2591,-0.3329,-0.4313,-0.5177,-0.5669,-0.6037,-0.653,-0.6898,-0.7018,-0.7266,-0.7505,-0.775,-0.775,-0.7723,-0.7834,-0.7812,-0.7815,-0.7809,-0.7815,-0.7807,-0.782,-0.7826,-0.7853,-0.7845,-0.7845,-0.7845,-0.7842,-0.7842,-0.7842,-0.7842,-0.7856,-0.7872,-0.7872,-0.7872,-0.7872,-0.7872,-0.7872,-0.7872,-0.7872,-0.7872,-0.7872,-0.7872,-0.7872,-0.7872,-0.7872,-0.7872,-0.7872,-0.7872,-0.7872,-0.7994,-0.8119,-0.8244,-0.8488,-0.8732,-0.9095,-0.9579,-0.9943,0.4145,0.3587,0.2918,0.2356,0.1907,0.1795,0.1795,0.1795,0.1795,0.1795,0.1795,0.1795,0.1797,0.1798,0.1802,0.1817,0.1836,0.184,0.1856,0.1879,0.1885,0.1904,0.192,0.1934,0.1943,0.1968,0.1971,0.197,0.1977,0.1977,0.1977,0.1977,0.1977,0.1977,0.1977,0.1977,0.1977,0.1977,0.1977,0.1977,0.1977,0.1977,0.1977,0.1977,0.1977,0.1853,0.173,0.173,0.1112,0.0,0.0,0.0,0.0,0.0,-0.1853,-0.1853,-0.1977,-0.21,-0.21,-0.3207,-0.3944,-0.4561,-0.493,-0.5423,-0.5792,-0.6283,-0.6528,-0.6775,-0.7143,-0.7388,-0.7508,-0.7627,-0.775,-0.7872,-0.7872,-0.7872,-0.7872,-0.7872,-0.7872,-0.7872,-0.7872,-0.7869,-0.7869,-0.7869,-0.7867,-0.7867,-0.7869,-0.7872,-0.7872,-0.7872,-0.7872,-0.7872,-0.7872,-0.7872,-0.7872,-0.7872,-0.7872,-0.7872,-0.7872,-0.7872,-0.7872,-0.7872,-0.7872,-0.7872,-0.7872,-0.7872,-0.7872,-0.7872,-0.7994,-0.8119,-0.8244,-0.8488,-0.8732,-0.8976,-0.9339,0.4592,0.4145,0.3142,0.2581,0.2356,0.1907,0.1795,0.1795,0.1795,0.1795,0.1795,0.1795,0.1808,0.1819,0.1827,0.1841,0.1749,0.1871,0.1887,0.1913,0.1915,0.1935,0.1952,0.1959,0.1965,0.1973,0.1977,0.1977,0.1977,0.1977,0.1977,0.1977,0.1977,0.1977,0.1977,0.1977,0.1977,0.1977,0.1977,0.1977,0.1977,0.1977,0.1977,0.1977,0.1977,0.1977,0.1977,0.1977,0.173,0.1112,0.0618,0.0,0.0,0.0,-0.1235,-0.1483,-0.1606,-0.1977,-0.2099,-0.2715,-0.333,-0.3822,-0.4315,-0.4684,-0.5177,-0.5794,-0.6039,-0.6285,-0.6775,-0.7021,-0.7143,-0.7385,-0.7508,-0.7627,-0.7627,-0.7872,-0.7872,-0.7872,-0.7872,-0.7872,-0.7872,-0.7872,-0.7872,-0.7872,-0.7872,-0.7872,-0.7872,-0.7872,-0.7872,-0.7872,-0.7872,-0.7872,-0.7872,-0.7872,-0.7872,-0.7872,-0.7872,-0.7872,-0.7872,-0.7872,-0.7872,-0.7872,-0.7872,-0.7872,-0.7872,-0.7872,-0.7872,-0.7872,-0.7872,-0.7994,-0.8119,-0.8244,-0.8488,-0.861,-0.8732,0.4706,0.4369,0.3251,0.2692,0.2581,0.2019,0.1795,0.1797,0.1806,0.181,0.1813,0.1822,0.1837,0.1853,0.1858,0.1872,0.178,0.1902,0.1917,0.1943,0.1947,0.1958,0.197,0.1977,0.1974,0.1977,0.1977,0.1977,0.1977,0.1977,0.1977,0.1977,0.1977,0.1977,0.1977,0.1977,0.1977,0.1977,0.1977,0.1977,0.1977,0.1977,0.1977,0.1977,0.1977,0.1977,0.1977,0.1977,0.1977,0.173,0.1235,0.0371,0.0124,-0.0371,-0.0618,-0.0865,-0.1483,-0.1853,-0.2099,-0.2222,-0.2715,-0.3329,-0.3575,-0.3946,-0.4562,-0.5053,-0.5423,-0.5792,-0.6285,-0.653,-0.6775,-0.7018,-0.7143,-0.7263,-0.7385,-0.7508,-0.775,-0.775,-0.775,-0.775,-0.7872,-0.7872,-0.7872,-0.7872,-0.7872,-0.7872,-0.7872,-0.7872,-0.7872,-0.7872,-0.7872,-0.7872,-0.7872,-0.7872,-0.7872,-0.7872,-0.7872,-0.7872,-0.7872,-0.7872,-0.7872,-0.7872,-0.7872,-0.7872,-0.7872,-0.7872,-0.7872,-0.7872,-0.7872,-0.7872,-0.7994,-0.8119,-0.8244,-0.8244,-0.8366,0.4817,0.4367,0.3475,0.292,0.2472,0.2028,0.1802,0.1801,0.1829,0.1842,0.1843,0.1869,0.1881,0.1885,0.1887,0.1904,0.1928,0.1932,0.1948,0.1964,0.1968,0.1975,0.1975,0.1977,0.1977,0.1977,0.1977,0.1977,0.1977,0.1977,0.1977,0.1977,0.1977,0.1977,0.1977,0.1977,0.1977,0.1977,0.1977,0.1977,0.1977,0.1977,0.1977,0.1977,0.1977,0.1977,0.1977,0.1977,0.1977,0.1977,0.1853,0.1112,0.0618,0.0124,0.0,-0.0371,-0.1235,-0.1606,-0.1977,-0.2099,-0.2222,-0.2715,-0.3085,-0.3453,-0.3944,-0.4313,-0.4684,-0.5176,-0.5546,-0.5914,-0.6283,-0.653,-0.6775,-0.6898,-0.69,-0.7143,-0.7388,-0.7508,-0.763,-0.7627,-0.7872,-0.7872,-0.7872,-0.7872,-0.7872,-0.7872,-0.7872,-0.7872,-0.7872,-0.7872,-0.7872,-0.7872,-0.7872,-0.7872,-0.7872,-0.7872,-0.7872,-0.7872,-0.7872,-0.7872,-0.7872,-0.7872,-0.7872,-0.7872,-0.7872,-0.7872,-0.7872,-0.7872,-0.7872,-0.7872,-0.7872,-0.7994,-0.8119,-0.7997,-0.8119,0.515,0.4485,0.3746,0.3425,0.3201,0.266,0.2194,0.1834,0.1859,0.1872,0.1873,0.1881,0.1901,0.1917,0.1918,0.1937,0.1952,0.1964,0.1968,0.1975,0.1977,0.1977,0.1977,0.1977,0.1977,0.1977,0.1977,0.1977,0.1977,0.1977,0.1977,0.1977,0.1977,0.1977,0.1977,0.1977,0.1977,0.1977,0.1977,0.1977,0.1977,0.1977,0.1977,0.1977,0.1977,0.1977,0.1977,0.1977,0.1977,0.1977,0.1977,0.1606,0.1606,0.0988,0.0618,0.0,-0.0494,-0.0865,-0.173,-0.1977,-0.21,-0.2099,-0.247,-0.2716,-0.3208,-0.3698,-0.4069,-0.4438,-0.4931,-0.53,-0.5546,-0.5916,-0.6039,-0.6162,-0.641,-0.6653,-0.6898,-0.7021,-0.7263,-0.7508,-0.775,-0.7872,-0.7872,-0.7872,-0.7872,-0.7872,-0.7872,-0.7872,-0.7872,-0.7872,-0.7872,-0.7872,-0.7872,-0.7872,-0.7872,-0.7872,-0.7872,-0.7872,-0.7872,-0.7872,-0.7872,-0.7872,-0.7872,-0.7872,-0.7872,-0.7872,-0.7872,-0.7872,-0.7872,-0.7872,-0.7872,-0.7872,-0.7872,-0.7872,-0.7872,0.5539,0.4874,0.4145,0.3828,0.3491,0.2953,0.2482,0.2116,0.1896,0.1904,0.1905,0.1917,0.1932,0.1947,0.195,0.1958,0.1973,0.1974,0.1976,0.1976,0.1977,0.1977,0.1977,0.1977,0.1977,0.1977,0.1977,0.1977,0.1977,0.1977,0.1977,0.1977,0.1977,0.1977,0.1977,0.1977,0.1977,0.1977,0.1977,0.1977,0.1977,0.1977,0.1977,0.1977,0.1977,0.1977,0.1977,0.1977,0.1977,0.1977,0.1977,0.1977,0.1977,0.1606,0.0865,0.0,0.0,0.0,-0.0988,-0.1482,-0.173,-0.1977,-0.1977,-0.2223,-0.2592,-0.2961,-0.3453,-0.3822,-0.4192,-0.4562,-0.4931,-0.5179,-0.5302,-0.5548,-0.5916,-0.6285,-0.653,-0.6653,-0.6898,-0.7385,-0.763,-0.775,-0.7872,-0.7872,-0.7872,-0.7872,-0.7872,-0.7872,-0.7872,-0.7872,-0.7872,-0.7872,-0.7872,-0.7872,-0.7872,-0.7872,-0.7872,-0.7872,-0.7872,-0.7872,-0.7872,-0.7872,-0.7872,-0.7872,-0.7872,-0.7872,-0.7872,-0.7872,-0.7872,-0.7872,-0.7872,-0.7872,-0.7872,-0.7872,-0.7872,0.5866,0.5412,0.468,0.3896,0.3316,0.3121,0.2776,0.2415,0.2175,0.1934,0.194,0.1962,0.1971,0.197,0.1971,0.1971,0.1977,0.1977,0.1977,0.1977,0.1977,0.1977,0.1977,0.1977,0.1977,0.1977,0.1977,0.1977,0.1977,0.1977,0.1977,0.1977,0.1977,0.1977,0.1977,0.1977,0.1977,0.1977,0.1977,0.1977,0.1977,0.1977,0.1977,0.1977,0.1977,0.1977,0.1977,0.1977,0.1977,0.1977,0.1977,0.1977,0.1977,0.1853,0.1112,0.0,0.0,0.0,0.0,-0.0741,-0.1112,-0.1483,-0.1977,-0.21,-0.2346,-0.2591,-0.296,-0.3207,-0.3699,-0.3822,-0.4192,-0.4439,-0.4687,-0.4808,-0.5176,-0.5546,-0.5794,-0.6039,-0.653,-0.6896,-0.7266,-0.7385,-0.7627,-0.775,-0.775,-0.7872,-0.7872,-0.7872,-0.7872,-0.7872,-0.7872,-0.7872,-0.7872,-0.7872,-0.7872,-0.7872,-0.7872,-0.7872,-0.7872,-0.7872,-0.7872,-0.7872,-0.7872,-0.7872,-0.7872,-0.7872,-0.7872,-0.7872,-0.7872,-0.7872,-0.7872,-0.7872,-0.7872,-0.7872,-0.7872,0.6543,0.562,0.4639,0.4099,0.3778,0.3429,0.3189,0.2821,0.2454,0.2208,0.1967,0.1973,0.1977,0.1977,0.1977,0.1977,0.1977,0.1977,0.1977,0.1977,0.1977,0.1977,0.1977,0.1977,0.1977,0.1977,0.1977,0.1977,0.1977,0.1977,0.1977,0.1977,0.1977,0.1977,0.1977,0.1977,0.1977,0.1977,0.1977,0.1977,0.1977,0.1977,0.1977,0.1977,0.1977,0.1977,0.1977,0.1977,0.1977,0.1977,0.1977,0.1977,0.1977,0.1977,0.1853,0.1482,0.0618,0.0,0.0,0.0,0.0,0.0,-0.1235,-0.173,-0.2099,-0.2344,-0.259,-0.2837,-0.296,-0.3207,-0.3453,-0.3701,-0.3948,-0.4192,-0.4436,-0.4808,-0.5056,-0.5671,-0.6162,-0.653,-0.69,-0.7143,-0.7385,-0.7627,-0.775,-0.775,-0.7872,-0.7872,-0.7872,-0.7872,-0.7872,-0.7872,-0.7872,-0.7872,-0.7872,-0.7872,-0.7872,-0.7872,-0.7872,-0.7872,-0.7872,-0.7872,-0.7872,-0.7872,-0.7872,-0.7872,-0.7872,-0.7872,-0.7872,-0.7872,-0.7872,-0.7872,-0.7872,-0.7872,-0.7872,0.7238,0.6423,0.5437,0.4769,0.431,0.407,0.3699,0.333,0.3085,0.2715,0.2469,0.2223,0.1977,0.1977,0.1977,0.1977,0.1977,0.1977,0.1977,0.1977,0.1977,0.1977,0.1977,0.1977,0.1977,0.1977,0.1977,0.1977,0.1977,0.1977,0.1977,0.1977,0.1977,0.1977,0.1977,0.1977,0.1977,0.1977,0.1977,0.1977,0.1977,0.1977,0.1977,0.1977,0.1977,0.1977,0.1977,0.1977,0.1977,0.1977,0.1977,0.1977,0.1977,0.1977,0.1977,0.1853,0.1235,0.0,0.0,0.0,0.0,0.0,0.0,0.0,0.0,-0.1851,-0.2221,-0.2468,-0.259,-0.2836,-0.296,-0.3207,-0.3331,-0.3576,-0.3824,-0.4195,-0.4564,-0.5179,-0.5671,-0.6162,-0.641,-0.6653,-0.7018,-0.7385,-0.7508,-0.763,-0.7752,-0.7872,-0.7872,-0.7872,-0.7872,-0.7872,-0.7872,-0.7872,-0.7872,-0.7872,-0.7872,-0.7872,-0.7872,-0.7872,-0.7872,-0.7872,-0.7872,-0.7872,-0.7872,-0.7872,-0.7872,-0.7872,-0.7872,-0.7872,-0.7872,-0.7872,-0.7872,-0.7872,-0.7872,0.7831,0.7611,0.6487,0.5548,0.5056,0.4685,0.4315,0.3944,0.3701,0.3331,0.3085,0.247,0.2099,0.2099,0.1977,0.1977,0.1977,0.1977,0.1977,0.1977,0.1977,0.1977,0.1977,0.1977,0.1977,0.1977,0.1977,0.1977,0.1977,0.1977,0.1977,0.1977,0.1977,0.1977,0.1977,0.1977,0.1977,0.1977,0.1977,0.1977,0.1977,0.1977,0.1977,0.1977,0.1977,0.1977,0.1977,0.1977,0.1977,0.1977,0.1977,0.1977,0.1977,0.1977,0.1977,0.1853,0.1853,0.1235,0.0,0.0,0.0,0.0,0.0,0.0,0.0,-0.1482,-0.1853,-0.1975,-0.2221,-0.2467,-0.259,-0.259,-0.2838,-0.2961,-0.3332,-0.3579,-0.4071,-0.4564,-0.5056,-0.5671,-0.5916,-0.6162,-0.653,-0.7021,-0.7266,-0.7385,-0.763,-0.775,-0.7869,-0.7872,-0.7872,-0.7872,-0.7872,-0.7872,-0.7872,-0.7872,-0.7872,-0.7872,-0.7872,-0.7872,-0.7872,-0.7872,-0.7872,-0.7872,-0.7872,-0.7872,-0.7872,-0.7872,-0.7872,-0.7872,-0.7872,-0.7872,-0.7872,-0.7872,-0.7872,0.8566,0.7718,0.6764,0.6037,0.5671,0.53,0.5054,0.4685,0.4069,0.3821,0.3576,0.3085,0.2715,0.2345,0.2099,0.1977,0.21,0.21,0.1977,0.1977,0.1977,0.1977,0.1977,0.1977,0.1977,0.1977,0.1977,0.1977,0.1977,0.1977,0.1977,0.1977,0.1977,0.1977,0.1977,0.1977,0.1977,0.1977,0.1977,0.1977,0.1977,0.1977,0.1977,0.1977,0.1977,0.1977,0.1977,0.1977,0.1977,0.1977,0.1977,0.1977,0.1977,0.1977,0.1977,0.1977,0.1977,0.1853,0.1235,0.0618,0.0,0.0,0.0,0.0,-0.0865,-0.1359,-0.1606,-0.1482,-0.1729,-0.2099,-0.2223,-0.2223,-0.2346,-0.2591,-0.2961,-0.3208,-0.3577,-0.3947,-0.4315,-0.4807,-0.5176,-0.5546,-0.6039,-0.653,-0.6896,-0.7018,-0.7385,-0.7627,-0.775,-0.7872,-0.7872,-0.7872,-0.7872,-0.7872,-0.7872,-0.7872,-0.7872,-0.7872,-0.7872,-0.7872,-0.7872,-0.7872,-0.7872,-0.7872,-0.7872,-0.7872,-0.7872,-0.7872,-0.7872,-0.7872,-0.7872,-0.7872,-0.7872,-0.7872,-0.7872]}]]